[[[{"header":{"parameterUnit":"kt","parameterCategory":2,"dx":1,"dy":1,"la1":29.587661999999998,"la2":31.0,"lo1":-88.76705300000003,"lo2":-86.6583820000003,"nx":115,"ny":88,"refTime":"2022-10-03T06:00:00:Z","depth":0,"parameterNumber":1,"parameterNumberName":"U-component_of_WINDS"},"data":[7.9145,7.9145,7.9145,7.9145,7.9145,7.9145,7.9145,7.9145,7.9145,7.9145,7.8817,7.8162,7.8107,7.909,7.9145,7.903,7.884,7.9087,7.9999,8.0839,8.0372,8.102,8.1369,8.0782,7.9678,7.9727,8.0133,8.0362,8.0174,7.9394,7.9301,8.0071,7.8943,7.8322,7.8246,7.7758,7.7532,7.7306,7.678,7.6234,7.6291,7.582,7.5388,7.4203,7.3,7.2548,7.1928,7.1099,7.0687,7.0938,7.2059,7.3816,7.5287,7.6625,7.8066,7.9577,8.0683,8.2102,8.4023,8.5218,8.643,8.739,8.865,8.9704,9.0181,9.1153,9.1266,9.1715,9.1954,9.2784,9.4225,9.5785,9.7346,9.9035,10.0623,10.1166,10.1317,10.1405,10.1545,10.1562,10.1562,10.1667,10.1771,10.1858,10.1858,10.1858,10.1858,10.1858,10.1858,10.1615,10.1387,10.1891,10.2399,10.294,10.3435,10.4485,10.4963,10.4715,10.4681,10.5657,10.6041,10.5697,10.598,10.6668,10.7342,10.7982,10.9146,11.0309,11.168,11.305,11.3167,11.3283,11.4097,11.4562,11.4562,7.9145,7.9145,7.9145,7.9145,7.9145,7.9145,7.9145,7.9145,7.9145,7.9145,7.9036,7.8926,7.8926,7.909,7.9166,7.9153,7.9278,7.9526,7.9898,8.0467,8.0671,8.1276,8.1547,8.1595,8.12,8.1116,8.1237,8.1303,8.1293,8.1087,8.0805,8.1163,8.0542,7.9639,7.9281,7.8773,7.8322,7.8322,7.7927,7.7269,7.6629,7.6103,7.4861,7.3638,7.251,7.1872,7.1138,7.0574,7.0591,7.0853,7.1372,7.3266,7.4905,7.6505,7.7972,7.9248,8.0431,8.2369,8.4605,8.6115,8.7311,8.8713,9.0098,9.087,9.087,9.1189,9.1189,9.1302,9.1302,9.205,9.363,9.5216,9.6803,9.8394,10.003,10.1311,10.1106,10.1018,10.1159,10.1346,10.1434,10.151,10.1649,10.1823,10.1858,10.1858,10.1858,10.1858,10.1772,10.1379,10.111,10.1494,10.129,10.188,10.2806,10.3443,10.3821,10.3895,10.4943,10.5971,10.6704,10.6596,10.6794,10.7342,10.7866,10.8506,10.9553,11.06,11.2462,11.4123,11.3832,11.3399,11.4065,11.4239,11.4388,7.9145,7.9145,7.9145,7.9145,7.9145,7.9145,7.9145,7.9145,7.9145,7.9145,7.9145,7.9145,7.9145,7.9145,7.9145,7.9215,7.9547,7.9713,8.0186,8.0753,8.1159,8.1458,8.1619,8.1764,8.18,8.18,8.18,8.18,8.1688,8.18,8.18,8.1651,8.1425,8.0994,8.0881,8.0523,8.0204,7.9978,7.9338,7.8435,7.7363,7.6441,7.5087,7.3508,7.2341,7.1212,7.0309,6.9107,6.8882,6.8878,6.9439,7.15,7.4284,7.668,7.8383,7.9661,8.0809,8.2447,8.5124,8.6934,8.7957,8.9548,9.0996,9.1059,9.1202,9.1202,9.1202,9.1202,9.1202,9.1202,9.2778,9.4719,9.6365,9.7744,9.9297,10.0539,10.0787,10.0716,10.084,10.1046,10.1351,10.1527,10.1679,10.1853,10.1929,10.1877,10.1581,10.1492,10.1342,10.1031,10.0934,10.0725,9.9569,9.9762,10.1725,10.2576,10.3007,10.4154,10.5241,10.6129,10.6941,10.7198,10.7342,10.7342,10.7691,10.868,10.9644,11.0575,11.2262,11.4181,11.4065,11.3541,11.3541,11.3658,11.389,7.9145,7.9145,7.9145,7.9145,7.9145,7.9145,7.9145,7.9145,7.9145,7.9145,7.9145,7.9145,7.9145,7.9207,7.9236,7.9444,7.974,8.0063,8.0615,8.1022,8.1321,8.1482,8.18,8.18,8.18,8.18,8.18,8.18,8.18,8.18,8.18,8.18,8.1708,8.1595,8.1595,8.1595,8.1369,8.1256,8.0579,7.9563,7.804,7.6855,7.5726,7.3921,7.2097,7.0817,6.9914,6.843,6.7471,6.75,6.7582,6.9533,7.2692,7.6571,7.913,8.0609,8.1298,8.3487,8.5738,8.7123,8.8461,9.0114,9.1122,9.1139,9.1202,9.1202,9.1202,9.1202,9.1202,9.1202,9.1899,9.407,9.5932,9.7228,9.8482,9.9487,10.0348,10.0402,10.0537,10.0907,10.1312,10.1532,10.1755,10.186,10.1918,10.1769,10.142,10.1162,10.0974,10.0603,10.0468,10.0043,9.8616,9.909,10.0801,10.2087,10.3038,10.415,10.526,10.6178,10.71,10.7226,10.7342,10.7342,10.7633,10.8913,10.996,11.0749,11.1971,11.3832,11.4123,11.3716,11.36,11.3425,11.3541,7.9145,7.9145,7.9145,7.9145,7.9145,7.9145,7.9145,7.9145,7.9145,7.9145,7.9145,7.9145,7.9145,7.9153,7.9402,7.9554,7.9905,8.0247,8.0656,8.1103,8.1361,8.1523,8.176,8.18,8.18,8.18,8.18,8.18,8.18,8.18,8.18,8.18,8.18,8.18,8.18,8.18,8.182,8.1708,8.1163,8.026,7.8548,7.7532,7.6667,7.4372,7.2284,7.0574,7.001,6.8825,6.7375,6.8648,6.9659,7.0845,7.344,7.6366,7.8847,8.0417,8.181,8.4102,8.6131,8.706,8.865,9.0114,9.1202,9.1202,9.1202,9.1202,9.1202,9.1202,9.1202,9.1202,9.1941,9.3744,9.5103,9.628,9.7983,9.9446,10.0051,10.0088,10.016,10.0476,10.1056,10.1954,10.215,10.2551,10.268,10.1602,10.1174,10.0985,10.0627,10.0142,9.9906,9.9673,9.9508,10.011,10.1517,10.27,10.3457,10.4269,10.5238,10.6154,10.7051,10.7284,10.7342,10.7342,10.74,10.8797,11.0193,11.0717,11.1738,11.3483,11.4181,11.3774,11.3515,11.3283,11.3341,7.9145,7.9145,7.9145,7.9145,7.9145,7.9145,7.9145,7.9145,7.9145,7.9145,7.9145,7.9145,7.9145,7.9111,7.9298,7.9671,8.0104,8.0446,8.0854,8.1321,8.1619,8.17,8.174,8.18,8.18,8.18,8.18,8.18,8.18,8.18,8.18,8.18,8.18,8.18,8.18,8.18,8.18,8.1595,8.1087,8.0128,7.883,7.7588,7.6742,7.5124,7.3074,7.2058,7.1551,7.0253,6.9519,6.995,7.0126,7.1899,7.528,7.5634,7.7272,8.0564,8.2056,8.4228,8.6446,8.706,8.8713,9.0303,9.1202,9.1202,9.1202,9.1202,9.1202,9.1202,9.1202,9.1374,9.2364,9.3337,9.4327,9.5316,9.7455,9.9517,9.9725,9.9725,9.9924,10.0141,10.0956,10.2026,10.2686,10.3167,10.301,10.1567,10.0759,10.0631,10.0225,9.9962,9.9955,9.9966,10.0373,10.1152,10.2444,10.3737,10.4758,10.5689,10.6154,10.6445,10.6993,10.7342,10.7342,10.7342,10.7342,10.8855,11.0542,11.0982,11.1564,11.3018,11.4065,11.3864,11.369,11.3399,11.3167,7.9145,7.9145,7.9145,7.9145,7.9145,7.9145,7.9145,7.9145,7.9145,7.9145,7.9145,7.9145,7.9145,7.9166,7.9236,7.9774,8.0262,8.0671,8.1139,8.1518,8.174,8.178,8.18,8.18,8.18,8.18,8.18,8.18,8.18,8.18,8.18,8.18,8.18,8.18,8.18,8.18,8.18,8.1651,8.1143,8.0128,7.8886,7.7701,7.646,7.5162,7.3225,7.2548,7.2267,7.1438,7.1606,7.1891,7.2217,7.3536,7.7231,7.6982,7.6986,8.0516,8.2119,8.3992,8.643,8.706,8.8272,9.0492,9.1139,9.1202,9.1202,9.1202,9.1202,9.1202,9.1202,9.1202,9.1815,9.34,9.4831,9.6089,9.7716,9.9174,9.9633,9.9696,10.0138,10.0474,10.1399,10.2367,10.2657,10.3069,10.2619,10.116,10.0326,10.0146,10.0027,10.0271,10.0406,10.057,10.1187,10.2513,10.3735,10.4526,10.5863,10.691,10.6993,10.7109,10.7342,10.7342,10.7342,10.7342,10.7342,10.8622,11.0459,11.1389,11.1913,11.3134,11.4039,11.3981,11.3864,11.3457,11.3251,7.9145,7.9145,7.9145,7.9145,7.9145,7.9145,7.9145,7.9145,7.9145,7.9145,7.9145,7.9145,7.9145,7.9174,7.943,7.9898,8.0364,8.0697,8.12,8.1563,8.168,8.18,8.18,8.18,8.18,8.18,8.18,8.18,8.18,8.18,8.18,8.18,8.18,8.18,8.18,8.1764,8.1748,8.1695,8.1263,8.0418,7.9024,7.7986,7.6911,7.5346,7.3876,7.3158,7.3196,7.3123,7.3516,7.4367,7.5499,7.6936,7.8329,7.9725,8.0195,8.1021,8.1963,8.4214,8.6461,8.7249,8.868,9.0279,9.0971,9.1202,9.1202,9.1202,9.1202,9.1202,9.1285,9.1252,9.1424,9.3234,9.5072,9.6404,9.7887,9.8805,9.9327,10.0075,10.0516,10.0897,10.1788,10.2308,10.2582,10.2482,10.2238,10.0935,10.0022,9.9888,9.9886,10.0232,10.0907,10.1129,10.2257,10.3677,10.4526,10.5258,10.6329,10.7109,10.7284,10.7342,10.7342,10.7342,10.7342,10.7342,10.7342,10.7982,10.9495,11.0775,11.1997,11.3018,11.3923,11.4039,11.4097,11.369,11.3541,7.9145,7.9145,7.9145,7.9145,7.9145,7.9145,7.9145,7.9145,7.9145,7.9145,7.9145,7.9145,7.9145,7.9153,7.9298,7.9568,7.9905,8.0131,8.0534,8.1245,8.1361,8.1563,8.178,8.18,8.18,8.18,8.18,8.18,8.18,8.18,8.18,8.18,8.18,8.18,8.18,8.1748,8.1562,8.1289,8.1631,8.0993,7.937,7.846,7.7871,7.6278,7.499,7.4407,7.5088,7.5507,7.5738,7.6535,7.7084,7.749,7.8557,7.9294,7.9228,8.0974,8.2182,8.3412,8.63,8.7483,8.8326,8.9661,9.0701,9.1101,9.1202,9.0971,9.1067,9.1269,9.1435,9.1369,9.1458,9.2829,9.4415,9.5586,9.7069,9.8634,9.9526,10.107,10.1665,10.1127,10.1567,10.1994,10.2346,10.2058,10.1687,10.0659,9.9754,9.9703,9.9624,10.0477,10.1268,10.1966,10.3037,10.4375,10.5398,10.5955,10.6561,10.7226,10.7342,10.7342,10.7342,10.7342,10.7342,10.7342,10.7342,10.7633,10.8855,11.0251,11.1938,11.3134,11.3923,11.4213,11.4213,11.433,11.4472,7.9145,7.9145,7.9145,7.9145,7.9145,7.9145,7.9145,7.9145,7.9145,7.9145,7.9145,7.9145,7.9145,7.9145,7.9207,7.9361,7.9699,7.9802,8.0233,8.1062,8.1361,8.1543,8.174,8.18,8.18,8.18,8.18,8.18,8.18,8.18,8.18,8.18,8.18,8.18,8.182,8.1728,8.1299,8.0688,8.1203,8.119,7.9257,7.8876,7.8437,7.7308,7.5717,7.5621,7.675,7.7208,7.7912,7.903,7.9457,7.979,8.0577,8.0462,8.0317,8.1651,8.2962,8.363,8.5576,8.7426,8.8122,8.8353,8.8827,8.9474,9.0328,9.0379,9.0899,9.1202,9.1632,9.1235,9.1403,9.2677,9.4271,9.5409,9.7051,9.8616,10.0253,10.1836,10.2312,10.1707,10.2294,10.3018,10.2078,10.1403,10.0781,9.9829,9.9649,9.9579,9.9698,10.0628,10.185,10.2688,10.3769,10.5107,10.6096,10.6561,10.7109,10.7342,10.7342,10.7342,10.7342,10.7342,10.7342,10.7342,10.7342,10.74,10.8506,10.9786,11.1647,11.3251,11.4123,11.462,11.4562,11.4705,11.4879,7.9145,7.9145,7.9145,7.9036,7.8721,7.9036,7.8981,7.8947,7.9036,7.9145,7.9145,7.9145,7.9145,7.9145,7.9145,7.9278,7.9651,8.0022,8.0493,8.09,8.124,8.168,8.178,8.18,8.18,8.18,8.18,8.18,8.18,8.18,8.18,8.18,8.182,8.1708,8.1728,8.1708,8.105,8.0243,8.098,8.0256,7.8973,7.8573,7.8207,7.7342,7.6138,7.6161,7.7402,7.8202,7.9353,8.0586,8.1165,8.175,8.2445,8.2144,8.246,8.3117,8.4135,8.4747,8.5123,8.5941,8.6499,8.6663,8.7289,8.7813,8.8545,8.895,8.9379,9.0305,9.1268,9.1049,9.1413,9.2377,9.4259,9.6002,9.7922,9.9658,10.1458,10.3067,10.2469,10.1871,10.3257,10.406,10.2108,10.0608,9.9864,9.9796,9.9672,9.9675,9.9849,10.0838,10.2339,10.3386,10.4584,10.5805,10.6678,10.7168,10.7342,10.7342,10.7342,10.7342,10.7342,10.7342,10.7342,10.7342,10.7342,10.7342,10.8215,10.932,11.0575,11.1971,11.3425,11.4879,11.4879,11.4879,11.4879,7.9145,7.9145,7.9145,7.7963,7.6377,7.7404,7.7909,7.8018,7.8729,7.9145,7.9145,7.9145,7.9145,7.9145,7.9187,7.9298,7.9361,7.9547,8.0001,8.0473,8.0956,8.124,8.1639,8.18,8.18,8.18,8.18,8.18,8.18,8.18,8.18,8.18,8.1764,8.12,8.0655,7.9659,7.9098,7.9007,7.9387,7.8859,7.8151,7.8088,7.8019,7.7847,7.6854,7.699,7.8185,7.923,8.0393,8.1356,8.1903,8.2492,8.3055,8.3506,8.3932,8.4449,8.4972,8.5398,8.5807,8.5992,8.551,8.546,8.6002,8.6705,8.7235,8.7507,8.8086,8.8994,9.0112,9.0445,9.0058,9.1653,9.3612,9.5811,9.7779,9.9825,10.1696,10.3513,10.2852,10.2069,10.2149,10.2519,10.0929,10.0022,10.0022,10.0884,10.0527,10.0284,10.0295,10.0919,10.2455,10.3735,10.5049,10.6096,10.7168,10.7226,10.7342,10.7342,10.7342,10.7342,10.7342,10.7342,10.7342,10.7342,10.7342,10.7342,10.8215,10.9553,11.0342,11.0982,11.2843,11.4879,11.4879,11.4879,11.4879,7.7397,7.7273,7.7622,7.6729,7.5295,7.6715,7.7383,7.7547,7.8619,7.9485,8.0437,8.1052,8.1052,8.0463,8.0315,7.9946,7.9174,7.9236,7.9816,8.0323,8.0732,8.1159,8.1559,8.18,8.1744,8.18,8.18,8.18,8.182,8.18,8.18,8.18,8.18,8.0994,8.0204,7.9433,7.8437,7.827,7.846,7.8726,7.8228,7.8601,7.9224,7.9425,7.8555,7.9164,7.968,8.0438,8.1436,8.2155,8.1913,8.2554,8.3285,8.3545,8.3896,8.4364,8.5078,8.5459,8.5714,8.4922,8.4417,8.4379,8.4912,8.5647,8.6114,8.6859,8.7332,8.8528,9.0068,9.0805,9.0365,9.1378,9.3215,9.5211,9.7247,9.9247,10.128,10.3303,10.3443,10.2285,10.1855,10.1314,10.0392,9.9581,10.0683,10.1776,10.1291,10.0854,10.0513,10.0803,10.2106,10.3444,10.4676,10.5839,10.7051,10.7284,10.7284,10.7342,10.7342,10.7342,10.7342,10.7342,10.7342,10.7342,10.7342,10.7342,10.804,10.9669,11.0691,11.1273,11.2727,11.4414,11.4821,11.4879,11.4879,7.4537,7.4068,7.4983,7.5173,7.5227,7.6578,7.7035,7.6871,7.8292,7.9859,8.1291,8.3337,8.2892,8.2364,8.1756,8.1036,7.9492,7.952,7.9775,8.016,8.0601,8.0607,8.0871,8.1011,8.1313,8.1482,8.1369,8.1538,8.1841,8.18,8.18,8.18,8.18,8.0994,7.9978,7.9394,7.8662,7.7307,7.8342,7.8893,7.9313,7.9676,8.0668,8.1214,8.1892,8.2408,8.2335,8.2107,8.2545,8.3317,8.2702,8.2857,8.3633,8.4025,8.4244,8.4653,8.5233,8.53,8.4898,8.41,8.3314,8.3174,8.3622,8.4613,8.5795,8.677,8.7908,8.9262,9.0231,9.0835,9.0974,9.1823,9.3718,9.5558,9.7231,9.9065,10.0899,10.2839,10.2825,10.2306,10.1578,10.0817,9.9932,9.965,10.0414,10.171,10.1446,10.0683,10.0386,10.0496,10.1849,10.3211,10.4526,10.5573,10.676,10.7342,10.7342,10.7342,10.7342,10.7342,10.7342,10.7342,10.7342,10.7342,10.7342,10.7342,10.7633,10.9088,11.0368,11.1273,11.2262,11.3425,11.4007,11.3716,11.3774,7.397,7.1737,7.2169,7.2456,7.2549,7.3948,7.467,7.4924,7.6972,7.8268,7.9127,8.0492,8.1778,8.2217,8.2521,8.2103,8.1395,7.9285,7.8962,7.877,7.8632,7.8588,7.9147,7.9168,7.9563,8.0353,8.0466,8.0861,8.1425,8.1651,8.1538,8.18,8.1595,8.0579,7.9338,7.9112,7.8736,7.6629,7.7758,7.8794,7.9421,7.9522,8.019,8.0705,8.0845,8.0687,8.1115,8.1848,8.2468,8.3146,8.3094,8.3416,8.4038,8.473,8.515,8.5106,8.5445,8.5419,8.47,8.4283,8.3781,8.3875,8.4239,8.5356,8.6408,8.693,8.7881,8.8495,8.993,9.0458,9.0644,9.224,9.412,9.5701,9.7151,9.8791,10.0287,10.073,10.0811,10.0706,10.0571,9.9977,9.9909,9.965,10.0248,10.149,10.1336,10.0549,10.0374,10.0365,10.1695,10.3235,10.42,10.484,10.6237,10.7342,10.7342,10.7342,10.7342,10.7342,10.7342,10.7342,10.7342,10.7342,10.7342,10.7342,10.7342,10.8564,10.9753,11.0426,11.1215,11.2378,11.2843,11.2145,11.2171,7.294,7.1345,7.2237,7.2237,7.193,7.4491,7.5257,7.5304,7.7383,7.9086,8.0038,8.0803,8.2181,8.3625,8.3093,8.2423,8.1275,7.9709,7.9233,7.9517,7.8764,7.8269,7.8385,7.8251,7.8172,7.9131,7.9639,8.0128,7.9902,8.0071,8.0523,8.0748,8.0805,8.0071,7.9357,7.9075,7.8172,7.7476,7.7193,7.8268,7.9629,8.0296,8.0815,8.1852,8.2424,8.2418,8.2445,8.2897,8.33,8.3291,8.3126,8.3697,8.4354,8.4876,8.5462,8.5219,8.565,8.5816,8.56,8.5775,8.5831,8.5906,8.6252,8.6827,8.7382,8.8103,8.8631,8.857,9.0014,9.0819,9.1405,9.2797,9.4331,9.5714,9.6975,9.8472,9.942,9.9407,9.9559,9.9559,9.9581,9.9672,9.9695,9.965,10.0181,10.1129,10.1062,10.0728,10.0773,10.0392,10.1288,10.2956,10.3691,10.4425,10.6081,10.7568,10.769,10.7651,10.7651,10.7602,10.748,10.7333,10.7342,10.7342,10.7342,10.7342,10.74,10.8215,10.9171,10.9753,11.0193,11.1124,11.1855,11.1215,11.1182,7.1899,7.2013,7.3581,7.3488,7.2875,7.6117,7.7069,7.6342,7.8502,8.0887,8.1689,8.2492,8.3477,8.4639,8.3631,8.2157,8.0882,8.0012,7.9742,7.9899,7.9054,7.8576,7.8827,7.8157,7.7798,7.7814,7.8773,7.8717,7.8322,7.8209,7.8773,7.9809,8.0091,7.9676,7.9168,7.8943,7.8153,7.7833,7.7193,7.8099,8.0371,8.1682,8.2299,8.3178,8.403,8.4489,8.3942,8.4264,8.4592,8.4438,8.3553,8.3462,8.3974,8.4148,8.4148,8.4691,8.5466,8.6649,8.7463,8.7579,8.7501,8.7481,8.8062,8.8239,8.864,8.9337,9.0171,9.0292,9.1126,9.1729,9.1941,9.3125,9.439,9.5648,9.6884,9.814,9.9187,9.9559,9.9559,9.9559,9.9559,9.9559,9.9559,9.9786,9.9977,10.0482,10.0973,10.1196,10.1129,10.0226,10.0535,10.2336,10.3388,10.4853,10.6459,10.7896,10.8155,10.8079,10.8079,10.8055,10.7909,10.7739,10.7627,10.7788,10.7342,10.7342,10.74,10.7808,10.8647,10.9054,10.9088,10.9761,11.0633,11.0658,11.0368,7.1899,7.2032,7.3599,7.4077,7.4113,7.5944,7.6644,7.6628,7.7997,7.9175,7.9666,8.0726,8.2159,8.3369,8.3402,8.2994,8.2601,7.9956,7.9555,7.9538,7.8729,7.7485,7.7038,7.6613,7.6699,7.6647,7.7043,7.6798,7.6686,7.725,7.8491,7.9414,7.9809,7.9451,7.883,7.8943,7.8717,7.8548,7.8604,7.9865,8.1249,8.2131,8.2602,8.3097,8.3352,8.4224,8.4856,8.543,8.567,8.5633,8.5586,8.5183,8.4398,8.4168,8.471,8.5544,8.5931,8.6843,8.7735,8.8181,8.8492,8.855,8.9091,8.9478,8.9885,9.0545,9.1417,9.1592,9.1882,9.1941,9.2311,9.3204,9.4426,9.5764,9.7,9.806,9.9071,9.9559,9.9559,9.9559,9.9559,9.9559,9.9559,9.9718,9.9763,10.0203,10.0271,10.0549,10.1556,10.0527,10.0708,10.2278,10.3676,10.5273,10.6784,10.8273,10.8769,10.8792,10.8816,10.8816,10.8576,10.8103,10.8948,10.9495,10.8864,10.8321,10.748,10.755,10.8081,10.8222,10.8007,10.8331,10.9088,10.932,10.932,7.1899,7.2164,7.4385,7.4891,7.4819,7.7264,7.8168,7.7794,7.8916,7.9584,7.9876,8.0361,8.1253,8.1951,8.2177,8.2177,8.1892,8.0472,8.0241,8.0082,7.9332,7.8295,7.7302,7.6542,7.6031,7.5453,7.5293,7.5275,7.5331,7.5952,7.7062,7.8491,7.8943,7.8999,7.8962,7.9018,7.8793,7.8773,7.8435,7.9188,8.1618,8.1467,8.2166,8.2926,8.3723,8.4475,8.55,8.6262,8.7035,8.7126,8.7435,8.6705,8.5856,8.5507,8.6156,8.7671,8.7532,8.7832,8.9519,8.9926,8.9868,9.0004,9.0487,9.0873,9.1106,9.1417,9.1824,9.1882,9.1941,9.2136,9.2718,9.4099,9.5299,9.6557,9.7814,9.878,9.9281,9.95,9.9559,9.9559,9.9559,9.9559,9.9559,9.9559,9.9559,9.9559,9.9581,10.0616,10.2039,10.1886,10.1864,10.3127,10.4037,10.5718,10.7364,10.8708,10.959,10.9661,10.9708,10.9732,10.9377,10.8224,10.8816,11.0643,11.0689,11.019,10.9377,10.8466,10.7919,10.7636,10.764,10.7691,10.7949,10.8123,10.8215,7.1899,7.2164,7.51,7.5709,7.5357,7.9067,8.0054,7.9398,8.0228,8.0841,8.0793,8.0887,8.0868,8.0935,8.0857,8.0919,8.117,8.1234,8.1268,8.1111,8.0873,7.9858,7.8531,7.7539,7.6191,7.4963,7.4824,7.4775,7.4481,7.4372,7.5764,7.7269,7.7645,7.804,7.8435,7.8849,7.8962,7.883,7.868,7.9416,8.1484,8.2018,8.2566,8.3704,8.4723,8.5481,8.6077,8.7561,8.8633,8.8651,8.8985,8.8456,8.7723,8.7374,8.8261,8.9343,8.9006,8.9325,9.1093,9.1708,9.1882,9.1941,9.1824,9.1824,9.1882,9.1941,9.1941,9.1941,9.202,9.2311,9.3495,9.431,9.5801,9.7116,9.8082,9.9071,9.942,9.9559,9.9559,9.9559,9.9559,9.9559,9.9559,9.9559,9.9559,9.9559,9.9581,10.0392,10.2236,10.2977,10.332,10.4082,10.4563,10.6029,10.8033,10.9471,11.0953,11.1169,11.1074,11.1097,10.9897,10.8528,10.9317,11.1862,11.27,11.1953,11.1036,11.0119,10.9377,10.8504,10.7861,10.7342,10.7517,10.7691,10.7691,7.1899,7.2183,7.5157,7.6291,7.6623,7.9464,8.0681,8.052,8.0809,8.0857,8.0857,8.0857,8.0857,8.0857,8.0873,8.0857,8.0953,8.1254,8.1554,8.1649,8.1729,8.1019,7.983,7.8663,7.7514,7.6221,7.5939,7.5322,7.4659,7.4372,7.5106,7.6215,7.6497,7.6836,7.7344,7.8322,7.8943,7.8567,7.9227,8.0813,8.1948,8.3395,8.4196,8.5158,8.589,8.6558,8.7615,8.8976,9.0066,9.0242,9.0486,9.0503,9.0288,9.0242,9.0579,9.0226,9.012,9.0562,9.1687,9.1987,9.1941,9.1941,9.1941,9.1941,9.1941,9.1941,9.1941,9.1941,9.1999,9.2136,9.2289,9.3707,9.4972,9.6113,9.7232,9.8315,9.9187,9.9559,9.9559,9.9559,9.9559,9.9559,9.9559,9.9559,9.9559,9.9559,9.9592,10.0325,10.2627,10.4063,10.4943,10.5789,10.4933,10.565,10.8726,11.0626,11.267,11.2979,11.27,11.1953,11.0749,11.054,11.1382,11.3637,11.4472,11.3526,11.261,11.1908,11.0944,10.9672,10.8864,10.7885,10.7504,10.7308,10.74,7.1899,7.2239,7.5157,7.6431,7.6919,7.9579,8.0857,8.0857,8.0857,8.0857,8.0857,8.0857,8.0857,8.0857,8.1095,8.1175,8.1254,8.1508,8.176,8.2026,8.2274,8.1854,8.0542,7.9802,7.936,7.8563,7.7281,7.6168,7.534,7.4824,7.488,7.6121,7.6215,7.6103,7.6554,7.7193,7.7569,7.7551,7.8496,7.9954,8.1231,8.2566,8.3695,8.5622,8.7561,8.8598,8.9213,9.074,9.1505,9.1753,9.2,9.2179,9.2147,9.1439,9.1339,9.1385,9.1069,9.0919,9.1758,9.2059,9.1924,9.1941,9.1941,9.1941,9.1941,9.1941,9.1941,9.1941,9.1999,9.2289,9.295,9.4099,9.5415,9.6673,9.7872,9.8838,9.9361,9.9559,9.9559,9.9559,9.9559,9.9559,9.9559,9.9559,9.9672,10.0414,10.0504,10.1578,10.3767,10.5171,10.6154,10.6578,10.5501,10.6323,10.9594,11.1969,11.3893,11.449,11.4129,11.3193,11.2767,11.3282,11.3659,11.5034,11.6442,11.54,11.4493,11.3902,11.3103,11.1405,10.9814,10.86,10.7885,10.7812,10.7749,7.2578,7.2765,7.5722,7.6947,7.7436,7.9711,8.0857,8.0857,8.0857,8.0857,8.0873,8.0937,8.0969,8.1047,8.1365,8.1508,8.1539,8.176,8.2104,8.2445,8.2659,8.2104,8.1353,8.1148,8.0894,7.9916,7.7973,7.6704,7.6027,7.5113,7.4823,7.5613,7.5613,7.5801,7.5764,7.6178,7.6272,7.6402,7.7022,7.8669,8.0609,8.1739,8.3379,8.5958,8.8545,9.0043,9.082,9.2096,9.2794,9.289,9.3083,9.3131,9.2938,9.2147,9.2017,9.2315,9.1662,9.1382,9.2048,9.2132,9.203,9.1971,9.1941,9.1941,9.1941,9.1941,9.1941,9.1941,9.1941,9.2289,9.3125,9.4797,9.5961,9.6964,9.8337,9.95,9.9559,9.9559,9.9559,9.9559,9.9559,9.9559,9.9559,9.9559,10.0068,10.1159,10.2127,10.3148,10.4485,10.591,10.7001,10.7932,10.7289,10.7822,11.0564,11.2343,11.4398,11.5662,11.5384,11.4839,11.5614,11.6231,11.6125,11.6905,11.7882,11.7467,11.6547,11.5849,11.4689,11.2857,11.1083,10.9908,10.8983,10.8407,10.8224,7.4651,7.4615,7.7633,7.8847,7.898,8.0265,8.0889,8.0873,8.0857,8.0857,8.0921,8.1222,8.1286,8.1443,8.1681,8.1776,8.1792,8.1901,8.2135,8.2413,8.2628,8.2752,8.2351,8.232,8.1792,8.0735,7.9145,7.777,7.6513,7.5125,7.4556,7.4598,7.4616,7.456,7.4823,7.5632,7.627,7.6644,7.7436,7.9047,8.0703,8.2275,8.3975,8.6207,8.83,8.9496,9.1126,9.2357,9.3226,9.3242,9.329,9.3306,9.329,9.3258,9.3061,9.2839,9.2617,9.234,9.2335,9.2407,9.2261,9.2043,9.2004,9.1941,9.1941,9.1941,9.1941,9.1941,9.1941,9.2057,9.2601,9.4331,9.5575,9.6426,9.8163,9.9326,9.9559,9.9559,9.9559,9.9559,9.9523,9.9559,9.9559,9.9581,9.9773,10.2017,10.2241,10.3575,10.513,10.6661,10.7814,10.8716,10.9166,10.9508,11.1066,11.2793,11.4815,11.6572,11.6208,11.6715,11.7529,11.784,11.8066,11.8274,11.8314,11.8171,11.7861,11.7155,11.6082,11.4472,11.3193,11.1703,11.0119,10.9258,10.8407,7.5157,7.5243,7.821,7.9469,7.9617,8.0713,8.1206,8.1159,8.0953,8.0857,8.0921,8.1254,8.1459,8.1522,8.1979,8.2212,8.2181,8.232,8.2459,8.2643,8.2798,8.2844,8.2844,8.2844,8.2505,8.1761,8.0462,7.8996,7.7565,7.6186,7.5071,7.4423,7.4277,7.4277,7.4334,7.5063,7.5528,7.5957,7.7386,7.8502,7.9506,8.1085,8.3419,8.6338,8.7311,8.9375,9.1969,9.2906,9.3306,9.3306,9.3306,9.3306,9.3306,9.3306,9.3275,9.3155,9.2968,9.2748,9.2585,9.3206,9.3082,9.2384,9.297,9.2805,9.2193,9.1941,9.1941,9.1941,9.1941,9.1941,9.2136,9.2855,9.4215,9.5692,9.7349,9.8641,9.95,9.9559,9.9559,9.9796,10.0361,10.0795,9.9627,10.1534,10.2388,10.2756,10.2955,10.4401,10.5829,10.734,10.8638,10.9336,10.9847,11.0398,11.1716,11.3227,11.5091,11.6518,11.6838,11.7859,11.8376,11.8457,11.8539,11.8539,11.8704,11.8704,11.8478,11.8046,11.7093,11.6188,11.5357,11.3725,11.1258,10.9637,10.8768,7.604,7.6285,7.9205,8.0443,8.0555,8.1161,8.1523,8.1508,8.124,8.1161,8.1208,8.1523,8.1713,8.1744,8.2306,8.249,8.2521,8.2674,8.2844,8.2844,8.2844,8.2844,8.2844,8.2844,8.2813,8.2459,8.0767,7.9573,7.8462,7.6478,7.5214,7.4277,7.4277,7.4296,7.4441,7.4716,7.4876,7.5371,7.7055,7.8225,7.8865,8.0411,8.2959,8.6486,8.6841,8.8817,9.2198,9.2713,9.2726,9.2726,9.3064,9.3306,9.3306,9.3306,9.3323,9.3243,9.3116,9.3022,9.3349,9.416,9.4005,9.2922,9.375,9.3711,9.2151,9.1941,9.1941,9.1941,9.1941,9.1941,9.1941,9.202,9.3009,9.503,9.6382,9.7756,9.9093,9.9581,9.9751,10.0316,10.1461,10.1776,10.182,10.3127,10.4567,10.4818,10.5501,10.662,10.6841,10.7917,10.8191,10.9164,11.0193,11.1022,11.2064,11.348,11.4962,11.6359,11.7542,11.8427,11.8725,11.8785,11.8785,11.8785,11.8785,11.8785,11.8765,11.8745,11.8025,11.7134,11.6294,11.5271,11.2677,11.0656,10.9884,7.8083,7.8201,8.1035,8.2135,8.2119,8.1901,8.1823,8.1807,8.1745,8.1698,8.1792,8.2072,8.2306,8.2351,8.2629,8.272,8.2829,8.2844,8.2844,8.2844,8.2844,8.2844,8.2844,8.2844,8.2844,8.2428,8.0204,7.883,7.8412,7.6063,7.4332,7.4277,7.4277,7.4405,7.4734,7.4842,7.5218,7.609,7.7371,7.8864,8.0169,8.161,8.3724,8.636,8.6664,8.8049,9.0643,9.1097,9.1117,9.1439,9.2404,9.3,9.3322,9.3306,9.3418,9.3579,9.3323,9.3706,9.462,9.5097,9.4931,9.4459,9.464,9.3731,9.276,9.2469,9.226,9.2218,9.2046,9.1941,9.1941,9.1941,9.2543,9.3844,9.5146,9.687,9.9035,9.9478,10.0212,10.1468,10.2192,10.2756,10.419,10.4755,10.5274,10.5315,10.5604,10.6175,10.6801,10.7917,10.7794,10.8541,10.9679,11.0594,11.1484,11.2965,11.4769,11.6166,11.7498,11.823,11.8765,11.8785,11.8785,11.8785,11.8785,11.8785,11.8765,11.8765,11.8376,11.7923,11.7259,11.6294,11.4752,11.2902,11.1442,7.9769,7.9883,8.1823,8.2628,8.266,8.2383,8.2181,8.215,8.1932,8.1823,8.1901,8.2228,8.2367,8.2491,8.2674,8.2844,8.2844,8.2844,8.2844,8.2844,8.2844,8.2844,8.2844,8.2844,8.2844,8.2413,8.0814,7.9425,7.8462,7.6588,7.5161,7.4405,7.4277,7.4459,7.4842,7.5092,7.5984,7.7295,7.8075,7.9224,8.0405,8.1132,8.2689,8.5142,8.5594,8.6984,8.9359,8.8895,8.8878,8.978,9.0295,9.1707,9.346,9.3558,9.401,9.4495,9.4127,9.3879,9.4965,9.6105,9.65,9.6522,9.7085,9.6836,9.5512,9.4056,9.3548,9.332,9.2635,9.1941,9.1983,9.1962,9.2136,9.2681,9.3887,9.5321,9.6928,9.8534,10.0207,10.1908,10.3213,10.4105,10.5398,10.6398,10.7858,10.6981,10.7499,10.8249,10.8386,10.8754,10.9145,10.9565,10.9913,11.031,11.1143,11.2708,11.4491,11.5908,11.7369,11.8335,11.8785,11.8785,11.8785,11.8785,11.8785,11.8785,11.8785,11.8785,11.8785,11.8785,11.8416,11.6611,11.4403,11.3193,11.2028,8.0671,8.083,8.2243,8.2844,8.2829,8.2582,8.2521,8.2553,8.2259,8.215,8.2181,8.2398,8.2505,8.2551,8.2689,8.2844,8.2844,8.2844,8.2844,8.2844,8.2844,8.2844,8.2844,8.2844,8.2844,8.2567,8.1322,7.9899,7.8513,7.7109,7.5656,7.4532,7.4277,7.4532,7.5059,7.5325,7.6108,7.7598,7.875,7.9699,8.059,8.1479,8.2837,8.462,8.4927,8.5682,8.75,8.6753,8.6946,8.8298,8.8438,8.9746,9.2171,9.3044,9.3887,9.5151,9.4605,9.4898,9.6631,9.7881,9.8484,9.8471,9.9063,9.8879,9.7607,9.6293,9.5571,9.5196,9.3834,9.2805,9.2656,9.2302,9.2297,9.2718,9.3428,9.4368,9.5415,9.7349,9.9702,10.192,10.3809,10.5109,10.6135,10.8113,10.9394,10.8638,10.926,10.997,11.0064,10.9951,11.0196,11.0196,11.0196,11.037,11.1291,11.2579,11.4041,11.5264,11.724,11.8721,11.8785,11.8785,11.8785,11.8785,11.8785,11.8785,11.8785,11.8785,11.8785,11.8785,11.8539,11.6674,11.3942,11.2425,11.1608,8.0703,8.0958,8.2181,8.2844,8.2844,8.275,8.2829,8.2813,8.2735,8.2674,8.2643,8.2735,8.2735,8.2829,8.2766,8.2844,8.2844,8.2844,8.2844,8.2844,8.2844,8.2844,8.2844,8.2844,8.2844,8.2705,8.1415,8.0103,7.8828,7.7378,7.5864,7.4607,7.4427,7.4713,7.5433,7.5486,7.5878,7.714,7.9199,8.0494,8.0974,8.3022,8.4318,8.471,8.4748,8.4904,8.4991,8.497,8.5593,8.6826,8.7211,8.8187,9.004,9.1416,9.2812,9.4325,9.545,9.7532,9.984,10.0149,10.0019,10.0361,10.0316,9.9933,9.8798,9.8095,9.7682,9.7153,9.5804,9.47,9.4278,9.3279,9.2867,9.4053,9.4055,9.3926,9.4454,9.615,9.8747,10.1643,10.4084,10.5645,10.728,10.9126,11.0139,11.0027,11.0196,11.0364,11.0402,11.0402,11.0271,11.0252,11.0308,11.029,11.1264,11.245,11.3609,11.4878,11.7047,11.8785,11.8785,11.8785,11.8785,11.8785,11.8785,11.8785,11.8785,11.8785,11.8785,11.8704,11.8314,11.7468,11.5213,11.324,11.1935,8.2088,8.2228,8.2628,8.2844,8.2844,8.2844,8.2844,8.2844,8.2844,8.2844,8.2844,8.2844,8.2844,8.2844,8.2844,8.2844,8.2844,8.2844,8.2844,8.2844,8.2844,8.2844,8.2844,8.2844,8.2844,8.283,8.3227,8.2754,8.1162,7.8952,7.7232,7.5961,7.5038,7.5038,7.5682,7.5789,7.6635,7.7854,7.89,8.0333,8.1994,8.3007,8.3802,8.4646,8.4787,8.4748,8.4777,8.4979,8.5431,8.5747,8.6056,8.6977,8.8748,9.0162,9.2035,9.419,9.3992,9.5205,9.8524,9.924,10.0133,10.2142,10.2163,10.2009,10.1682,10.0362,9.9554,9.8843,9.7551,9.6406,9.6021,9.5592,9.5019,9.4479,9.4332,9.4183,9.4043,9.6385,9.8704,10.0835,10.3813,10.6373,10.7637,10.9368,11.0402,11.0607,11.0848,11.0995,11.1014,11.0995,11.094,11.0662,11.0607,11.0476,11.0778,11.2488,11.3976,11.4942,11.6745,11.8142,11.8785,11.8785,11.8785,11.8785,11.8785,11.8785,11.8785,11.8785,11.8785,11.8785,11.8478,11.7613,11.558,11.4007,11.2619,8.2844,8.2844,8.2844,8.2844,8.2844,8.2844,8.2844,8.2844,8.2844,8.2844,8.2844,8.2844,8.2844,8.2844,8.2844,8.2844,8.2844,8.2844,8.2844,8.2844,8.2844,8.2844,8.2844,8.2844,8.3033,8.3614,8.4479,8.4429,8.3219,8.0621,7.8672,7.7386,7.6119,7.5603,7.598,7.6907,7.7828,7.8726,7.9748,8.1005,8.2672,8.3248,8.3894,8.4705,8.4748,8.4806,8.4936,8.5216,8.5373,8.5486,8.5718,8.6347,8.743,8.8474,9.0328,9.3001,9.3346,9.4648,9.7733,9.9073,10.0656,10.2554,10.3011,10.3336,10.3321,10.2418,10.1496,10.092,9.9554,9.8688,9.8566,9.8213,9.7485,9.6354,9.569,9.508,9.4751,9.6107,9.7639,9.8509,10.1479,10.503,10.6594,10.9245,11.0811,11.1014,11.1234,11.1344,11.138,11.1398,11.1289,11.1069,11.0903,11.0718,11.0439,11.2455,11.406,11.4942,11.6037,11.7369,11.8657,11.8721,11.8657,11.8657,11.8785,11.8785,11.8785,11.8785,11.8785,11.8785,11.8785,11.7489,11.4581,11.4948,11.3699,8.267,8.2733,8.2718,8.2733,8.2844,8.2844,8.2844,8.2844,8.2844,8.2844,8.2844,8.2844,8.2844,8.2844,8.2844,8.2844,8.2844,8.2844,8.2844,8.2844,8.2844,8.2844,8.2844,8.2844,8.3488,8.4448,8.4967,8.5132,8.4929,8.232,8.0181,7.8799,7.7732,7.6608,7.6315,7.847,7.9537,7.9166,8.094,8.255,8.2916,8.4071,8.4676,8.4748,8.4777,8.495,8.5273,8.5359,8.545,8.5704,8.6012,8.6192,8.6206,8.6598,8.7999,9.0629,9.3216,9.5451,9.7095,9.9364,10.1089,10.1581,10.2699,10.38,10.3619,10.339,10.3241,10.3338,10.1157,10.0473,10.1338,10.0337,9.9554,9.9071,9.7801,9.6389,9.488,9.6364,9.5738,9.5671,9.81,10.1725,10.5816,10.8867,11.0551,11.1065,11.137,11.1507,11.158,11.1507,11.1489,11.138,11.1124,11.0829,11.0922,11.1797,11.2906,11.3609,11.4704,11.6552,11.7775,11.8657,11.8592,11.8592,11.8657,11.8721,11.8785,11.8785,11.8785,11.8785,11.8785,11.784,11.5484,11.581,11.4586,8.045,8.1361,8.1409,8.1946,8.2781,8.2844,8.2844,8.2844,8.2844,8.2844,8.2844,8.2844,8.2844,8.2844,8.2844,8.2844,8.2844,8.2844,8.2844,8.2844,8.2844,8.2844,8.2844,8.2844,8.3033,8.3677,8.547,8.6427,8.64,8.5483,8.3915,8.1832,8.0764,7.9779,7.8792,7.87,7.928,7.9888,7.9804,8.0798,8.2733,8.4071,8.4748,8.4777,8.5058,8.523,8.5344,8.569,8.5956,8.5974,8.6344,8.6522,8.6508,8.667,8.7039,8.7947,8.9629,9.1653,9.4166,9.5992,9.7454,9.8587,10.0939,10.232,10.2304,10.2304,10.2618,10.2962,10.1015,9.9986,10.1243,10.0923,10.0364,10.0074,9.9753,9.8725,9.7366,9.9378,10.0278,10.0088,10.0799,10.3755,10.6069,10.8393,11.0098,11.0473,11.1359,11.2228,11.2228,11.2192,11.2085,11.1833,11.1471,11.1187,11.1197,11.1144,11.1095,11.1829,11.2617,11.3693,11.3912,11.6146,11.7176,11.7305,11.8291,11.8592,11.8206,11.8528,11.8721,11.8785,11.8704,11.8069,11.6209,11.5483,11.4348,7.922,7.9976,7.9976,8.0465,8.1175,8.1757,8.2024,8.2056,8.2545,8.2844,8.2733,8.1601,8.1815,8.2884,8.2781,8.3393,8.4367,8.428,8.4221,8.4221,8.4192,8.4007,8.3562,8.3518,8.3598,8.3849,8.5344,8.6761,8.7702,8.7814,8.6739,8.4814,8.3751,8.2415,8.0913,8.1489,8.1343,8.0537,8.0962,8.1942,8.3525,8.4335,8.4748,8.4792,8.5144,8.5387,8.5557,8.59,8.6154,8.6357,8.6549,8.6645,8.6645,8.6645,8.6645,8.6697,8.7486,8.8971,9.1244,9.3231,9.5021,9.6417,9.8638,10.0216,10.0726,10.0792,10.1041,10.1455,9.9784,9.8949,10.0165,10.02,10.0214,10.0441,10.044,10.0042,9.9083,10.0504,10.1192,10.0623,10.177,10.3191,10.4818,10.6743,10.8539,11.0077,11.0825,11.1886,11.2465,11.2548,11.2442,11.2079,11.0805,11.0051,10.9784,10.9562,10.9441,10.9628,11.0356,11.1488,11.225,11.4041,11.5116,11.5695,11.6275,11.681,11.7176,11.7325,11.7884,11.7969,11.7997,11.8355,11.6737,11.5971,11.4473,7.8373,7.8513,7.8576,7.8653,7.8983,8.0278,8.0783,8.0824,8.2048,8.2661,8.2596,8.0166,8.067,8.2694,8.275,8.3872,8.5964,8.6068,8.584,8.5747,8.5946,8.54,8.4304,8.4184,8.4316,8.4423,8.4744,8.6116,8.8338,8.8904,8.8649,8.786,8.6768,8.5008,8.311,8.5055,8.4662,8.1222,8.3523,8.4735,8.4595,8.4705,8.4748,8.4777,8.5173,8.5436,8.569,8.6025,8.6344,8.6604,8.6513,8.6434,8.6447,8.6316,8.6263,8.6225,8.6277,8.6869,8.8317,9.0987,9.3041,9.4393,9.6068,9.7814,9.8885,9.8935,9.8935,9.892,9.7965,9.7725,9.8771,9.8936,9.9349,10.0265,10.046,10.0501,10.0181,10.0343,9.9876,9.8408,10.0293,10.1128,10.2851,10.4478,10.6648,10.9121,11.0128,11.1018,11.1873,11.2136,11.21,11.1456,10.9784,10.8099,10.7829,10.7372,10.7398,10.8033,10.8313,10.9037,11.0622,11.1734,11.2643,11.3976,11.462,11.4878,11.5071,11.5457,11.6423,11.6552,11.7413,11.8342,11.7859,11.668,11.4882,7.6169,7.7205,7.7219,7.7835,7.8866,8.0124,8.0161,7.9365,8.0557,8.1742,8.2527,8.2056,8.2094,8.2721,8.2603,8.293,8.3451,8.3479,8.3466,8.3441,8.3441,8.3325,8.3026,8.2192,8.1899,8.2056,8.3349,8.4918,8.6693,8.8869,9.036,9.1049,9.0048,8.8517,8.6685,8.5747,8.5248,8.5291,8.4903,8.4257,8.336,8.4232,8.4748,8.4792,8.5308,8.5648,8.5732,8.6247,8.6563,8.6645,8.5552,8.4867,8.4881,8.3868,8.3355,8.3524,8.3537,8.376,8.4417,8.7105,8.8771,8.8868,9.3222,9.6116,9.6088,9.5188,9.4991,9.5992,9.5906,9.627,9.7443,9.7771,9.8316,9.9585,9.9766,9.9739,9.9776,10.0739,10.1079,10.0842,10.2069,10.2955,10.3296,10.3911,10.4966,10.6906,10.9093,11.0408,11.0803,11.0869,11.0408,10.9519,10.8661,10.7899,10.7689,10.6718,10.5941,10.5708,10.5576,10.6353,10.7698,10.959,11.1135,11.245,11.359,11.4105,11.4427,11.4813,11.4942,11.5071,11.6166,11.7027,11.6919,11.5586,11.3603,7.3211,7.3966,7.4596,7.5547,7.6835,7.824,7.9085,7.9564,7.9442,7.9571,7.9705,8.0356,8.1374,8.2518,8.2477,8.3156,8.4363,8.4245,8.4198,8.4186,8.4186,8.3935,8.3372,8.284,8.2296,8.1885,8.2813,8.3751,8.4854,8.7573,8.9479,9.0348,9.1246,9.0841,8.9365,8.7528,8.6374,8.5822,8.5643,8.4903,8.3551,8.3481,8.3409,8.3423,8.338,8.3379,8.3393,8.3453,8.3499,8.3486,8.2146,8.1725,8.2369,8.1672,8.1643,8.2558,8.3014,8.3321,8.3579,8.5185,8.6364,8.7145,8.9945,9.1366,9.0677,9.1168,9.1828,9.2583,9.3984,9.5011,9.5493,9.6218,9.7065,9.839,9.8572,9.8819,9.9461,10.0266,10.0581,10.0569,10.1403,10.1845,10.1668,10.1797,10.232,10.3027,10.495,10.6906,10.8173,10.7893,10.7169,10.6512,10.6298,10.6214,10.5997,10.5307,10.4763,10.4313,10.3956,10.4249,10.54,10.6954,10.8733,11.0177,11.1548,11.245,11.2514,11.303,11.3461,11.3654,11.462,11.5908,11.6353,11.5388,11.3432,7.0864,7.0901,7.2039,7.3223,7.4441,7.5675,7.7571,7.9583,7.8436,7.7355,7.6496,7.7675,7.9722,8.224,8.2019,8.3369,8.5815,8.5633,8.5547,8.5536,8.5547,8.5029,8.4068,8.3929,8.3299,8.239,8.2266,8.25,8.3272,8.5543,8.7178,8.8177,9.0778,9.1687,9.0664,8.9492,8.7742,8.544,8.6111,8.5853,8.4428,8.3014,8.2166,8.1833,8.1184,8.0638,8.034,7.9795,7.9385,7.9411,7.8285,7.808,7.9095,7.8947,7.9491,8.0804,8.1705,8.242,8.2901,8.3252,8.4333,8.6409,8.6798,8.6256,8.5027,8.7566,8.9378,8.9564,9.1721,9.3207,9.2977,9.4143,9.5327,9.626,9.6872,9.7566,9.8607,9.9001,9.9183,9.9248,9.9395,9.9658,9.9758,9.9708,9.9856,9.9856,10.1318,10.2517,10.4572,10.4161,10.329,10.3553,10.3619,10.375,10.4161,10.4013,10.3948,10.3569,10.3235,10.335,10.4521,10.5375,10.6424,10.7868,10.9257,11.0067,11.0408,11.1226,11.187,11.2128,11.3223,11.4491,11.5438,11.5063,11.3456,7.2037,7.1878,7.2308,7.2966,7.3692,7.4129,7.508,7.6375,0.0,0.0,0.0,7.7577,7.8679,8.0328,8.0347,8.1267,8.2912,8.2941,8.2931,8.2921,8.2921,8.277,8.2575,8.1691,8.1214,8.0948,8.0563,8.1029,8.2226,8.3096,8.4677,8.704,8.8821,8.9596,8.9362,8.909,8.8726,8.827,8.732,8.6085,8.4755,8.4375,8.3568,8.2198,8.1347,8.0326,7.8949,7.8285,7.7921,7.7933,7.6816,7.5766,7.4821,7.3823,7.3051,7.2768,7.3222,7.4311,7.6131,7.7714,7.982,8.2655,8.5305,8.5766,8.3044,8.5996,8.8216,8.8757,8.9245,8.9611,8.9547,9.1232,9.247,9.2393,9.4571,9.5919,9.6037,9.6994,9.7814,9.793,9.8769,9.9527,9.9395,9.9395,9.9527,9.9527,9.9608,10.0594,10.1728,10.0282,9.9558,10.1531,10.2041,10.2501,10.3553,10.3816,10.3997,10.3554,10.3124,10.3339,10.4369,10.4483,10.5237,10.7178,10.8208,10.8871,10.9874,11.0325,11.0518,11.0582,11.1742,11.2836,11.2991,11.2752,11.1822,7.0511,0.0,7.1758,7.2664,0.0,7.4496,7.4566,7.4107,7.4949,7.5748,7.6493,7.6484,7.7334,7.8643,7.7959,7.886,8.104,8.103,8.1456,8.2219,8.2219,8.2219,8.2209,8.1798,8.1703,8.1662,8.1486,8.1264,8.1047,8.2477,8.3428,8.3939,8.6618,8.7927,8.7991,8.9393,8.9715,8.9022,8.7505,8.5666,8.3568,8.2013,8.088,8.0142,7.9287,0.0,0.0,0.0,0.0,0.0,0.0,0.0,0.0,0.0,0.0,6.9311,6.8905,6.8886,6.9488,7.1297,7.3303,7.5616,7.8349,7.8817,7.6363,8.012,8.341,8.5109,8.6663,8.7617,8.7754,8.927,9.0124,8.9531,9.1884,9.3657,9.3726,9.543,9.6692,9.6608,9.7126,9.7526,9.7388,9.7373,9.7373,9.7373,9.7373,9.757,9.8096,9.7125,9.7009,9.9113,10.0019,10.0857,10.1581,10.1696,10.1696,10.173,10.1293,10.1179,10.1664,10.1842,10.2254,10.3498,10.5054,10.6497,10.795,10.8807,10.946,11.0291,11.0926,11.1283,11.1555,11.2022,11.1438,6.8846,6.9748,7.0572,7.1705,7.3131,7.4075,7.3411,7.1885,7.214,7.2904,7.4066,7.4135,7.4889,7.6146,7.5036,7.6017,7.8602,7.8908,7.9909,8.1456,8.1753,8.2051,8.2348,8.2556,8.2624,8.2634,8.2574,8.1729,8.0268,8.1909,8.2155,8.1042,8.4139,8.6038,8.6559,0.0,0.0,0.0,8.6946,8.488,8.2134,7.9808,7.8446,7.8136,7.7301,0.0,7.6356,7.5521,7.4376,7.296,7.2046,0.0,0.0,0.0,0.0,0.0,0.0,0.0,0.0,0.0,0.0,0.0,6.9138,6.9618,6.9494,7.3293,7.7165,8.0341,8.3262,8.5054,8.533,8.6739,8.7287,8.6612,8.9032,9.1016,9.1476,9.3454,9.5147,9.5239,9.5342,9.5371,9.5419,9.5359,9.5329,9.5415,9.5284,9.5284,9.5415,9.5415,9.5744,9.6812,9.8243,9.9214,9.9527,9.9658,9.9856,9.9495,9.9291,9.9104,9.9011,9.9498,9.9799,10.0244,10.1738,10.3761,10.5465,10.6757,10.7995,10.9728,11.0062,11.0043,11.0006,11.1079,11.0994,6.9249,6.9162,6.8259,6.902,7.0836,6.9777,6.9197,6.8961,6.8995,6.9133,6.9272,6.9341,7.0182,7.1578,7.1448,7.2289,7.3981,7.5523,7.6996,7.8547,8.002,8.1413,8.2739,8.2768,8.2778,8.2739,8.1941,8.1552,8.1213,7.9889,7.9614,8.043,8.1317,8.2892,8.4985,8.5603,8.5732,8.5278,8.5316,8.4086,8.1611,8.117,8.0271,7.8828,7.7703,7.6415,7.4944,7.4058,7.2906,7.1501,7.1509,6.9792,6.5956,6.3448,6.0591,0.0,5.5378,0.0,0.0,0.0,0.0,0.0,0.0,0.0,0.0,6.827,7.0746,7.5044,7.7918,7.957,7.9556,8.1427,8.277,8.3232,8.5671,8.8105,8.9952,9.0334,9.1406,9.3995,9.4246,9.4648,9.54,9.5591,9.5487,9.5263,9.5182,9.503,9.5167,9.5167,9.5233,9.5466,9.6731,9.803,9.9017,9.9395,9.9395,9.943,9.9094,9.9134,9.8922,9.8798,9.9093,10.0149,10.0684,10.1593,10.3057,10.4421,10.5833,10.7298,10.8356,10.862,10.7637,10.836,10.892,6.8146,6.8579,6.8137,6.8025,6.8149,6.7514,6.7685,6.8379,6.8379,6.8379,6.8457,6.8548,6.9072,6.972,6.8876,7.0277,7.3368,7.4213,7.5782,7.8076,7.8857,7.9733,8.0707,8.0577,8.057,8.0867,8.0253,7.9638,7.9153,7.9024,7.87,7.8282,8.0009,8.0904,8.0968,8.0875,8.2243,8.4893,8.4531,8.3002,8.0368,7.9613,7.8908,7.8206,7.778,7.7238,7.6538,7.5281,7.4035,7.2579,7.1095,6.8246,6.3937,6.0729,5.6804,0.0,0.0,0.0,0.0,0.0,0.0,0.0,0.0,0.0,0.0,0.0,6.6343,7.0064,7.5173,7.7318,7.5056,7.6482,7.7166,7.6261,7.8708,8.116,8.2886,8.6233,8.9245,9.1433,9.2694,9.3797,9.4716,9.491,9.4959,9.5227,9.4248,9.3393,9.3171,9.3794,9.4182,9.41,9.5284,9.6452,9.6978,9.711,9.7176,9.716,9.7068,9.711,9.7545,9.7018,9.6847,9.7856,9.8205,9.8816,10.0445,10.1764,10.3113,10.452,10.5067,10.5178,10.5573,10.6731,10.7554,6.6836,6.748,6.5599,6.4742,6.4476,6.4431,6.561,6.738,6.7457,6.7188,6.6926,6.7512,6.7214,6.6176,6.4638,6.6422,7.0524,7.1009,7.3056,7.6302,7.706,7.7846,7.8644,7.8639,7.8806,7.9132,7.8916,7.8465,7.7799,7.8179,7.7609,7.6292,7.7156,7.6882,7.5184,7.5688,7.8254,8.2804,8.2735,8.1554,7.9443,7.8275,7.7628,7.764,7.7862,7.7829,7.7434,7.6041,7.4504,7.264,6.9507,6.5734,6.1486,5.7408,0.0,0.0,0.0,0.0,0.0,0.0,0.0,0.0,0.0,4.7812,5.0326,0.0,6.1086,0.0,7.1512,7.484,7.2429,7.2642,0.0,0.0,7.1506,7.3133,7.4805,8.0051,8.4497,8.7119,8.9472,9.1461,9.3043,9.3525,9.3719,9.3834,9.2572,9.1484,9.1204,9.2154,9.2835,9.2821,9.3553,9.4232,9.4217,9.4217,9.427,9.4534,9.4644,9.4913,9.568,9.4991,9.4608,9.5493,9.5703,9.6308,9.7904,9.9153,10.0249,10.0705,10.0519,10.0782,10.3018,10.4541,10.5606,6.6008,6.5428,5.7851,5.6395,5.9107,5.9237,6.1294,6.4419,6.4497,6.3684,6.2461,6.4052,6.2293,5.82,5.6908,0.0,6.1556,6.326,6.6741,7.1406,7.3955,7.5855,7.7342,7.8252,7.8692,7.877,7.8978,7.9021,7.8777,7.6788,7.5421,7.4688,7.1109,6.8456,6.7281,7.0346,7.3386,7.6203,7.8746,7.9872,7.9688,7.8498,7.7858,7.787,7.796,7.7303,7.6029,7.4636,7.252,6.9605,6.5644,6.1497,5.7081,0.0,0.0,0.0,0.0,0.0,0.0,0.0,0.0,0.0,0.0,0.0,0.0,0.0,0.0,0.0,6.5114,0.0,7.2772,7.0749,0.0,0.0,0.0,6.489,6.7281,7.0334,7.4396,7.988,0.0,0.0,8.9732,9.1169,9.1453,9.0051,9.0107,9.0351,9.0311,9.071,9.1284,9.1366,9.1407,9.1287,9.1484,9.1353,9.1587,9.2417,9.2719,9.311,9.3981,9.3484,9.3402,9.461,9.4051,9.391,9.532,9.6599,9.6867,9.4617,9.5057,9.6451,9.8636,10.0314,10.2192,5.9445,5.6318,5.2281,5.1457,5.2832,5.3954,5.6513,5.9849,6.0861,6.1018,6.0547,6.034,5.7617,5.3142,5.1882,0.0,0.0,0.0,6.3063,6.7981,7.0044,7.2111,7.4046,7.4073,7.4274,7.4678,7.4237,7.3957,7.3953,7.3686,7.0261,6.3826,0.0,0.0,6.1938,6.5839,6.9628,7.3268,7.7337,7.9398,7.9198,7.8407,7.7512,7.6698,7.6633,7.558,7.3355,7.1797,6.9254,6.5578,6.1432,5.6306,0.0,0.0,0.0,0.0,0.0,0.0,0.0,0.0,0.0,0.0,0.0,4.0245,0.0,0.0,0.0,0.0,5.3869,5.701,6.1782,6.281,0.0,0.0,0.0,0.0,0.0,0.0,0.0,7.2184,7.6989,8.1634,8.606,8.7535,8.8181,8.7906,8.7907,8.756,8.6743,0.0,8.8087,8.8543,8.8494,8.867,8.9511,8.8985,8.8573,8.8894,9.0192,9.1627,9.2822,9.3321,9.389,9.4787,9.44,9.3673,9.3613,9.3245,9.2664,9.2009,9.2274,9.3149,9.4582,9.679,9.8865,5.1201,0.0,0.0,0.0,0.0,4.8371,5.1197,5.4532,5.6226,5.6473,5.5749,5.5205,0.0,0.0,0.0,0.0,0.0,0.0,5.9152,6.3133,6.7063,6.9456,7.0631,7.0413,7.0648,7.1057,6.9478,6.8688,6.8577,6.6852,6.1394,5.2733,0.0,0.0,0.0,0.0,6.6573,7.1391,7.685,7.9599,7.944,7.8706,7.767,7.6191,7.5129,7.3398,7.0976,6.8266,6.5102,6.1244,5.5998,0.0,0.0,0.0,0.0,0.0,0.0,0.0,0.0,0.0,0.0,0.0,0.0,0.0,0.0,0.0,0.0,0.0,0.0,0.0,5.2646,5.5836,5.6484,0.0,0.0,0.0,0.0,0.0,0.0,0.0,0.0,0.0,7.8506,8.099,8.3252,0.0,0.0,8.6105,8.5058,8.5516,8.6042,8.6017,8.5794,0.0,8.6345,8.5554,8.4882,8.4789,8.6505,8.8386,8.9792,8.9847,9.0475,9.2414,9.1997,9.0502,8.8142,8.6449,8.5656,8.5687,8.6045,8.6755,8.8226,9.0365,9.2522,0.0,0.0,0.0,0.0,0.0,0.0,0.0,0.0,5.0173,4.9282,0.0,4.8226,0.0,0.0,0.0,0.0,0.0,4.9855,0.0,0.0,6.5194,6.8806,6.7306,6.8214,6.8755,6.8519,6.5567,6.4001,6.3481,5.5182,0.0,0.0,0.0,0.0,0.0,0.0,6.4404,7.0184,7.7107,8.0588,8.0556,7.9689,7.8585,7.7111,7.367,7.0964,6.9145,6.4101,5.9835,5.6755,4.909,0.0,0.0,0.0,0.0,0.0,0.0,0.0,0.0,0.0,0.0,0.0,0.0,0.0,0.0,0.0,0.0,0.0,0.0,0.0,0.0,5.1299,0.0,0.0,0.0,0.0,0.0,0.0,0.0,0.0,0.0,0.0,6.5677,7.0689,7.6324,8.146,0.0,0.0,0.0,0.0,8.5696,8.4158,8.3409,8.2556,8.1085,8.0783,8.0618,8.0329,0.0,0.0,8.4085,8.1731,8.118,8.5192,8.5422,8.288,7.6721,7.5251,7.4598,7.3734,7.457,7.5946,7.8199,8.0031,8.2331,0.0,0.0,0.0,0.0,0.0,0.0,0.0,0.0,0.0,4.4135,0.0,4.2892,0.0,0.0,0.0,0.0,0.0,0.0,0.0,0.0,5.6129,5.9556,6.1088,6.0497,6.0231,0.0,5.7858,5.4111,0.0,0.0,0.0,0.0,0.0,0.0,0.0,0.0,6.3918,6.9248,7.7527,8.17,8.1496,8.0057,7.8891,7.8019,7.4748,6.9616,6.2588,5.8733,5.3687,0.0,0.0,0.0,0.0,0.0,0.0,0.0,0.0,0.0,0.0,0.0,0.0,0.0,0.0,0.0,0.0,0.0,0.0,0.0,0.0,0.0,0.0,0.0,5.0402,0.0,0.0,0.0,0.0,0.0,0.0,0.0,0.0,0.0,5.697,6.4818,7.1886,7.5565,7.9545,8.2191,8.2445,0.0,0.0,0.0,0.0,0.0,0.0,0.0,7.6481,7.5081,7.3716,7.35,7.568,7.5784,7.6403,7.8992,0.0,0.0,6.8637,6.7105,6.6703,6.5682,6.6628,6.7737,6.8567,7.1284,7.4202,0.0,0.0,0.0,0.0,0.0,0.0,0.0,0.0,0.0,3.7141,3.7204,0.0,0.0,0.0,0.0,0.0,0.0,0.0,0.0,0.0,0.0,0.0,5.4506,5.3085,0.0,0.0,0.0,0.0,0.0,0.0,0.0,0.0,0.0,0.0,0.0,0.0,6.2528,6.8511,7.7438,8.2206,8.2454,8.0254,7.8635,7.7784,7.4104,6.8147,5.9651,0.0,0.0,0.0,0.0,0.0,0.0,0.0,0.0,0.0,0.0,0.0,0.0,0.0,0.0,0.0,0.0,0.0,0.0,0.0,0.0,0.0,0.0,0.0,0.0,0.0,4.685,0.0,0.0,0.0,0.0,0.0,0.0,0.0,0.0,0.0,0.0,0.0,6.5723,7.0202,7.5445,7.9098,7.9897,8.0835,8.1625,0.0,0.0,0.0,0.0,0.0,0.0,0.0,0.0,0.0,0.0,0.0,0.0,0.0,0.0,6.3373,5.776,5.667,5.6232,5.5027,0.0,0.0,0.0,0.0,0.0,0.0,0.0,0.0,0.0,0.0,0.0,0.0,0.0,0.0,0.0,0.0,0.0,0.0,2.8293,0.0,0.0,0.0,0.0,0.0,0.0,0.0,0.0,0.0,0.0,0.0,0.0,0.0,0.0,0.0,0.0,0.0,0.0,0.0,0.0,0.0,0.0,6.0404,6.7975,7.6912,8.2066,8.3267,8.0219,7.7884,7.6381,7.1745,6.6461,6.0648,0.0,0.0,0.0,0.0,0.0,0.0,0.0,0.0,0.0,0.0,0.0,0.0,0.0,0.0,0.0,0.0,0.0,0.0,0.0,0.0,0.0,0.0,0.0,0.0,0.0,0.0,4.1969,4.6859,4.9129,0.0,0.0,0.0,0.0,0.0,0.0,0.0,0.0,0.0,0.0,7.2789,7.776,7.8786,7.9774,8.0188,7.9722,7.932,7.8705,7.7579,7.7373,7.56,0.0,0.0,0.0,0.0,0.0,0.0,0.0,0.0,0.0,0.0,0.0,0.0,0.0,0.0,0.0,0.0,0.0,0.0,0.0,0.0,0.0,0.0,0.0,0.0,0.0,0.0,0.0,0.0,0.0,0.0,0.0,0.0,0.0,0.0,0.0,0.0,0.0,0.0,0.0,0.0,0.0,0.0,0.0,0.0,0.0,0.0,0.0,0.0,0.0,0.0,0.0,0.0,0.0,0.0,6.0741,6.8336,7.7066,8.2286,8.3618,8.0298,7.7894,7.6312,7.0765,6.4519,0.0,0.0,0.0,0.0,0.0,0.0,0.0,0.0,0.0,0.0,0.0,0.0,0.0,0.0,0.0,0.0,0.0,0.0,0.0,0.0,0.0,0.0,0.0,0.0,0.0,0.0,0.0,0.0,5.0282,5.0299,4.6131,0.0,0.0,0.0,0.0,0.0,0.0,0.0,0.0,0.0,0.0,7.2084,7.4361,7.6614,7.8057,7.7865,7.764,7.6849,7.5037,7.3252,7.0749,6.6813,0.0,0.0,0.0,0.0,0.0,0.0,0.0,0.0,0.0,0.0,0.0,0.0,0.0,0.0,0.0,0.0,0.0,0.0,0.0,0.0,0.0,0.0,0.0,0.0,0.0,0.0,0.0,0.0,0.0,0.0,0.0,0.0,0.0,0.0,0.0,0.0,0.0,0.0,0.0,0.0,0.0,0.0,0.0,0.0,0.0,0.0,0.0,0.0,0.0,0.0,0.0,0.0,0.0,5.9491,6.7668,7.641,8.1873,8.363,7.998,7.7444,7.6493,6.9403,6.2381,0.0,0.0,0.0,0.0,0.0,0.0,0.0,0.0,0.0,0.0,0.0,0.0,0.0,0.0,0.0,0.0,0.0,0.0,0.0,0.0,0.0,0.0,0.0,0.0,0.0,0.0,0.0,0.0,4.753,4.8263,4.5909,0.0,0.0,0.0,0.0,0.0,0.0,0.0,0.0,0.0,0.0,6.7656,6.9828,7.2663,0.0,0.0,7.4771,7.4443,7.2676,7.1892,6.9517,6.3761,5.8446,0.0,0.0,0.0,0.0,0.0,0.0,0.0,0.0,0.0,0.0,0.0,0.0,0.0,0.0,0.0,0.0,0.0,0.0,0.0,0.0,0.0,0.0,0.0,0.0,0.0,0.0,0.0,0.0,0.0,0.0,0.0,0.0,0.0,0.0,0.0,0.0,0.0,0.0,0.0,0.0,0.0,0.0,0.0,0.0,0.0,0.0,0.0,0.0,0.0,0.0,0.0,0.0,0.0,6.6246,7.5305,8.1217,8.3781,7.9536,7.7035,7.6486,6.7899,6.0366,0.0,0.0,0.0,0.0,0.0,0.0,0.0,0.0,0.0,0.0,0.0,0.0,0.0,0.0,0.0,0.0,0.0,0.0,0.0,0.0,0.0,0.0,0.0,0.0,0.0,0.0,0.0,0.0,0.0,0.0,0.0,0.0,0.0,0.0,0.0,0.0,0.0,0.0,0.0,0.0,0.0,6.4219,6.5733,6.811,6.9786,0.0,0.0,7.1371,7.038,7.1925,7.0179,6.0966,0.0,0.0,0.0,0.0,0.0,0.0,0.0,0.0,0.0,0.0,0.0,0.0,0.0,0.0,0.0,0.0,0.0,0.0,0.0,0.0,0.0,0.0,0.0,0.0,0.0,0.0,0.0,0.0,0.0,0.0,0.0,0.0,0.0,0.0,0.0,0.0,0.0,0.0,0.0,0.0,0.0,0.0,0.0,0.0,0.0,0.0,0.0,0.0,0.0,0.0,0.0,0.0,0.0,0.0,6.6496,7.5327,8.1291,8.4052,8.1195,7.864,7.6506,6.8568,0.0,0.0,0.0,0.0,0.0,0.0,0.0,0.0,0.0,0.0,0.0,0.0,0.0,0.0,0.0,0.0,0.0,0.0,0.0,0.0,0.0,0.0,0.0,0.0,0.0,0.0,0.0,3.2326,0.0,0.0,0.0,0.0,0.0,0.0,0.0,0.0,0.0,0.0,0.0,0.0,0.0,0.0,6.1411,6.3939,6.481,6.5605,0.0,0.0,6.5454,6.5046,6.4721,6.239,0.0,0.0,0.0,0.0,0.0,0.0,0.0,0.0,0.0,0.0,0.0,0.0,0.0,0.0,0.0,0.0,0.0,0.0,0.0,0.0,0.0,0.0,0.0,0.0,0.0,0.0,0.0,0.0,0.0,0.0,0.0,0.0,0.0,0.0,0.0,0.0,0.0,0.0,0.0,0.0,0.0,0.0,0.0,0.0,0.0,0.0,0.0,0.0,0.0,0.0,0.0,0.0,0.0,0.0,5.5752,6.5729,7.3918,8.0182,8.4288,8.2057,7.9518,7.6857,6.8897,6.0962,0.0,0.0,0.0,0.0,0.0,0.0,0.0,0.0,0.0,0.0,0.0,0.0,0.0,0.0,0.0,0.0,0.0,0.0,0.0,0.0,0.0,0.0,0.0,0.0,0.0,0.0,0.0,0.0,0.0,0.0,0.0,0.0,0.0,0.0,0.0,0.0,0.0,0.0,0.0,0.0,0.0,0.0,6.143,6.1714,0.0,0.0,0.0,6.2129,6.0977,0.0,0.0,0.0,0.0,0.0,0.0,0.0,0.0,0.0,0.0,0.0,0.0,0.0,0.0,0.0,0.0,0.0,0.0,0.0,0.0,0.0,0.0,0.0,0.0,0.0,0.0,0.0,0.0,0.0,0.0,0.0,0.0,0.0,0.0,0.0,0.0,0.0,0.0,0.0,0.0,0.0,0.0,0.0,0.0,0.0,0.0,0.0,0.0,0.0,0.0,0.0,0.0,0.0,0.0,0.0,0.0,0.0,6.4815,7.2156,7.874,8.438,8.2608,8.0097,7.718,6.973,6.2116,0.0,0.0,0.0,0.0,0.0,0.0,0.0,0.0,0.0,0.0,0.0,0.0,0.0,0.0,0.0,0.0,0.0,0.0,0.0,0.0,0.0,0.0,0.0,0.0,0.0,0.0,0.0,0.0,0.0,0.0,0.0,0.0,0.0,0.0,0.0,0.0,0.0,0.0,0.0,0.0,0.0,5.7459,5.8913,5.8729,5.7535,0.0,0.0,5.9465,5.767,5.7719,0.0,0.0,0.0,0.0,0.0,0.0,0.0,0.0,0.0,0.0,0.0,0.0,0.0,0.0,0.0,0.0,0.0,0.0,0.0,0.0,0.0,0.0,0.0,0.0,0.0,0.0,0.0,0.0,0.0,0.0,0.0,0.0,0.0,0.0,0.0,0.0,0.0,0.0,0.0,0.0,0.0,0.0,0.0,0.0,0.0,0.0,0.0,0.0,0.0,0.0,0.0,0.0,0.0,0.0,0.0,0.0,6.6516,7.2916,7.9005,8.4741,8.4345,8.1923,7.76,7.3448,6.5998,0.0,0.0,0.0,0.0,0.0,0.0,0.0,0.0,0.0,0.0,0.0,0.0,0.0,0.0,0.0,0.0,0.0,0.0,0.0,0.0,0.0,0.0,0.0,0.0,0.0,0.0,0.0,0.0,0.0,0.0,0.0,0.0,0.0,0.0,0.0,0.0,0.0,0.0,0.0,0.0,0.0,5.6371,5.8979,5.6229,0.0,0.0,0.0,0.0,5.4036,5.2267,0.0,0.0,0.0,0.0,0.0,0.0,0.0,0.0,0.0,0.0,0.0,0.0,0.0,0.0,0.0,0.0,0.0,0.0,0.0,0.0,0.0,0.0,0.0,0.0,0.0,0.0,0.0,0.0,0.0,0.0,0.0,0.0,0.0,0.0,0.0,0.0,0.0,0.0,0.0,0.0,0.0,0.0,0.0,0.0,0.0,0.0,0.0,0.0,0.0,0.0,0.0,0.0,0.0,0.0,0.0,0.0,6.476,7.1041,7.7347,8.3837,8.4654,8.2602,7.7882,7.402,6.6975,0.0,0.0,0.0,0.0,0.0,0.0,0.0,0.0,0.0,0.0,0.0,0.0,0.0,0.0,0.0,0.0,0.0,0.0,0.0,0.0,0.0,0.0,0.0,0.0,0.0,0.0,0.0,0.0,0.0,0.0,0.0,0.0,0.0,0.0,0.0,0.0,0.0,0.0,0.0,0.0,4.9775,5.2654,5.4895,0.0,0.0,0.0,0.0,0.0,0.0,5.0298,4.7417,0.0,0.0,0.0,0.0,0.0,0.0,0.0,0.0,0.0,0.0,0.0,0.0,0.0,0.0,0.0,0.0,0.0,0.0,0.0,0.0,0.0,0.0,0.0,0.0,0.0,0.0,0.0,0.0,0.0,0.0,0.0,0.0,0.0,0.0,0.0,0.0,0.0,0.0,0.0,0.0,0.0,0.0,0.0,0.0,0.0,0.0,0.0,0.0,0.0,0.0,0.0,0.0,0.0,0.0,0.0,6.229,6.867,7.5348,8.2489,8.4284,8.2875,7.8127,7.3748,6.7069,5.7849,0.0,0.0,0.0,0.0,0.0,0.0,0.0,0.0,0.0,0.0,0.0,0.0,0.0,0.0,0.0,0.0,0.0,0.0,0.0,0.0,0.0,0.0,0.0,0.0,0.0,0.0,0.0,0.0,0.0,0.0,0.0,0.0,0.0,0.0,0.0,0.0,0.0,0.0,0.0,4.6555,4.8532,0.0,0.0,0.0,0.0,0.0,0.0,0.0,0.0,4.6097,0.0,0.0,0.0,0.0,0.0,0.0,0.0,0.0,0.0,0.0,0.0,0.0,0.0,0.0,0.0,0.0,0.0,0.0,0.0,0.0,0.0,0.0,0.0,0.0,0.0,0.0,0.0,0.0,0.0,0.0,0.0,0.0,0.0,0.0,0.0,0.0,0.0,0.0,0.0,0.0,0.0,0.0,0.0,0.0,0.0,0.0,0.0,0.0,0.0,0.0,0.0,0.0,0.0,0.0,0.0,0.0,6.8441,7.5217,8.1328,8.3976,8.3034,7.8395,7.523,6.8561,5.7879,0.0,0.0,0.0,0.0,0.0,0.0,0.0,0.0,0.0,0.0,0.0,0.0,0.0,0.0,0.0,0.0,0.0,0.0,0.0,0.0,0.0,0.0,0.0,0.0,0.0,0.0,0.0,0.0,0.0,0.0,0.0,0.0,0.0,0.0,0.0,0.0,0.0,0.0,3.7594,4.3117,0.0,0.0,0.0,0.0,0.0,0.0,0.0,0.0,4.3401,0.0,0.0,0.0,0.0,0.0,0.0,0.0,0.0,0.0,0.0,0.0,0.0,0.0,0.0,0.0,0.0,0.0,0.0,0.0,0.0,0.0,0.0,0.0,0.0,0.0,0.0,0.0,0.0,0.0,0.0,0.0,0.0,0.0,0.0,0.0,0.0,0.0,0.0,0.0,0.0,0.0,0.0,0.0,0.0,0.0,0.0,0.0,0.0,0.0,0.0,0.0,0.0,0.0,0.0,0.0,0.0,0.0,0.0,7.4008,7.9842,8.2709,8.255,7.8903,7.3035,6.5642,0.0,0.0,0.0,0.0,0.0,0.0,0.0,0.0,0.0,0.0,0.0,0.0,0.0,0.0,0.0,0.0,0.0,0.0,0.0,0.0,0.0,0.0,0.0,0.0,0.0,0.0,0.0,0.0,0.0,0.0,0.0,0.0,0.0,0.0,0.0,0.0,0.0,0.0,0.0,0.0,0.0,0.0,0.0,0.0,0.0,0.0,0.0,0.0,0.0,0.0,0.0,0.0,0.0,0.0,0.0,0.0,0.0,0.0,0.0,0.0,0.0,0.0,0.0,0.0,0.0,0.0,0.0,0.0,0.0,0.0,0.0,0.0,0.0,0.0,0.0,0.0,0.0,0.0,0.0,0.0,0.0,0.0,0.0,0.0,0.0,0.0,0.0,0.0,0.0,0.0,0.0,0.0,0.0,0.0,0.0,0.0,0.0,0.0,0.0,0.0,0.0,0.0,0.0,0.0,0.0,0.0,0.0,0.0,7.2049,7.7441,8.0897,8.1536,7.9026,7.0332,6.2074,0.0,0.0,0.0,0.0,0.0,0.0,0.0,0.0,0.0,0.0,0.0,0.0,0.0,0.0,0.0,0.0,0.0,0.0,0.0,0.0,0.0,0.0,0.0,0.0,0.0,0.0,0.0,0.0,0.0,0.0,0.0,0.0,0.0,0.0,0.0,0.0,0.0,0.0,0.0,0.0,0.0,0.0,0.0,0.0,0.0,0.0,0.0,0.0,4.3526,0.0,0.0,0.0,0.0,0.0,0.0,0.0,0.0,0.0,0.0,0.0,0.0,0.0,0.0,0.0,0.0,0.0,0.0,0.0,0.0,0.0,0.0,0.0,0.0,0.0,0.0,0.0,0.0,0.0,0.0,0.0,0.0,0.0,0.0,0.0,0.0,0.0,0.0,0.0,0.0,0.0,0.0,0.0,0.0,0.0,0.0,0.0,0.0,0.0,0.0,0.0,0.0,0.0,0.0,0.0,0.0,0.0,0.0,0.0,6.9533,7.297,7.8304,7.9962,7.7262,6.8799,5.985,0.0,0.0,0.0,0.0,0.0,0.0,0.0,0.0,0.0,0.0,0.0,0.0,0.0,0.0,0.0,0.0,0.0,0.0,0.0,0.0,0.0,0.0,0.0,0.0,0.0,0.0,0.0,0.0,0.0,0.0,0.0,0.0,0.0,0.0,0.0,0.0,0.0,0.0,0.0,0.0,0.0,0.0,0.0,0.0,0.0,0.0,0.0,0.0,0.0,0.0,0.0,0.0,0.0,0.0,0.0,0.0,0.0,0.0,0.0,0.0,0.0,0.0,0.0,0.0,0.0,0.0,0.0,0.0,0.0,0.0,0.0,0.0,0.0,0.0,0.0,0.0,0.0,0.0,0.0,0.0,0.0,0.0,0.0,0.0,0.0,0.0,0.0,0.0,0.0,0.0,0.0,0.0,0.0,0.0,0.0,0.0,0.0,0.0,0.0,0.0,0.0,0.0,0.0,0.0,0.0,0.0,0.0,0.0,6.613,7.0869,7.5802,7.6064,7.1333,6.3133,5.5476,0.0,0.0,0.0,0.0,0.0,0.0,0.0,0.0,0.0,0.0,0.0,0.0,0.0,0.0,0.0,0.0,0.0,0.0,0.0,0.0,0.0,0.0,0.0,0.0,0.0,0.0,0.0,0.0,0.0,0.0,0.0,0.0,0.0,0.0,0.0,0.0,0.0,0.0,0.0,0.0,0.0,0.0,0.0,0.0,0.0,0.0,0.0,0.0,0.0,0.0,0.0,0.0,0.0,0.0,0.0,0.0,0.0,0.0,0.0,0.0,0.0,0.0,0.0,0.0,0.0,0.0,0.0,0.0,0.0,0.0,0.0,0.0,0.0,0.0,0.0,0.0,0.0,0.0,0.0,0.0,0.0,0.0,0.0,0.0,0.0,0.0,0.0,0.0,0.0,0.0,0.0,0.0,0.0,0.0,0.0,0.0,0.0,0.0,0.0,0.0,0.0,0.0,0.0,0.0,0.0,0.0,0.0,0.0,0.0,6.8011,7.1001,6.9772,6.3994,5.7729,5.144,0.0,0.0,0.0,0.0,0.0,0.0,0.0,0.0,0.0,0.0,0.0,0.0,0.0,0.0,0.0,0.0,0.0,0.0,0.0,0.0,0.0,0.0,0.0,0.0,0.0,0.0,0.0,0.0,0.0,0.0,0.0,0.0,0.0,0.0,0.0,0.0,0.0,0.0,0.0,0.0,0.0,0.0,0.0,0.0,0.0,0.0,0.0,0.0,0.0,0.0,0.0,0.0,0.0,0.0,0.0,0.0,0.0,0.0,0.0,0.0,0.0,0.0,0.0,0.0,0.0,0.0,0.0,0.0,0.0,0.0,0.0,0.0,0.0,0.0,0.0,0.0,0.0,0.0,0.0,0.0,0.0,0.0,0.0,0.0,0.0,0.0,0.0,0.0,0.0,0.0,0.0,0.0,0.0,0.0,0.0,0.0,0.0,0.0,0.0,0.0,0.0,0.0,0.0,0.0,0.0,0.0,0.0,0.0,0.0,6.3664,6.2562,6.0076,5.6222,5.404,4.8496,0.0,0.0,0.0,0.0,0.0,0.0,0.0,0.0,0.0,0.0,0.0,0.0,0.0,0.0,0.0,0.0,0.0,0.0,0.0,0.0,0.0,0.0,0.0,0.0,0.0,0.0,0.0,0.0,0.0,0.0,0.0,0.0,0.0,0.0,0.0,0.0,0.0,0.0,0.0,0.0,0.0,0.0,0.0,0.0,0.0,0.0,0.0,0.0,0.0,0.0,0.0,0.0,0.0,0.0,0.0,0.0,0.0,0.0,0.0,0.0,0.0,0.0,0.0,0.0,0.0,0.0,0.0,0.0,0.0,0.0,0.0,0.0,0.0,0.0,0.0,0.0,0.0,0.0,0.0,0.0,0.0,0.0,0.0,0.0,0.0,0.0,0.0,0.0,0.0,0.0,0.0,0.0,0.0,0.0,0.0,0.0,0.0,0.0,0.0,0.0,0.0,0.0,0.0,0.0,0.0,0.0,0.0,0.0,0.0,5.5899,5.4473,5.3356,5.2885,4.9182,4.3914,3.7136,0.0,0.0,0.0,0.0,0.0,0.0,0.0,0.0,0.0,0.0,0.0,0.0,0.0,0.0,0.0,0.0,0.0,0.0,0.0,0.0,0.0,0.0,0.0,0.0,0.0,0.0,0.0,0.0,0.0,0.0,0.0,0.0,0.0,0.0,0.0,0.0,0.0,0.0,0.0,0.0,0.0,0.0,0.0,0.0,0.0,0.0,0.0,0.0,0.0,0.0,0.0,0.0,0.0,0.0,0.0,0.0,0.0,0.0,0.0,0.0,0.0,0.0,0.0,0.0,0.0,0.0,0.0,0.0,0.0,0.0,0.0,0.0,0.0,0.0,0.0,0.0,0.0,0.0,0.0,0.0,0.0,0.0,0.0,0.0,0.0,0.0,0.0,0.0,0.0,0.0,0.0,0.0,0.0,0.0,0.0,0.0,0.0,0.0,0.0,0.0,0.0,0.0,0.0,0.0,0.0,0.0,0.0,0.0,4.8003,4.836,4.8406,4.8191,4.5327,4.1032,0.0,0.0,0.0,0.0,0.0,0.0,0.0,0.0,0.0,0.0,0.0,0.0,0.0,0.0,0.0,0.0,0.0,0.0,0.0,0.0,0.0,0.0,0.0,0.0,0.0,0.0,0.0,0.0,0.0,0.0,0.0,0.0,0.0,0.0,0.0,0.0,0.0,0.0,0.0,0.0,0.0,0.0,0.0,0.0,0.0,0.0,0.0,0.0,0.0,0.0,0.0,0.0,0.0,0.0,0.0,0.0,0.0,0.0,0.0,0.0,0.0,0.0,0.0,0.0,0.0,0.0,0.0,0.0,0.0,0.0,0.0,0.0,0.0,0.0,0.0,0.0,0.0,0.0,0.0,0.0,0.0,0.0,0.0,0.0,0.0,0.0,0.0,0.0,0.0,0.0,0.0,0.0,0.0,0.0,0.0,0.0,0.0,0.0,0.0,0.0,0.0,0.0,0.0,0.0,0.0,0.0,0.0,0.0,3.508,3.9775,4.4428,4.5335,4.1991,4.3133,4.0593,0.0,0.0,0.0,0.0,0.0,0.0,0.0,0.0,0.0,0.0,0.0,0.0,0.0,0.0,0.0,0.0,0.0,0.0,0.0,0.0,0.0,0.0,0.0,0.0,0.0,0.0,0.0,0.0,0.0,0.0,0.0,0.0,0.0,0.0,0.0,0.0,0.0,0.0,0.0,0.0,0.0,0.0,0.0,0.0,0.0,0.0,0.0,0.0,0.0,0.0,0.0,0.0,0.0,0.0,0.0,0.0,0.0,0.0,0.0,0.0,0.0,0.0,0.0,0.0,0.0,0.0,0.0,0.0,0.0,0.0,0.0,0.0,0.0,0.0,0.0,0.0,0.0,0.0,0.0,0.0,0.0,0.0,0.0,0.0,0.0,0.0,0.0,0.0,0.0,0.0,0.0,0.0,0.0,0.0,0.0,0.0,0.0,0.0,0.0,0.0,0.0,0.0,0.0,0.0,0.0,0.0,0.0,0.0,0.0,3.6164,0.0,4.3689,0.0,4.2741,4.0078,0.0,0.0,0.0,0.0,0.0,0.0,0.0,0.0,0.0,0.0,0.0,0.0,0.0,0.0,0.0,0.0,0.0,0.0,0.0,0.0,0.0,0.0,0.0,0.0,0.0,0.0,0.0,0.0,0.0,0.0,0.0,0.0,0.0,0.0,0.0,0.0,0.0,0.0,0.0,0.0,0.0,0.0,0.0,0.0,0.0,0.0,0.0,0.0,0.0,0.0,0.0,0.0,0.0,0.0,0.0,0.0,0.0,0.0,0.0,0.0,0.0,0.0,0.0,0.0,0.0,0.0,0.0,0.0,0.0,0.0,0.0,0.0,0.0,0.0,0.0,0.0,0.0,0.0,0.0,0.0,0.0,0.0,0.0,0.0,0.0,0.0,0.0,0.0,0.0,0.0,0.0,0.0,0.0,0.0,0.0,0.0,0.0,0.0,0.0,0.0,0.0,0.0,0.0,0.0,0.0,0.0,0.0,0.0,0.0,3.4456,3.7879,4.0873,0.0,4.1445,3.8955,0.0,0.0,0.0,0.0,0.0,0.0,0.0,0.0,0.0,0.0,0.0,0.0,0.0,0.0,0.0,0.0,0.0,0.0,0.0,0.0,0.0,0.0,0.0,0.0,0.0,0.0,0.0,0.0,0.0,0.0,0.0,0.0,0.0,0.0,0.0,0.0,0.0,0.0,0.0,0.0,0.0,0.0,0.0,0.0,0.0,0.0,0.0,0.0,0.0,0.0,0.0,0.0,0.0,0.0,0.0,0.0,0.0,0.0,0.0,0.0,0.0,0.0,0.0,0.0,0.0,0.0,0.0,0.0,0.0,0.0,0.0,0.0,0.0,0.0,0.0,0.0,0.0,0.0,0.0,0.0,0.0,0.0,0.0,0.0,0.0,0.0,0.0,0.0,0.0,0.0,0.0,0.0,0.0,0.0,0.0,0.0,0.0,0.0,0.0,0.0,0.0,0.0,0.0,0.0,0.0,0.0,0.0,0.0,0.0,0.0,3.593,3.7349,3.8554,3.9326,3.7486,0.0,0.0,0.0,0.0,0.0,0.0,0.0,0.0,0.0,0.0,0.0,0.0,0.0,0.0,0.0,0.0,0.0,0.0,0.0,0.0,0.0,0.0,0.0,0.0,0.0,0.0,0.0,0.0,0.0,0.0,0.0,0.0,0.0,0.0,0.0,0.0,0.0,0.0,0.0,0.0,0.0,0.0,0.0,0.0,0.0,0.0,0.0,0.0,0.0,0.0,0.0,0.0,0.0,0.0,0.0,0.0,0.0,0.0,0.0,0.0,0.0,0.0,0.0,0.0,0.0,0.0,0.0,0.0,0.0,0.0,0.0,0.0,0.0,0.0,0.0,0.0,0.0,0.0,0.0,0.0,0.0,0.0,0.0,0.0,0.0,0.0,0.0,0.0,0.0,0.0,0.0,0.0,0.0,0.0,0.0,0.0,0.0,0.0,0.0,0.0,0.0,0.0,0.0,0.0,0.0,0.0,0.0,0.0,0.0,0.0,3.7522,0.0,3.9776,3.9399,3.8264,3.6395,0.0,0.0,0.0,0.0,0.0,0.0,0.0,0.0,0.0,0.0,0.0,0.0,0.0,0.0,0.0,0.0,0.0,0.0,0.0,0.0,0.0,0.0,0.0,0.0,0.0,0.0,0.0,0.0,0.0,0.0,0.0,0.0,0.0,0.0,0.0,0.0,0.0,0.0,0.0,0.0,0.0,0.0,0.0,0.0,0.0,0.0,0.0,0.0,0.0,0.0,0.0,0.0,0.0,0.0,0.0,0.0,0.0,0.0,0.0,0.0,0.0,0.0,0.0,0.0,0.0,0.0,0.0,0.0,0.0,0.0,0.0,0.0,0.0,0.0,0.0,0.0,0.0,0.0,0.0,0.0,0.0,0.0,0.0,0.0,0.0,0.0,0.0,0.0,0.0,0.0,0.0,0.0,0.0,0.0,0.0,0.0,0.0,0.0,0.0,0.0,0.0,0.0,0.0,0.0,0.0,0.0,0.0,0.0,0.0,0.0,0.0,3.9315,3.7909,3.6136,0.0,0.0,0.0,0.0,0.0,0.0,0.0,0.0,0.0,0.0,0.0,0.0,0.0,0.0,0.0,0.0,0.0,0.0,0.0,0.0,0.0,0.0,0.0,0.0,0.0,0.0,0.0,0.0,0.0,0.0,0.0,0.0,0.0,0.0,0.0,0.0,0.0,0.0,0.0,0.0,0.0,0.0,0.0,0.0,0.0,0.0,0.0,0.0,0.0,0.0,0.0,0.0,0.0,0.0,0.0,0.0,0.0,0.0,0.0,0.0,0.0,0.0,0.0,0.0,0.0,0.0,0.0,0.0,0.0,0.0,0.0,0.0,0.0,0.0,0.0,0.0,0.0,0.0,0.0,0.0,0.0,0.0,0.0,0.0,0.0,0.0,0.0,0.0,0.0,0.0,0.0,0.0,0.0,0.0,0.0,0.0,0.0,0.0,0.0,0.0,0.0,0.0,0.0,0.0,0.0,0.0,0.0,0.0,0.0,0.0,0.0,3.7771,3.7662,3.5648,0.0,2.9022,0.0,0.0,0.0,0.0,0.0,0.0,0.0,0.0,0.0,0.0,0.0,0.0,0.0,0.0,0.0,0.0,0.0,0.0,0.0,0.0,0.0,0.0,0.0,0.0,0.0,0.0,0.0,0.0,0.0,0.0,0.0,0.0,0.0,0.0,0.0,0.0,0.0,0.0,0.0,0.0,0.0,0.0,0.0,0.0,0.0,0.0,0.0,0.0,0.0,0.0,0.0,0.0,0.0,0.0,0.0,0.0,0.0,0.0,0.0,0.0,0.0,0.0,0.0,0.0,0.0,0.0,0.0,0.0,0.0,0.0,0.0,0.0,0.0,0.0,0.0,0.0,0.0,0.0,0.0,0.0,0.0,0.0,0.0,0.0,0.0,0.0,0.0,0.0,0.0,0.0,0.0,0.0,0.0,0.0,0.0,0.0,0.0,0.0,0.0,0.0,0.0,0.0,0.0,0.0,0.0,0.0,0.0,0.0,0.0,0.0,0.0,0.0,3.5332,3.3548,3.1984,0.0,0.0,0.0,0.0,0.0,0.0,0.0,0.0,0.0,0.0,0.0,0.0,0.0,0.0,0.0,0.0,0.0,0.0,0.0,0.0,0.0,0.0,0.0,0.0,0.0,0.0,0.0,0.0,0.0,0.0,0.0,0.0,0.0,0.0,0.0,0.0,0.0,0.0,0.0,0.0,0.0,0.0,0.0,0.0,0.0,0.0,0.0,0.0,0.0,0.0,0.0,0.0,0.0,0.0,0.0,0.0,0.0,0.0,0.0,0.0,0.0,0.0,0.0,0.0,0.0,0.0,0.0,0.0,0.0,0.0,0.0,0.0,0.0,0.0,0.0,0.0,0.0,0.0,0.0,0.0,0.0,0.0,0.0,0.0,0.0,0.0,0.0,0.0,0.0,0.0,0.0,0.0,0.0,0.0,0.0,0.0,0.0,0.0,0.0,0.0,0.0,0.0,0.0,0.0,0.0,0.0,0.0,0.0,0.0,0.0,3.735,3.7109,3.5137,3.3836,3.3137,0.0,0.0,0.0,0.0,0.0,0.0,0.0,0.0,0.0,0.0,0.0,0.0,0.0,0.0,0.0,0.0,0.0,0.0,0.0,0.0,0.0,0.0,0.0,0.0,0.0,0.0,0.0,0.0,0.0,0.0,0.0,0.0,0.0,0.0,0.0,0.0,0.0,0.0,0.0,0.0,0.0,0.0,0.0,0.0,0.0,0.0,0.0,0.0,0.0,0.0,0.0,0.0,0.0,0.0,0.0,0.0,0.0,0.0,0.0,0.0,0.0,0.0,0.0,0.0,0.0,0.0,0.0,0.0,0.0,0.0,0.0,0.0,0.0,0.0,0.0,0.0,0.0,0.0,0.0,0.0,0.0,0.0,0.0,0.0,0.0,0.0,0.0,0.0,0.0,0.0,0.0,0.0,0.0,0.0,0.0,0.0,0.0,0.0,0.0,0.0,0.0,0.0,0.0,0.0,0.0,0.0,0.0,0.0,0.0,0.0,0.0,0.0,0.0,0.0,3.2896,0.0,0.0,0.0,0.0,0.0,0.0,0.0,0.0,0.0,0.0,0.0,0.0,0.0,0.0,0.0,0.0,0.0,0.0,0.0,0.0,0.0,0.0,0.0,0.0,0.0,0.0,0.0,0.0,0.0,0.0,0.0,0.0,0.0,0.0,0.0,0.0,0.0,0.0,0.0,0.0,0.0,0.0,0.0,0.0,0.0,0.0,0.0,0.0,0.0,0.0,0.0,0.0,0.0,0.0,0.0,0.0,0.0,0.0,0.0,0.0,0.0,0.0,0.0,0.0,0.0,0.0,0.0,0.0,0.0,0.0,0.0,0.0,0.0,0.0,0.0,0.0,0.0,0.0,0.0,0.0,0.0,0.0,0.0,0.0,0.0,0.0,0.0,0.0,0.0,0.0,0.0,0.0,0.0,0.0,0.0,0.0,0.0,0.0,0.0,0.0,0.0,0.0,0.0,0.0,0.0,0.0,0.0,0.0,0.0,0.0,0.0,0.0,0.0,0.0,0.0,0.0,0.0,0.0,0.0,0.0,0.0,0.0,0.0,0.0,0.0,0.0,0.0,0.0,0.0,0.0,0.0,0.0,0.0,0.0,0.0,0.0,0.0,0.0,0.0,0.0,0.0,0.0,0.0,0.0,0.0,0.0,0.0,0.0,0.0,0.0,0.0,0.0,0.0,0.0,0.0,0.0,0.0,0.0,0.0,0.0,0.0,0.0,0.0,0.0,0.0,0.0,0.0,0.0,0.0,0.0,0.0,0.0,0.0,0.0,0.0,0.0,0.0,0.0,0.0,0.0,0.0,0.0,0.0,0.0,0.0,0.0,0.0,0.0,0.0,0.0,0.0,0.0,0.0,0.0,0.0,0.0,0.0,0.0,0.0,0.0,0.0,0.0,0.0,0.0,0.0,0.0,0.0,0.0,0.0,0.0,0.0,0.0,0.0,0.0,0.0,0.0,0.0,0.0,0.0,0.0,0.0,0.0,0.0,0.0,0.0,0.0,0.0,0.0,0.0,0.0,0.0,0.0,0.0,0.0,0.0,0.0,0.0,0.0,0.0,0.0,0.0,0.0,0.0,0.0,0.0,0.0,0.0,0.0,0.0,0.0,0.0,0.0,0.0,0.0,0.0,0.0,0.0,0.0,0.0,0.0,0.0,0.0,0.0,0.0,0.0,0.0,0.0,0.0,0.0,0.0,0.0,0.0,0.0,0.0,0.0,0.0,0.0,0.0,0.0,0.0,0.0,0.0,0.0,0.0,0.0,0.0,0.0,0.0,0.0,0.0,0.0,0.0,0.0,0.0,0.0,0.0,0.0,0.0,0.0,0.0,0.0,0.0,0.0,0.0,0.0,0.0,0.0,0.0,0.0,0.0,0.0,0.0,0.0,0.0,0.0,0.0,0.0,0.0,0.0,0.0,0.0,0.0,0.0,0.0,0.0,0.0,0.0,0.0,0.0,0.0,0.0,0.0,0.0,0.0,0.0,0.0,0.0,0.0,0.0,0.0,0.0,0.0,0.0,0.0,0.0,0.0,0.0,0.0,0.0,0.0,0.0,0.0,0.0,0.0,0.0,0.0,0.0,0.0,0.0,0.0,0.0,0.0,0.0,0.0,0.0,0.0,0.0,0.0,0.0,0.0,0.0,0.0,0.0,0.0,0.0,0.0,0.0,0.0,0.0,0.0,0.0,0.0,0.0,0.0,0.0,0.0,0.0,0.0,0.0,0.0,0.0,0.0,0.0,0.0,0.0,0.0,0.0,0.0,0.0,0.0,0.0,0.0,0.0,0.0,0.0,0.0,0.0,0.0,0.0,0.0,0.0,0.0,0.0,0.0,0.0,0.0,0.0,0.0,0.0,0.0,0.0,0.0,0.0,0.0,0.0,0.0,0.0,0.0,0.0,0.0,0.0,0.0,0.0,0.0,0.0,0.0,0.0,0.0,0.0,0.0,0.0,0.0,0.0,0.0,0.0,0.0,0.0,0.0,0.0,0.0,0.0,0.0,0.0,0.0,0.0,0.0,0.0,0.0,0.0,0.0,0.0,0.0,0.0,0.0,0.0,0.0,0.0,0.0,0.0,0.0,0.0,0.0,0.0,0.0,0.0,0.0,0.0,0.0,0.0,0.0,0.0,0.0,0.0,0.0,0.0,0.0,0.0,0.0,0.0,0.0,0.0,0.0,0.0,0.0,0.0,0.0,0.0,0.0,0.0,0.0,0.0,0.0,0.0,0.0,0.0,0.0,0.0,0.0,0.0,0.0,0.0,0.0,0.0,0.0,0.0,0.0,0.0,0.0,0.0,0.0,0.0,0.0,0.0,0.0,0.0,0.0,0.0,0.0,0.0,0.0,0.0,0.0,0.0,0.0,0.0,0.0,0.0,0.0,0.0,0.0,0.0,0.0,0.0,0.0,0.0,0.0,0.0,0.0,0.0,0.0,0.0,0.0,0.0,0.0,0.0,0.0,0.0,0.0,0.0,0.0,0.0,0.0,0.0,0.0,0.0,0.0,0.0,0.0,0.0,0.0,0.0,0.0,0.0,0.0,0.0,0.0,0.0,0.0,0.0,0.0,0.0,0.0,0.0,0.0,0.0,0.0,0.0,0.0,0.0,0.0,0.0,0.0,0.0,0.0,0.0,0.0,0.0,0.0,0.0,0.0,0.0,0.0,0.0,0.0,0.0,0.0,0.0,0.0,0.0,0.0,0.0,0.0,0.0,0.0,0.0,0.0,0.0,0.0,0.0,0.0,0.0,0.0,0.0,0.0,0.0,0.0,0.0,0.0,0.0,0.0,0.0,0.0,0.0,0.0,0.0,0.0,0.0,0.0,0.0,0.0,0.0,0.0,0.0,0.0,0.0,0.0,0.0,0.0,0.0,0.0,0.0,0.0,0.0,0.0,0.0,0.0,0.0,0.0,0.0,0.0,0.0,0.0,0.0,0.0,0.0,0.0,0.0,0.0,0.0,0.0,0.0,0.0,0.0,0.0,0.0,0.0,0.0,0.0,0.0,0.0,0.0,0.0,0.0,0.0,0.0,0.0,0.0,0.0,0.0,0.0,0.0,0.0,0.0,0.0,0.0,0.0,0.0,0.0,0.0,0.0,0.0,0.0,0.0,0.0,0.0,0.0,0.0,0.0,0.0,0.0,0.0,0.0,0.0,0.0,0.0,0.0,0.0,0.0,0.0,0.0,0.0,0.0,0.0,0.0,0.0,0.0,0.0,0.0,0.0,0.0,0.0,0.0,0.0,0.0,0.0,0.0,0.0,0.0,0.0,0.0,0.0,0.0,0.0,0.0,0.0,0.0,0.0,0.0,0.0,0.0,0.0,0.0,0.0,0.0,0.0,0.0,0.0,0.0,0.0,0.0,0.0,0.0,0.0,0.0,0.0,0.0,0.0,0.0,0.0,0.0,0.0,0.0,0.0,0.0,0.0,0.0,0.0,0.0,0.0,0.0,0.0,0.0,0.0,0.0,0.0,0.0,0.0,0.0,0.0,0.0,0.0,0.0,0.0,0.0,0.0,0.0,0.0,0.0,0.0,0.0,0.0,0.0,0.0,0.0,0.0,0.0,0.0,0.0,0.0,0.0,0.0,0.0,0.0,0.0,0.0,0.0,0.0,0.0,0.0,0.0,0.0,0.0,0.0,0.0,0.0,0.0,0.0,0.0,0.0,0.0,0.0,0.0,0.0,0.0,0.0,0.0,0.0,0.0,0.0,0.0,0.0,0.0,0.0,0.0,0.0,0.0,0.0,0.0,0.0,0.0,0.0,0.0,0.0,0.0,0.0,0.0,0.0,0.0,0.0,0.0,0.0,0.0,0.0,0.0,0.0,0.0,0.0,0.0,0.0,0.0,0.0,0.0,0.0,0.0,0.0,0.0,0.0,0.0,0.0,0.0,0.0,0.0,0.0,0.0,0.0,0.0,0.0,0.0,0.0,0.0,0.0,0.0,0.0,0.0,0.0,0.0,0.0,0.0,0.0,0.0,0.0,0.0,0.0,0.0,0.0,0.0,0.0,0.0,0.0,0.0,0.0,0.0,0.0,0.0,0.0,0.0,0.0,0.0,0.0,0.0,0.0,0.0,0.0,0.0,0.0,0.0,0.0,0.0,0.0,0.0,0.0,0.0,0.0,0.0,0.0,0.0,0.0,0.0,0.0,0.0,0.0,0.0,0.0,0.0,0.0,0.0,0.0,0.0,0.0,0.0,0.0,0.0,0.0,0.0,0.0,0.0,0.0,0.0,0.0,0.0,0.0,0.0,0.0,0.0,0.0,0.0,0.0,0.0,0.0,0.0,0.0,0.0,0.0,0.0,0.0,0.0,0.0,0.0,0.0,0.0,0.0,0.0,0.0,0.0,0.0,0.0,0.0,0.0]}],[{"header":{"parameterUnit":"kt","parameterCategory":2,"dx":1,"dy":1,"la1":29.587661999999998,"la2":31.0,"lo1":-88.76705300000003,"lo2":-86.6583820000003,"nx":115,"ny":88,"refTime":"2022-10-03T06:00:00:Z","depth":0,"parameterNumber":2,"parameterNumberName":"V-component_of_WINDS"},"data":[7.6429,7.6429,7.6429,7.6429,7.6429,7.6429,7.6429,7.6429,7.6429,7.6429,7.6113,7.548,7.5427,7.6377,7.6429,7.6111,7.5432,7.5503,7.5092,7.4523,7.4133,7.3876,7.3265,7.21,7.1625,7.0886,7.0197,7.0282,7.1755,7.1487,7.1364,7.2096,7.108,7.0521,7.0492,7.0013,6.981,6.9607,6.9171,6.8642,6.8692,6.8307,6.7879,6.6812,6.5765,6.5359,6.48,6.4018,6.3682,6.283,6.1307,5.8815,5.6668,5.4845,5.4251,5.3928,5.4326,5.5346,5.6707,5.7514,5.8298,5.8911,5.976,6.0506,6.0613,6.0799,6.0766,6.0777,6.0827,6.1086,6.152,6.1907,6.2427,6.3168,6.3642,6.4063,6.4391,6.4253,6.4031,6.4004,6.4004,6.3837,6.3671,6.3532,6.3532,6.3532,6.3532,6.3532,6.3532,6.392,6.428,6.5186,6.6221,6.7892,7.0426,7.3842,7.6303,7.9312,8.197,8.4043,8.611,8.82,8.8928,8.9406,9.0021,9.0558,9.1533,9.2509,9.3711,9.4913,9.5011,9.5108,9.5792,9.6182,9.6182,7.6429,7.6429,7.6429,7.6429,7.6429,7.6429,7.6429,7.6429,7.6429,7.6429,7.6324,7.6218,7.6218,7.6377,7.6408,7.6312,7.6182,7.5922,7.5531,7.5036,7.4817,7.4272,7.3748,7.3468,7.3113,7.2638,7.2388,7.2885,7.3236,7.3011,7.2757,7.304,7.2481,7.1668,7.1385,7.0928,7.0521,7.0521,7.0166,6.9535,6.8997,6.8561,6.7443,6.6304,6.5288,6.4749,6.4088,6.358,6.3561,6.2239,6.0121,5.7306,5.4891,5.3569,5.3183,5.3737,5.4156,5.5493,5.7067,5.8086,5.8892,5.9802,6.0736,6.1221,6.1221,6.1291,6.1291,6.1258,6.1258,6.1506,6.2009,6.2501,6.3127,6.3745,6.4149,6.4542,6.4722,6.486,6.4639,6.4487,6.4349,6.4087,6.3865,6.3588,6.3532,6.3532,6.3532,6.3532,6.4097,6.5561,6.6804,6.7736,7.0063,7.2002,7.3712,7.6195,7.8102,8.1126,8.4085,8.6197,8.8058,8.8901,8.9611,9.0021,9.046,9.0997,9.1875,9.2753,9.4315,9.5761,9.5517,9.5206,9.5712,9.5858,9.6036,7.6429,7.6429,7.6429,7.6429,7.6429,7.6429,7.6429,7.6429,7.6429,7.6429,7.6429,7.6429,7.6429,7.6429,7.6429,7.6247,7.5901,7.5727,7.5226,7.4729,7.4287,7.4072,7.3894,7.3621,7.3694,7.3694,7.3694,7.3694,7.3592,7.3694,7.3694,7.3519,7.3316,7.2887,7.2786,7.2503,7.2176,7.1973,7.1436,7.0623,6.9658,6.8866,6.7646,6.6223,6.5136,6.412,6.3307,6.2259,6.2055,6.0804,5.9931,5.697,5.5093,5.3319,5.3119,5.3669,5.441,5.5513,5.7383,5.8638,5.9293,6.033,6.1305,6.1348,6.1408,6.1408,6.1408,6.1408,6.1408,6.1408,6.1919,6.2842,6.3518,6.4046,6.4446,6.4902,6.5218,6.5328,6.5135,6.4956,6.4762,6.4485,6.3961,6.3683,6.3847,6.3931,6.6086,6.6501,6.7554,6.883,6.9776,7.1268,7.5543,7.803,7.81,7.911,8.0659,8.3126,8.613,8.768,8.8843,8.9602,9.0021,9.0021,9.0314,9.1143,9.2002,9.2783,9.4199,9.5809,9.5712,9.5273,9.5273,9.537,9.5565,7.6429,7.6429,7.6429,7.6429,7.6429,7.6429,7.6429,7.6429,7.6429,7.6429,7.6429,7.6429,7.6429,7.6365,7.6225,7.6009,7.5588,7.5357,7.4765,7.4324,7.411,7.3932,7.3694,7.3694,7.3694,7.3694,7.3694,7.3694,7.3694,7.3694,7.3694,7.3694,7.357,7.3468,7.3468,7.3468,7.3265,7.3163,7.2554,7.1639,7.0267,6.92,6.8184,6.6558,6.4952,6.3764,6.2951,6.1649,6.0785,6.0412,6.032,5.9354,5.7789,5.5441,5.4448,5.4436,5.4772,5.6279,5.7831,5.8765,5.9632,6.0711,6.139,6.1365,6.1408,6.1408,6.1408,6.1408,6.1408,6.1408,6.1732,6.2856,6.376,6.4278,6.4721,6.5265,6.5752,6.567,6.5602,6.5451,6.5244,6.4761,6.4125,6.3958,6.415,6.5656,6.7847,6.9446,7.0252,7.326,7.447,7.6549,8.0797,8.1775,8.2083,8.2668,8.3905,8.6141,8.7301,8.8454,8.9719,8.9923,9.0021,9.0021,9.0265,9.1338,9.2217,9.293,9.3955,9.5517,9.5761,9.5419,9.5321,9.5175,9.5273,7.6429,7.6429,7.6429,7.6429,7.6429,7.6429,7.6429,7.6429,7.6429,7.6429,7.6429,7.6429,7.6429,7.6312,7.6052,7.5783,7.5414,7.516,7.4721,7.4236,7.4066,7.3888,7.3738,7.3694,7.3694,7.3694,7.3694,7.3694,7.3694,7.3694,7.3694,7.3694,7.3694,7.3694,7.3694,7.3694,7.3671,7.357,7.304,7.2227,7.0725,6.981,6.9069,6.6965,6.5085,6.358,6.3072,6.2004,6.0665,6.0835,6.072,6.0274,5.9405,5.8136,5.6176,5.5658,5.5507,5.6861,5.8062,5.8722,5.976,6.0711,6.1408,6.1408,6.1408,6.1408,6.1408,6.1408,6.1408,6.1408,6.1942,6.2934,6.3771,6.4332,6.52,6.6017,6.634,6.6286,6.6177,6.6111,6.6058,6.621,6.5626,6.5845,6.6205,6.7848,6.9697,7.1163,7.3614,7.8283,8.0049,8.1663,8.3174,8.34,8.3964,8.5036,8.6618,8.7541,8.8158,8.9074,8.9777,8.9972,9.0021,9.0021,9.007,9.1241,9.2412,9.2851,9.376,9.5224,9.5809,9.5468,9.5304,9.5108,9.5157,7.6429,7.6429,7.6429,7.6429,7.6429,7.6429,7.6429,7.6429,7.6429,7.6429,7.6429,7.6429,7.6429,7.6355,7.6161,7.577,7.5313,7.5058,7.4619,7.411,7.3894,7.3805,7.3761,7.3694,7.3694,7.3694,7.3694,7.3694,7.3694,7.3694,7.3694,7.3694,7.3694,7.3694,7.3694,7.3694,7.3694,7.3468,7.3011,7.2147,7.0979,6.9861,6.9099,6.7605,6.5796,6.4882,6.4424,6.3256,6.2595,6.257,6.2487,6.1612,5.978,6.0432,5.9326,5.7168,5.6626,5.6946,5.8274,5.8722,5.9802,6.0839,6.1408,6.1408,6.1408,6.1408,6.1408,6.1408,6.1408,6.156,6.2264,6.2994,6.3699,6.4405,6.558,6.6731,6.6831,6.6831,6.6806,6.6754,6.69,6.721,6.7725,6.7961,6.8748,7.0994,7.2787,7.4251,7.7559,8.131,8.2993,8.3928,8.4269,8.4877,8.5818,8.6757,8.7903,8.8684,8.9074,8.9318,8.9728,9.0021,9.0021,9.0021,9.0021,9.1289,9.2704,9.3125,9.3613,9.4833,9.5712,9.5596,9.545,9.5206,9.5011,7.6429,7.6429,7.6429,7.6429,7.6429,7.6429,7.6429,7.6429,7.6429,7.6429,7.6429,7.6429,7.6429,7.6408,7.6225,7.5662,7.5256,7.4817,7.4309,7.4006,7.3761,7.3716,7.3694,7.3694,7.3694,7.3694,7.3694,7.3694,7.3694,7.3694,7.3694,7.3694,7.3694,7.3694,7.3694,7.3694,7.3694,7.3519,7.3062,7.2147,7.1029,6.9963,6.8845,6.7676,6.5969,6.5359,6.4536,6.3411,6.2762,6.2666,6.2639,6.2149,6.0001,6.0688,6.0929,5.8666,5.7334,5.6753,5.8298,5.8722,5.9505,6.0966,6.1365,6.1408,6.1408,6.1408,6.1408,6.1408,6.1408,6.1408,6.1857,6.3036,6.4039,6.4889,6.5872,6.6697,6.6967,6.7009,6.7306,6.7214,6.7194,6.7795,6.9815,7.0424,7.2272,7.4684,7.6679,7.8155,8.0505,8.2611,8.4111,8.4388,8.4953,8.5971,8.6996,8.7707,8.883,8.9708,8.9728,8.9826,9.0021,9.0021,9.0021,9.0021,9.0021,9.1094,9.2686,9.3467,9.3906,9.4931,9.5743,9.5694,9.5596,9.5255,9.5029,7.6429,7.6429,7.6429,7.6429,7.6429,7.6429,7.6429,7.6429,7.6429,7.6429,7.6429,7.6429,7.6429,7.629,7.5913,7.5531,7.5146,7.4677,7.4243,7.3843,7.3828,7.3694,7.3694,7.3694,7.3694,7.3694,7.3694,7.3694,7.3694,7.3694,7.3694,7.3694,7.3694,7.3694,7.3694,7.3621,7.3525,7.3357,7.2929,7.2052,7.0648,6.9873,6.8797,6.7471,6.6154,6.5475,6.4403,6.3216,6.2408,6.1748,6.1206,6.0992,6.0444,5.9737,5.9104,5.8226,5.7026,5.7373,5.8388,5.885,5.9851,6.1685,6.1614,6.1408,6.1408,6.1408,6.1408,6.1408,6.1283,6.1333,6.1485,6.2739,6.4089,6.5102,6.6026,6.6566,6.6879,6.7263,6.756,6.8216,6.8253,7.0191,7.2456,7.3904,7.5652,7.7757,7.9294,8.0798,8.1883,8.3965,8.4577,8.4904,8.5804,8.6947,8.7707,8.8371,8.922,8.9826,8.9972,9.0021,9.0021,9.0021,9.0021,9.0021,9.0021,9.0558,9.1826,9.29,9.3924,9.4833,9.5645,9.5743,9.5792,9.545,9.5273,7.6429,7.6429,7.6429,7.6429,7.6429,7.6429,7.6429,7.6429,7.6429,7.6429,7.6429,7.6429,7.6429,7.6312,7.6161,7.5879,7.5414,7.5174,7.4853,7.4081,7.4066,7.3843,7.3716,7.3694,7.3694,7.3694,7.3694,7.3694,7.3694,7.3694,7.3694,7.3694,7.3694,7.3694,7.3694,7.3525,7.3278,7.2672,7.2859,7.2091,7.0259,6.9225,6.863,6.7337,6.6272,6.5325,6.4308,6.3463,6.2712,6.2219,6.1901,6.188,6.0894,6.0433,6.0519,5.8293,5.7111,5.8135,5.876,5.9181,6.1309,6.311,6.201,6.1557,6.1408,6.1614,6.1607,6.1308,6.1059,6.1159,6.1435,6.1843,6.316,6.4549,6.5474,6.6412,6.6855,6.7414,6.789,7.0032,7.0994,7.4188,7.6905,7.7915,7.8646,8.0202,8.1684,8.2463,8.3271,8.4263,8.4974,8.556,8.641,8.7532,8.8439,8.8956,8.9416,8.9923,9.0021,9.0021,9.0021,9.0021,9.0021,9.0021,9.0021,9.0265,9.1289,9.246,9.3875,9.4931,9.5645,9.5889,9.5889,9.5987,9.6053,7.6429,7.6429,7.6429,7.6429,7.6429,7.6429,7.6429,7.6429,7.6429,7.6429,7.6429,7.6429,7.6429,7.6429,7.6365,7.6096,7.5631,7.5523,7.5064,7.428,7.4066,7.3866,7.3761,7.3694,7.3694,7.3694,7.3694,7.3694,7.3694,7.3694,7.3694,7.3694,7.3694,7.3694,7.3671,7.3548,7.3002,7.1977,7.2198,7.187,6.9583,6.9097,6.8561,6.7314,6.6365,6.5087,6.3514,6.2836,6.1594,6.0403,5.9841,5.965,5.8711,5.8997,5.9194,5.7472,5.7185,5.8219,5.8609,6.1537,6.3439,6.4414,6.4537,6.3637,6.2553,6.2479,6.1855,6.1408,6.0902,6.1358,6.1652,6.2071,6.3512,6.481,6.55,6.6439,6.7542,6.8045,6.9377,7.1589,7.2336,7.4847,7.8637,8.0119,8.1021,8.243,8.2648,8.3325,8.3656,8.4437,8.5462,8.6118,8.7073,8.8195,8.9025,8.9416,8.9826,9.0021,9.0021,9.0021,9.0021,9.0021,9.0021,9.0021,9.0021,9.007,9.0997,9.207,9.3631,9.5029,9.5761,9.6231,9.6182,9.6249,9.6395,7.6429,7.6429,7.6429,7.6324,7.6103,7.6324,7.6271,7.6197,7.6324,7.6429,7.6429,7.6429,7.6429,7.6429,7.6429,7.6182,7.5792,7.54,7.4897,7.4457,7.4199,7.3828,7.3716,7.3694,7.3694,7.3694,7.3694,7.3694,7.3694,7.3694,7.3694,7.3694,7.3671,7.357,7.3548,7.357,7.2938,7.2132,7.2675,7.1435,6.9677,6.8982,6.8247,6.7159,6.6113,6.4689,6.2959,6.1961,6.0855,5.9597,5.8936,5.8514,5.7795,5.8222,5.7773,5.6825,5.7487,5.7804,5.8196,6.4102,6.6635,6.7291,6.6602,6.591,6.4924,6.4367,6.3901,6.272,6.1851,6.2175,6.2314,6.2787,6.4744,6.6096,6.6516,6.7339,6.8878,6.9888,7.1958,7.4099,7.3865,7.444,7.8971,8.22,8.3102,8.3184,8.345,8.3684,8.383,8.466,8.5825,8.6703,8.7756,8.8781,8.9513,8.9874,9.0021,9.0021,9.0021,9.0021,9.0021,9.0021,9.0021,9.0021,9.0021,9.0021,9.0753,9.168,9.2783,9.3955,9.5175,9.6395,9.6395,9.6395,9.6395,7.6429,7.6429,7.6429,7.5576,7.4484,7.4953,7.5195,7.53,7.5986,7.6429,7.6429,7.6429,7.6429,7.6429,7.6386,7.6161,7.6096,7.5901,7.5422,7.4919,7.4508,7.4199,7.3872,7.3694,7.3694,7.3694,7.3694,7.3694,7.3694,7.3694,7.3694,7.3694,7.3621,7.3113,7.2583,7.1647,7.0908,7.0439,7.0584,6.9692,6.8311,6.7806,6.7189,6.704,6.5748,6.4175,6.247,6.114,6.0238,5.996,5.9985,6.0209,6.0725,6.088,6.0422,5.9959,5.9878,6.0458,6.2235,6.5798,6.8629,6.8934,6.8256,6.7361,6.6674,6.6316,6.5926,6.4695,6.4834,6.5411,6.6071,6.5942,6.712,6.9133,6.9384,6.9776,7.1208,7.2187,7.4299,7.6262,7.7544,7.8311,8.1685,8.2911,8.2911,8.174,8.2179,8.2714,8.3415,8.4681,8.5922,8.6996,8.8147,8.9025,8.9874,8.9923,9.0021,9.0021,9.0021,9.0021,9.0021,9.0021,9.0021,9.0021,9.0021,9.0021,9.0753,9.1875,9.2588,9.3125,9.4687,9.6395,9.6395,9.6395,9.6395,7.5396,7.5523,7.5164,7.434,7.3309,7.4245,7.4647,7.4805,7.588,7.5966,7.4845,7.4067,7.4067,7.4706,7.4977,7.537,7.629,7.6225,7.5618,7.519,7.4751,7.4287,7.3961,7.3694,7.3643,7.3694,7.3694,7.3694,7.3671,7.3694,7.3694,7.3694,7.3694,7.2887,7.2176,7.1443,7.0393,6.9897,6.9913,6.9727,6.8454,6.8026,6.8001,6.7648,6.6208,6.3678,6.1799,6.0683,6.0363,6.0411,6.0994,6.1786,6.2582,6.2742,6.2399,6.1894,6.2204,6.284,6.4407,6.7663,7.0326,7.0372,6.9608,6.8701,6.8115,6.8397,6.8039,6.7357,6.6951,6.7615,6.8327,6.8624,6.9845,7.1991,7.3073,7.3313,7.4007,7.4582,7.6195,7.7867,7.9667,8.1086,8.2344,8.3559,8.1987,8.0504,8.1113,8.1898,8.3272,8.4584,8.563,8.6752,8.7882,8.8859,8.9777,8.9972,8.9972,9.0021,9.0021,9.0021,9.0021,9.0021,9.0021,9.0021,9.0021,9.0021,9.0606,9.1973,9.2881,9.3369,9.4589,9.6005,9.6346,9.6395,9.6395,7.3648,7.3906,7.3086,7.2673,7.2725,7.395,7.4351,7.4193,7.5564,7.4797,7.2555,7.0784,7.1188,7.1914,7.249,7.3407,7.5518,7.5379,7.4554,7.414,7.4222,7.354,7.3137,7.2982,7.3214,7.3367,7.3265,7.3417,7.3649,7.3694,7.3694,7.3694,7.3694,7.2887,7.1973,7.1487,7.0711,6.9493,7.0385,7.0453,7.0209,6.9797,6.9931,6.8943,6.6463,6.3484,6.1063,6.1242,6.1289,6.0881,6.1968,6.3149,6.4756,6.462,6.446,6.4299,6.4666,6.5453,6.6591,6.9519,7.163,7.2024,7.1736,7.1156,7.0567,7.0815,6.9886,6.8648,6.9629,7.0213,7.0281,7.0299,7.2319,7.4407,7.5965,7.6575,7.7554,7.7891,7.8411,7.9706,8.0754,8.1823,8.302,8.3477,8.2316,8.0588,8.092,8.1987,8.3305,8.3767,8.499,8.6557,8.7707,8.8586,8.9533,9.0021,9.0021,9.0021,9.0021,9.0021,9.0021,9.0021,9.0021,9.0021,9.0021,9.0021,9.0265,9.1485,9.2558,9.3369,9.4199,9.5175,9.5663,9.5419,9.5468,7.2493,7.1619,7.1075,7.0892,7.0906,7.1645,7.199,7.2274,7.4088,7.3386,7.1442,7.094,7.0154,6.964,6.9397,6.9891,7.0483,7.1154,7.1059,7.1158,7.1424,7.1698,7.1421,7.1284,7.1639,7.235,7.2452,7.2808,7.3316,7.3519,7.3417,7.3694,7.3468,7.2554,7.1436,7.1233,7.0856,6.8997,7.0013,7.0791,7.1002,7.0432,7.0247,6.9655,6.844,6.6735,6.5612,6.4451,6.5013,6.4888,6.5323,6.6018,6.7674,6.7172,6.6639,6.6941,6.7246,6.8136,6.9627,7.0487,7.1083,7.1675,7.2067,7.2981,7.315,7.3592,7.3049,7.2303,7.2946,7.362,7.4473,7.528,7.6217,7.7281,7.8628,8.0223,8.1392,8.1206,8.1589,8.196,8.2125,8.2966,8.3048,8.3477,8.2638,8.0865,8.1058,8.2152,8.2604,8.2735,8.4344,8.6529,8.7386,8.7923,8.9094,9.0021,9.0021,9.0021,9.0021,9.0021,9.0021,9.0021,9.0021,9.0021,9.0021,9.0021,9.0021,9.1045,9.1991,9.2607,9.332,9.4296,9.4687,9.4101,9.4071,7.0939,7.0072,6.9152,6.9152,6.969,6.9085,6.9263,7.0107,7.1103,7.0008,6.7982,6.8254,6.707,6.5261,6.6058,6.6893,6.8047,6.8833,6.8687,6.8592,6.957,7.0012,6.954,6.9918,7.0348,7.1211,7.1668,7.2147,7.1944,7.2096,7.2503,7.2706,7.2757,7.2096,7.1414,7.116,7.0348,6.9759,6.9505,7.0241,7.1111,7.1275,7.1147,7.1114,6.9277,6.7978,6.6986,6.5939,6.6408,6.7148,6.7954,6.8574,6.9807,6.9772,6.9052,6.9472,6.9785,7.078,7.2106,7.2134,7.2421,7.2685,7.3099,7.383,7.4467,7.4791,7.499,7.5063,7.5824,7.6164,7.6528,7.7823,7.9066,8.0135,8.0519,8.1807,8.2686,8.3412,8.3586,8.3586,8.3559,8.345,8.3423,8.3477,8.272,8.1437,8.152,8.1932,8.1877,8.2344,8.424,8.6152,8.6575,8.7236,8.857,8.9513,8.9367,8.9532,8.9532,8.9591,8.9738,8.9914,9.0021,9.0021,9.0021,9.0021,9.007,9.0753,9.1504,9.1991,9.2412,9.3192,9.3857,9.332,9.3241,6.9394,6.9277,6.7609,6.7709,6.8591,6.6716,6.6663,6.7951,6.7791,6.6014,6.4038,6.3872,6.2833,6.1388,6.2628,6.4549,6.59,6.6361,6.621,6.5901,6.7147,6.7706,6.7996,6.911,6.9057,7.0064,7.0928,7.0877,7.0521,7.042,7.0928,7.1821,7.2075,7.1741,7.1284,7.108,7.0369,7.0043,6.9505,6.9974,7.142,7.2345,7.2334,7.1671,7.0198,6.8685,6.7672,6.7026,6.6612,6.7052,6.8151,6.9337,7.0501,7.0765,7.0765,7.1182,7.1794,7.2747,7.3431,7.3528,7.3503,7.3527,7.4016,7.4041,7.4626,7.5212,7.5873,7.5848,7.6506,7.697,7.719,7.8141,7.9115,8.0214,8.134,8.2441,8.332,8.3586,8.3586,8.3586,8.3586,8.3586,8.3586,8.3314,8.2966,8.2234,8.163,8.1354,8.1437,8.2666,8.4312,8.4641,8.5037,8.6482,8.7758,8.8401,8.8564,8.8896,8.8896,8.8925,8.9102,8.9308,8.9562,8.9249,9.0021,9.0021,9.007,9.0411,9.1065,9.1406,9.1485,9.21,9.2832,9.2802,9.2558,6.9394,6.9257,6.7589,6.7065,6.7025,6.5293,6.4705,6.5194,6.581,6.4509,6.2312,6.2681,6.1806,6.0294,6.0248,6.068,6.1087,6.2433,6.2576,6.2597,6.3612,6.4766,6.5181,6.5796,6.6857,6.8636,6.9332,6.915,6.9048,6.9556,7.0674,7.1465,7.1821,7.1538,7.0979,7.108,7.0877,7.0725,7.0775,7.1871,7.2717,7.2983,7.2679,7.1997,7.1702,7.0321,6.8715,6.7878,6.7575,6.7621,6.7926,6.8673,7.0349,7.0742,7.1159,7.1819,7.2185,7.287,7.3578,7.3992,7.4212,7.4261,7.4798,7.5164,7.5506,7.6018,7.6751,7.6897,7.7141,7.719,7.7458,7.8164,7.9189,8.0311,8.1438,8.2419,8.3222,8.3586,8.3586,8.3586,8.3586,8.3586,8.3586,8.3396,8.3341,8.2693,8.2611,8.2152,8.0782,8.2179,8.2557,8.2915,8.3722,8.5249,8.652,8.7093,8.7687,8.7901,8.7872,8.7872,8.8168,8.8866,8.7587,8.6902,8.7812,8.8601,8.9738,9.0245,9.044,9.0508,9.0528,9.085,9.1485,9.168,9.168,6.9394,6.9119,6.661,6.604,6.6122,6.3127,6.2004,6.2716,6.2527,6.1551,6.0671,6.0659,6.0227,5.9404,5.9091,5.9091,5.9226,5.975,5.968,5.9766,6.0633,6.1966,6.344,6.4119,6.5657,6.7123,6.7757,6.7778,6.7829,6.8387,6.9425,7.0674,7.108,7.1131,7.1059,7.111,7.0906,7.0928,7.0623,7.1262,7.3328,7.2473,7.2256,7.173,7.1151,7.0257,6.9005,6.7927,6.6935,6.6816,6.6412,6.7361,6.8561,6.9358,6.9885,7.1391,7.2517,7.37,7.5115,7.5457,7.5408,7.5481,7.5969,7.6336,7.6531,7.6751,7.7092,7.7141,7.719,7.7311,7.7799,7.8871,7.9921,8.1021,8.2121,8.2978,8.3445,8.3537,8.3586,8.3586,8.3586,8.3586,8.3586,8.3586,8.3586,8.3586,8.3559,8.207,8.0171,8.0365,8.0393,8.0753,8.1191,8.3108,8.5067,8.5939,8.6782,8.6692,8.6633,8.6603,8.7051,8.8719,8.7872,8.5187,8.5127,8.5896,8.7051,8.8423,8.9209,8.9669,9.0021,9.0314,9.0479,9.0626,9.0753,6.9394,6.9119,6.5572,6.4984,6.5507,6.0979,5.9677,6.0547,5.9569,5.8735,5.8801,5.8801,5.8956,5.8735,5.8713,5.8757,5.867,5.8581,5.8404,5.8492,5.8691,5.9939,6.1666,6.279,6.4536,6.5958,6.6345,6.6629,6.6843,6.6965,6.8256,6.9535,6.9912,7.0267,7.0623,7.0957,7.1059,7.0979,7.0805,7.1349,7.2568,7.1849,7.0869,7.0939,6.9957,6.9029,6.8162,6.6245,6.4803,6.4779,6.4319,6.5044,6.6029,6.6366,6.7955,7.0274,7.2156,7.4044,7.6309,7.6995,7.7141,7.719,7.7092,7.7092,7.7141,7.719,7.719,7.719,7.7214,7.7458,7.8408,7.9092,8.0386,8.1535,8.2392,8.3222,8.3515,8.3586,8.3586,8.3586,8.3586,8.3586,8.3586,8.3586,8.3586,8.3586,8.3559,8.2344,7.992,7.8838,7.8388,7.8387,7.8884,8.1221,8.3225,8.4095,8.4657,8.4248,8.475,8.4719,8.6393,8.8227,8.7247,8.3579,8.2446,8.3457,8.4673,8.5986,8.7051,8.8257,8.9161,9.0021,9.0167,9.0314,9.0314,6.9394,6.91,6.5622,6.43,6.3904,6.046,5.8955,5.9175,5.8779,5.8713,5.8713,5.8713,5.8713,5.8713,5.8691,5.8713,5.858,5.8293,5.8004,5.7871,5.7493,5.8359,5.985,6.1251,6.27,6.4383,6.4715,6.5548,6.6417,6.6965,6.7625,6.8662,6.8916,6.9221,6.9679,7.0521,7.108,7.0703,7.1219,7.2406,7.2502,7.0833,6.9522,6.9306,6.8397,6.755,6.6173,6.4201,6.2663,6.2676,6.2189,6.2165,6.2344,6.2676,6.4572,7.0255,7.1005,7.3131,7.5833,7.7016,7.719,7.719,7.719,7.719,7.719,7.719,7.719,7.719,7.7239,7.7311,7.7483,7.8629,7.9602,8.0604,8.1633,8.2587,8.332,8.3586,8.3586,8.3586,8.3586,8.3586,8.3586,8.3586,8.3586,8.3586,8.3428,8.2426,7.9417,7.7399,7.6071,7.5676,7.7116,7.9207,7.9904,8.0651,8.1064,8.1286,8.2446,8.3457,8.5173,8.5445,8.4218,8.115,7.9968,8.1305,8.2569,8.3518,8.4794,8.6556,8.7812,8.9131,8.9708,8.9943,9.007,6.9394,6.9041,6.5622,6.4133,6.3548,6.0308,5.8713,5.8713,5.8713,5.8713,5.8713,5.8713,5.8713,5.8713,5.8514,5.8404,5.8293,5.7938,5.7582,5.7202,5.6711,5.7315,5.8887,5.976,6.0346,6.138,6.3106,6.4445,6.5528,6.6345,6.7422,6.854,6.8662,6.8561,6.8967,6.9505,6.9882,6.9789,7.0214,7.1088,7.1709,7.0518,6.9531,6.8489,6.6245,6.4851,6.4003,6.1819,6.0817,6.0443,6.0067,5.9791,5.9841,6.0917,6.2959,6.67,6.8781,7.2199,7.4429,7.6099,7.7091,7.719,7.719,7.719,7.719,7.719,7.719,7.719,7.7239,7.7483,7.7995,7.8871,8.0019,8.1118,8.217,8.3027,8.3467,8.3586,8.3586,8.3586,8.3586,8.3586,8.3586,8.3586,8.345,8.2316,8.2207,8.0754,7.7795,7.5886,7.4373,7.3764,7.5296,7.6366,7.6873,7.7449,7.8002,7.9009,8.0193,8.1769,8.2354,8.1645,8.1119,7.9292,7.7346,7.8757,7.9937,8.0778,8.1892,8.4188,8.6376,8.8139,8.9131,8.922,8.9415,6.8574,6.8376,6.4852,6.3395,6.2916,6.0134,5.8713,5.8713,5.8713,5.8713,5.8691,5.8602,5.8558,5.8581,5.8138,5.7938,5.7893,5.7582,5.709,5.6596,5.6148,5.6957,5.7762,5.805,5.8403,5.9608,6.2127,6.3688,6.4611,6.6018,6.7371,6.8083,6.8083,6.8214,6.8256,6.8591,6.86,6.8454,6.8444,6.9448,7.0576,6.9966,6.8961,6.8068,6.4924,6.2829,6.1837,6.0058,5.8974,5.8822,5.866,5.8584,5.8746,5.9841,6.1556,6.3818,6.7094,7.0001,7.2362,7.4691,7.6371,7.6917,7.719,7.719,7.719,7.719,7.719,7.719,7.719,7.7483,7.8141,7.9456,8.0432,8.1362,8.2561,8.3537,8.3586,8.3586,8.3586,8.3586,8.3586,8.3586,8.3586,8.3586,8.2857,8.1279,8.0059,7.8613,7.6699,7.472,7.3283,7.1905,7.3265,7.4234,7.4796,7.5553,7.6168,7.701,7.824,7.9574,7.8442,7.7663,7.7821,7.6783,7.5416,7.592,7.7187,7.8095,7.9656,8.2231,8.4613,8.6256,8.7664,8.8375,8.8719,6.6082,6.6123,6.2551,6.1015,6.0843,5.9393,5.8669,5.8691,5.8713,5.8713,5.8624,5.8337,5.8249,5.816,5.7693,5.7426,5.7404,5.7248,5.6912,5.6509,5.6194,5.6146,5.6598,5.6643,5.7271,5.8623,6.0627,6.2382,6.3918,6.5774,6.6873,6.7168,6.7148,6.7097,6.7371,6.8062,6.8261,6.807,6.8435,6.9132,6.9308,6.8389,6.751,6.7012,6.4744,6.3213,6.1248,5.9656,5.8431,5.8406,5.8329,5.8304,5.8329,5.838,5.9966,6.251,6.3915,6.6935,7.1252,7.2643,7.4047,7.6594,7.7115,7.719,7.719,7.719,7.719,7.719,7.719,7.7288,7.7702,7.9066,8.0064,8.0822,8.2414,8.3391,8.3586,8.3586,8.3586,8.3586,8.351,8.3586,8.3586,8.3559,8.3211,8.0199,7.979,7.805,7.5813,7.3778,7.2082,7.0854,7.1275,7.2139,7.2948,7.3775,7.4428,7.5206,7.6461,7.6932,7.5824,7.548,7.5126,7.4941,7.4877,7.5102,7.5448,7.64,7.7885,7.9968,8.1769,8.3792,8.5986,8.72,8.8375,6.5622,6.5408,6.1829,6.0327,6.0132,5.8911,5.8359,5.8426,5.858,5.8713,5.8624,5.8293,5.8137,5.8049,5.7269,5.6933,5.6845,5.6643,5.6441,5.6171,5.6078,5.6011,5.6011,5.6011,5.6374,5.7316,5.8997,6.0821,6.2636,6.4425,6.5835,6.6681,6.6843,6.6843,6.6894,6.7218,6.7153,6.7127,6.7456,6.7791,6.7905,6.7326,6.6503,6.4839,6.4166,6.2327,5.9975,5.8797,5.8304,5.8304,5.8304,5.8304,5.8304,5.8304,5.8924,6.0099,6.2046,6.4792,6.8783,7.0236,7.2519,7.5944,7.5706,7.5909,7.6889,7.719,7.719,7.719,7.719,7.719,7.7311,7.7872,7.8968,8.0162,8.1731,8.2907,8.3537,8.3586,8.3586,8.3184,8.2501,8.185,8.3504,8.0809,7.9725,7.9249,7.8866,7.6813,7.4966,7.2786,7.0972,7.0033,6.9938,7.0628,7.1385,7.2264,7.3013,7.374,7.4793,7.531,7.478,7.4651,7.4521,7.4521,7.44,7.44,7.4618,7.5158,7.6496,7.7726,7.882,8.1026,8.4507,8.6722,8.7931,6.4479,6.4189,6.0674,5.9152,5.8998,5.8293,5.7916,5.7938,5.8182,5.8293,5.8227,5.7916,5.7649,5.7604,5.6799,5.6396,5.6351,5.6126,5.6011,5.6011,5.6011,5.6011,5.6011,5.6011,5.6056,5.6441,5.8579,6.0065,6.1509,6.3959,6.5671,6.6843,6.6843,6.6823,6.666,6.6467,6.6172,6.5953,6.563,6.5421,6.5483,6.5516,6.4633,6.298,6.2229,6.0864,5.9482,5.8392,5.7942,5.7942,5.8118,5.8304,5.8304,5.8304,5.8421,5.8832,6.0579,6.3188,6.6049,6.7397,7.0436,7.5163,7.4739,7.4666,7.6939,7.719,7.719,7.719,7.719,7.719,7.719,7.7214,7.8043,7.9651,8.0874,8.2072,8.3195,8.3559,8.3238,8.2556,8.1023,8.0504,8.0449,7.8642,7.6716,7.6373,7.5427,7.3836,7.3516,7.2065,7.1652,7.0301,6.9107,6.95,6.9983,7.0867,7.1792,7.2709,7.3538,7.4271,7.4368,7.427,7.427,7.427,7.427,7.427,7.4303,7.4335,7.519,7.6432,7.7568,7.8946,8.2477,8.5294,8.6286,6.1867,6.1718,5.8337,5.6912,5.6935,5.7248,5.736,5.7382,5.7471,5.7538,5.7404,5.7002,5.6799,5.6598,5.6326,5.6058,5.6033,5.6011,5.6011,5.6011,5.6011,5.6011,5.6011,5.6011,5.6011,5.6486,5.9348,6.1037,6.1573,6.457,6.6782,6.6843,6.6843,6.6701,6.6447,6.6324,6.5783,6.4772,6.3356,6.2837,6.3023,6.1777,6.1354,6.2636,6.0507,5.9564,5.9782,5.8105,5.6936,5.7137,5.7741,5.8077,5.8279,5.8304,5.8268,5.8439,5.8421,6.0926,6.3672,6.4863,6.7363,7.285,7.3361,7.4641,7.6084,7.6437,7.6689,7.674,7.7065,7.719,7.719,7.719,7.7653,7.8701,7.9749,8.1238,8.3146,8.3564,8.2563,8.0892,7.9976,7.9249,7.7228,7.6459,7.5743,7.5686,7.5283,7.4474,7.3574,7.2065,7.2111,7.112,6.9495,6.9611,6.9621,7.0546,7.1672,7.2588,7.3465,7.4013,7.4303,7.427,7.427,7.427,7.427,7.427,7.4303,7.4303,7.478,7.5351,7.624,7.7568,7.9699,8.2169,8.4264,5.9804,5.9652,5.7227,5.6194,5.6281,5.6686,5.6845,5.689,5.7203,5.736,5.7248,5.6778,5.6576,5.6529,5.6126,5.6011,5.6011,5.6011,5.6011,5.6011,5.6011,5.6011,5.6011,5.6011,5.6011,5.6509,5.8513,6.026,6.1509,6.3945,6.5733,6.6701,6.6843,6.664,6.6324,6.5926,6.4896,6.3329,6.2243,6.1272,6.0349,5.9624,5.9288,5.9237,5.8313,5.7744,5.7581,5.619,5.5503,5.6066,5.6388,5.6993,5.7624,5.7754,5.8034,5.8404,5.871,6.0096,6.3566,6.3084,6.4822,6.9446,7.0093,7.0436,7.2096,7.4231,7.487,7.5275,7.6235,7.719,7.714,7.7165,7.7311,7.7725,7.865,7.9895,8.1287,8.268,8.2329,8.0338,7.8529,7.7342,7.5571,7.4156,7.2153,7.3312,7.2551,7.1564,7.1357,7.0795,7.0331,6.9675,6.9266,6.9349,6.945,7.0385,7.1542,7.2427,7.3385,7.3989,7.427,7.427,7.427,7.427,7.427,7.427,7.427,7.427,7.427,7.427,7.4715,7.7229,8.0199,8.1769,8.4371,5.8712,5.8491,5.6756,5.6011,5.6033,5.6261,5.6351,5.6439,5.6733,5.689,5.6845,5.6531,5.6374,5.6306,5.6103,5.6011,5.6011,5.6011,5.6011,5.6011,5.6011,5.6011,5.6011,5.6011,5.6011,5.6284,5.7806,5.963,6.1444,6.3317,6.5046,6.6559,6.6843,6.6559,6.6079,6.566,6.4751,6.2837,6.1388,6.0024,5.8821,5.7584,5.7099,5.7043,5.6312,5.5576,5.4842,5.4176,5.4297,5.5141,5.5061,5.5401,5.6241,5.6704,5.7218,5.7917,5.8081,5.9767,6.2416,6.187,6.3044,6.6654,6.7134,6.7403,6.9102,7.105,7.2018,7.2512,7.4389,7.5909,7.621,7.6639,7.6763,7.6134,7.766,7.914,8.0019,8.1731,8.1868,8.0077,7.7739,7.5972,7.4532,7.177,6.9943,7.0972,7.0152,6.9176,6.9026,6.9206,6.8816,6.8816,6.8816,6.8967,6.95,7.0304,7.126,7.2025,7.3304,7.423,7.427,7.427,7.427,7.427,7.427,7.427,7.427,7.427,7.427,7.427,7.4521,7.7133,8.0853,8.3713,8.6173,5.8667,5.8315,5.6712,5.6011,5.6011,5.6013,5.6033,5.6056,5.6036,5.6126,5.6171,5.6036,5.6036,5.6033,5.5991,5.6011,5.6011,5.6011,5.6011,5.6011,5.6011,5.6011,5.6011,5.6011,5.6011,5.6081,5.7805,5.9611,6.1657,6.3467,6.5153,6.6589,6.6904,6.6355,6.5536,6.5475,6.5021,6.3518,6.0806,5.8953,5.8293,5.5473,5.4888,5.6501,5.4643,5.3409,5.327,5.316,5.3452,5.4058,5.3869,5.3876,5.4336,5.4996,5.5767,5.6641,5.7423,5.8675,6.0287,6.0511,6.1743,6.4477,6.5107,6.5831,6.7388,6.8408,6.8995,6.9739,7.1581,7.3159,7.3948,7.5326,7.5833,7.4479,7.6419,7.8248,7.9037,8.0679,8.1356,7.9815,7.737,7.5225,7.2874,7.0361,6.8906,6.9086,6.8816,6.8546,6.8485,6.8485,6.8696,6.8726,6.8636,6.8666,6.9399,7.0224,7.0948,7.1784,7.3184,7.427,7.427,7.427,7.427,7.427,7.427,7.427,7.427,7.427,7.427,7.44,7.4877,7.6057,7.9833,8.3507,8.662,5.6847,5.6778,5.6194,5.6011,5.6011,5.6011,5.6011,5.6011,5.6011,5.6011,5.6011,5.6011,5.6011,5.6011,5.6011,5.6011,5.6011,5.6011,5.6011,5.6011,5.6011,5.6011,5.6011,5.6011,5.6011,5.6166,5.7201,5.9849,6.3233,6.4542,6.589,6.7352,6.679,6.5988,6.5248,6.5124,6.4126,6.2519,6.1194,5.9173,5.6848,5.5496,5.4845,5.4381,5.3594,5.3085,5.3039,5.2715,5.2705,5.2771,5.2413,5.2358,5.2799,5.3541,5.4551,5.5829,5.6162,5.724,5.9236,5.9666,6.0389,6.2057,6.2606,6.2856,6.3384,6.5176,6.6402,6.7457,6.9181,7.0768,7.1417,7.2116,7.2869,7.3815,7.4616,7.614,7.8345,7.8487,7.8513,7.8383,7.6075,7.3793,7.2346,6.9843,6.8485,6.8154,6.7761,6.7519,6.7489,6.7519,6.761,6.8063,6.8154,6.8365,6.8886,7.0163,7.122,7.1824,7.295,7.3868,7.427,7.427,7.427,7.427,7.427,7.427,7.427,7.427,7.427,7.427,7.4618,7.5833,7.9436,8.2974,8.7101,5.6011,5.6011,5.6011,5.6011,5.6011,5.6011,5.6011,5.6011,5.6011,5.6011,5.6011,5.6011,5.6011,5.6011,5.6011,5.6011,5.6011,5.6011,5.6011,5.6011,5.6011,5.6011,5.6011,5.6011,5.6138,5.6498,5.7116,5.9462,6.3174,6.4165,6.5359,6.6644,6.6828,6.6265,6.5252,6.4747,6.3517,6.1542,5.9958,5.8249,5.5993,5.5133,5.4286,5.3154,5.3085,5.2993,5.2784,5.2476,5.222,5.2034,5.1505,5.1339,5.1597,5.192,5.281,5.4407,5.5019,5.61,5.7893,5.876,5.9365,6.0033,6.0754,6.1098,6.0975,6.2187,6.3537,6.4448,6.6402,6.7549,6.7861,6.8371,6.9535,7.1095,7.1985,7.366,7.5918,7.6533,7.68,7.7658,7.6037,7.333,7.1856,6.9471,6.7822,6.7489,6.7125,6.6943,6.6883,6.6852,6.7034,6.7398,6.7671,6.7973,6.8425,6.9929,7.1229,7.1824,7.2508,7.3385,7.419,7.423,7.419,7.419,7.427,7.427,7.427,7.427,7.427,7.427,7.427,7.6025,7.9812,8.3228,8.7441,5.586,5.5903,5.5925,5.5903,5.6011,5.6011,5.6011,5.6011,5.6011,5.6011,5.6011,5.6011,5.6011,5.6011,5.6011,5.6011,5.6011,5.6011,5.6011,5.6011,5.6011,5.6011,5.6011,5.6011,5.6413,5.7028,5.7344,5.8852,6.1246,6.235,6.3743,6.5682,6.6941,6.6962,6.5793,6.465,6.3089,6.147,5.847,5.6173,5.5632,5.4011,5.3201,5.3085,5.3039,5.2761,5.2383,5.2244,5.1948,5.1528,5.1013,5.0708,5.0684,5.0313,5.0774,5.2292,5.3886,5.5178,5.6128,5.7512,5.8474,5.8685,5.948,6.0004,6.0013,6.0257,6.0662,6.0946,6.3364,6.4162,6.3361,6.4655,6.6128,6.7257,6.8959,7.0918,7.3175,7.3985,7.5898,7.6956,7.6086,7.3654,7.0287,6.8648,6.7373,6.6817,6.6752,6.667,6.6548,6.667,6.67,6.6883,6.7307,6.7792,6.7931,6.8972,7.021,7.0948,7.1632,7.283,7.3594,7.419,7.415,7.415,7.419,7.423,7.427,7.427,7.427,7.427,7.427,7.548,7.8769,8.2941,8.7281,5.4264,5.4814,5.4879,5.5306,5.5968,5.6011,5.6011,5.6011,5.6011,5.6011,5.6011,5.6011,5.6011,5.6011,5.6011,5.6011,5.6011,5.6011,5.6011,5.6011,5.6011,5.6011,5.6011,5.6011,5.6138,5.6541,5.7684,5.8708,5.9555,6.1646,6.439,6.6897,6.6762,6.6758,6.7221,6.6037,6.4379,6.2521,6.0891,5.8535,5.5903,5.4011,5.3085,5.3039,5.2732,5.2453,5.2267,5.1551,5.1107,5.0927,5.0449,5.0142,5.0166,5.0039,5.0157,5.0712,5.1747,5.2949,5.4367,5.5456,5.6265,5.6884,5.8277,5.9075,5.9102,5.9102,5.962,6.0536,6.0396,6.0487,6.0458,6.143,6.3057,6.5339,6.6103,6.7495,6.9571,6.9222,6.9525,7.0327,7.1032,6.9409,6.7248,6.6099,6.5624,6.5439,6.5432,6.5449,6.5449,6.5511,6.5694,6.6122,6.6731,6.7056,6.7186,6.7859,6.8664,6.9497,7.0243,7.0957,7.118,7.262,7.3264,7.3345,7.3916,7.415,7.3908,7.4109,7.423,7.427,7.44,7.5263,7.7832,8.3136,8.7593,5.3372,5.3881,5.3881,5.4242,5.4818,5.5178,5.5326,5.5413,5.5775,5.6011,5.5903,5.5138,5.4409,5.389,5.4048,5.3801,5.3264,5.3402,5.3494,5.3494,5.3539,5.397,5.4656,5.4724,5.5431,5.6557,5.7599,5.8487,5.94,6.0848,6.3019,6.5338,6.547,6.5813,6.67,6.5512,6.4233,6.2923,6.0871,5.8112,5.499,5.3598,5.3085,5.3016,5.2592,5.2197,5.1917,5.12,5.0622,5.0425,5.0095,4.993,4.993,4.993,4.993,4.9991,5.0447,5.1367,5.2746,5.3861,5.486,5.5631,5.6948,5.786,5.8191,5.8229,5.8557,5.9204,5.8301,5.7923,5.9002,5.9391,6.055,6.2648,6.322,6.4272,6.6832,6.6483,6.6542,6.7672,6.732,6.6534,6.5816,6.4574,6.3935,6.4316,6.4388,6.4679,6.4891,6.4898,6.5082,6.5404,6.5473,6.5555,6.5558,6.6075,6.686,6.7716,6.8415,6.9327,6.9971,7.126,7.1976,7.2338,7.2701,7.2991,7.3264,7.3313,7.3707,7.3715,7.3956,7.4812,7.7038,8.1534,8.592,5.2863,5.2926,5.2969,5.299,5.3181,5.3703,5.4041,5.4388,5.5017,5.533,5.4605,5.3187,5.1578,5.0489,5.0833,5.0302,4.9133,4.941,4.9653,4.9662,4.9621,5.0556,5.2074,5.2412,5.391,5.611,5.6859,5.7813,5.927,5.979,6.0572,6.1842,6.3366,6.4459,6.4933,6.3767,6.2897,6.2535,5.9165,5.6051,5.3472,5.3154,5.3085,5.3039,5.2546,5.1971,5.1551,5.0989,5.0449,5.0001,4.9854,4.984,4.9816,4.974,4.9679,4.9594,4.9655,4.9996,5.0829,5.2432,5.3582,5.4429,5.5325,5.6402,5.7127,5.7192,5.7192,5.7219,5.6595,5.6706,5.7927,5.8096,5.874,6.0171,6.0288,6.1248,6.363,6.4504,6.5365,6.7555,6.556,6.497,6.5091,6.3477,6.2507,6.324,6.3622,6.4056,6.4549,6.4701,6.4762,6.4511,6.4064,6.3635,6.3794,6.4117,6.4811,6.596,6.6375,6.7228,6.8706,6.965,7.0345,7.122,7.1623,7.1784,7.1904,7.2146,7.2749,7.283,7.3457,7.4263,7.531,7.9305,8.3706,5.1377,5.2014,5.1993,5.2438,5.2946,5.1445,5.1809,5.3156,5.1754,5.0153,4.8551,4.8004,4.7636,4.7309,4.7361,4.7249,4.6945,4.705,4.7073,4.7118,4.7118,4.7323,4.7845,4.9264,5.0188,5.1088,5.3869,5.5774,5.6805,5.8196,5.9383,6.0407,6.1888,6.354,6.5137,6.3089,6.1193,5.9687,5.8114,5.6632,5.524,5.3759,5.3085,5.3016,5.2181,5.1621,5.1481,5.0614,5.0072,4.993,4.9393,4.906,4.9037,4.836,4.7883,4.7587,4.7564,4.7479,4.7397,4.8812,5.0033,5.0632,5.3112,5.4935,5.5442,5.5026,5.4912,5.5456,5.5302,5.5582,5.6436,5.6626,5.7049,5.804,5.8182,5.8678,5.9213,5.9822,6.0585,6.1418,6.1443,6.1442,6.176,6.117,6.087,6.1761,6.2985,6.3744,6.3972,6.401,6.3744,6.331,6.2973,6.2925,6.3434,6.3136,6.3107,6.3791,6.4302,6.5213,6.6361,6.8065,6.9319,7.0224,7.0979,7.1301,7.1502,7.1743,7.1824,7.1904,7.2588,7.3215,7.3815,7.9023,8.4928,4.9381,4.9891,5.0315,5.0122,4.954,4.8742,4.882,4.9056,4.6155,4.4705,4.4466,4.4858,4.4586,4.3905,4.4143,4.3837,4.3159,4.3389,4.3481,4.3504,4.3504,4.3985,4.4885,4.586,4.6828,4.7844,4.9852,5.1669,5.3345,5.5154,5.697,5.8708,6.0109,6.167,6.3266,6.1787,6.0656,5.9989,5.7563,5.5797,5.4811,5.3665,5.3073,5.3051,5.1691,5.0969,5.0947,4.9372,4.8543,4.8566,4.7547,4.7214,4.7616,4.7153,4.6899,4.6828,4.6015,4.5298,4.482,4.5682,4.7014,4.8897,5.0888,5.1923,5.1597,5.181,5.2185,5.2548,5.3309,5.396,5.4648,5.5063,5.5723,5.677,5.691,5.7089,5.7496,5.7925,5.829,5.8613,5.884,5.8986,5.9291,5.9069,5.9075,5.952,6.0593,6.1761,6.2453,6.2331,6.1913,6.1533,6.1448,6.1593,6.1816,6.149,6.1518,6.1982,6.2579,6.3415,6.4589,6.6266,6.7861,6.8846,6.9661,7.0224,7.0264,7.0586,7.0898,7.1019,7.1623,7.2427,7.3147,7.6736,8.1566,4.7154,4.7235,4.7993,4.7014,4.5061,4.5808,4.5295,4.3746,4.0073,3.952,4.1318,4.201,4.1556,4.0278,4.0726,4.0212,3.9108,3.9506,3.9692,3.9716,3.9692,4.0614,4.223,4.2505,4.3565,4.5259,4.5953,4.7541,4.9973,5.1941,5.4211,5.6751,5.8041,5.9294,6.0437,5.9867,5.9881,6.0663,5.6861,5.4465,5.3593,5.3268,5.3042,5.2858,5.1193,5.0205,5.011,4.7946,4.6703,4.666,4.5426,4.5023,4.5694,4.5494,4.5462,4.5455,4.3816,4.262,4.2183,4.2162,4.3551,4.6612,4.7958,4.7997,4.6768,4.7823,4.8781,4.9232,5.0352,5.1433,5.2003,5.3027,5.4174,5.5296,5.5753,5.6223,5.7002,5.723,5.7371,5.7409,5.7458,5.761,5.7741,5.7675,5.7724,5.7724,5.8533,5.9188,6.0337,6.0138,5.9672,5.9824,5.9862,5.9938,6.0289,6.009,6.0355,6.0703,6.1418,6.2407,6.3698,6.5208,6.6542,6.7526,6.8313,6.8736,6.8907,6.946,6.9862,7.0023,7.0707,7.1542,7.2177,7.348,7.6347,4.4769,4.5024,4.4909,4.3978,4.26,4.2449,4.1377,3.9599,0.0,0.0,0.0,3.6123,3.6272,3.6502,3.6643,3.6821,3.705,3.7172,3.7194,3.7217,3.7217,3.7367,3.7795,3.9321,4.0298,4.0829,4.4485,4.69,4.8164,5.0703,5.2912,5.4719,5.5738,5.636,5.6588,5.645,5.6457,5.6607,5.5128,5.3955,5.3218,5.3108,5.2823,5.2429,5.0647,4.9556,4.9183,4.7068,4.5899,4.5878,4.4629,4.3716,4.3225,4.222,4.0963,3.9433,3.8092,3.7126,3.6517,3.6368,3.7062,3.8707,4.2473,4.4084,4.257,4.2788,4.3953,4.6235,4.6613,4.6897,4.7019,4.9664,5.1819,5.2573,5.3813,5.4822,5.5377,5.5999,5.6402,5.6504,5.7024,5.7534,5.7458,5.7458,5.7534,5.7534,5.7545,5.8115,5.8733,5.7898,5.748,5.8619,5.895,5.9216,5.9824,5.9976,6.0118,6.0126,6.101,6.2131,6.3216,6.4341,6.5719,6.7054,6.7698,6.8071,6.8615,6.8897,6.9017,6.9058,6.9781,7.0465,7.0648,7.1313,7.4145,4.2315,0.0,4.1848,4.0876,0.0,3.9584,3.8301,3.582,3.4206,3.3725,3.4107,3.4128,3.4457,3.5065,3.4735,3.5137,3.6028,3.605,3.6213,3.6553,3.6553,3.6553,3.6575,3.7304,3.7693,3.7782,3.9744,4.1882,4.4234,4.6663,4.9266,5.1943,5.3961,5.4876,5.4916,5.5825,5.6026,5.556,5.4978,5.4051,5.2823,5.1872,5.1248,5.0994,4.9214,0.0,0.0,0.0,0.0,0.0,0.0,0.0,0.0,0.0,0.0,3.7364,3.4355,3.2122,3.0984,3.0447,3.0574,3.1539,3.5165,3.6335,3.365,3.5855,3.8342,4.0623,4.1597,4.2763,4.4532,4.6564,4.8521,5.0075,5.1622,5.2652,5.2994,5.3992,5.4845,5.5146,5.5617,5.5988,5.6227,5.6254,5.6254,5.6254,5.6254,5.6368,5.6671,5.6075,5.5973,5.7187,5.7746,5.8267,5.8685,5.8788,5.8788,5.8882,5.948,6.027,6.1086,6.2256,6.347,6.4633,6.5725,6.6425,6.6964,6.7743,6.8274,6.8375,6.8936,6.9369,6.9075,6.9618,7.2239,3.9299,3.7993,3.8542,3.7551,3.5743,3.6404,3.5163,3.2689,3.2308,3.2459,3.3025,3.3055,3.3416,3.3952,3.3457,3.387,3.497,3.5029,3.5395,3.6027,3.6105,3.6183,3.6261,3.5977,3.5819,3.5796,3.5744,3.7273,4.0321,4.2781,4.5686,4.8966,5.1908,5.36,5.4056,0.0,0.0,0.0,5.4726,5.3588,5.1823,5.0386,4.9556,4.9479,4.7806,0.0,4.6734,4.5181,4.3838,4.295,4.1806,0.0,0.0,0.0,0.0,0.0,0.0,0.0,0.0,0.0,0.0,0.0,2.7104,2.7336,2.5079,2.8986,3.2556,3.4595,3.6257,3.8398,4.1216,4.2657,4.4445,4.6874,4.8624,4.9901,5.0641,5.1769,5.2944,5.3712,5.3839,5.4096,5.4778,5.4882,5.4934,5.5088,5.5012,5.5012,5.5088,5.5088,5.5278,5.5859,5.6721,5.7317,5.7534,5.761,5.7724,5.7589,5.7941,5.8559,5.9161,6.0266,6.1232,6.1957,6.315,6.4209,6.4629,6.5862,6.6748,6.7118,6.7735,6.8055,6.7536,6.8111,7.0541,3.5023,3.5026,3.4289,3.3431,3.2609,3.1822,3.1262,3.0861,3.0786,3.0848,3.091,3.0941,3.1293,3.1892,3.1811,3.2161,3.2842,3.3108,3.3529,3.4153,3.4379,3.4794,3.5361,3.5293,3.527,3.5361,3.6804,3.7839,3.8384,4.1892,4.4472,4.6115,4.8951,5.1326,5.3137,5.3005,5.3085,5.3384,5.2892,5.1559,4.9492,4.9195,4.892,4.8513,4.7151,4.6199,4.5841,4.4224,4.2892,4.1986,4.152,4.0243,3.808,3.5578,3.2898,0.0,2.5695,0.0,0.0,0.0,0.0,0.0,0.0,0.0,0.0,2.4218,2.7157,2.9513,3.153,3.2908,3.3335,3.628,3.9175,4.1696,4.377,4.6171,4.8999,4.988,5.0765,5.2203,5.2376,5.2904,5.4044,5.4324,5.4506,5.4896,5.4884,5.4693,5.491,5.491,5.4948,5.5152,5.5847,5.6633,5.7203,5.7458,5.7458,5.755,5.7826,5.8358,5.8269,5.8925,5.9762,6.0511,6.0946,6.1497,6.2306,6.3131,6.4024,6.483,6.5429,6.5872,6.5879,6.6444,6.8848,3.3491,3.2596,3.1931,3.127,3.0632,3.0192,3.018,3.0489,3.0489,3.0489,3.0501,3.0296,3.0235,3.027,2.9926,3.0512,3.1782,3.1932,3.251,3.3519,3.3625,3.3307,3.2736,3.3453,3.327,3.2339,3.3833,3.5068,3.615,3.8383,4.0887,4.3588,4.5932,4.7567,4.85,4.8655,5.006,5.2565,5.1705,5.0274,4.832,4.7512,4.7062,4.6904,4.5988,4.5412,4.5253,4.4096,4.3068,4.2248,4.1176,3.9427,3.6868,3.3749,3.0482,0.0,0.0,0.0,0.0,0.0,0.0,0.0,0.0,0.0,0.0,0.0,2.1877,2.3677,2.7013,2.9317,2.9897,3.1631,3.3328,3.4805,3.6572,3.8494,4.051,4.3671,4.6118,4.7344,4.9027,5.0828,5.2468,5.2745,5.3281,5.4806,5.3459,5.2503,5.3049,5.3642,5.4034,5.4329,5.5012,5.5722,5.6026,5.6102,5.614,5.6166,5.6325,5.6102,5.5188,5.6261,5.7154,5.6782,5.7991,5.9338,5.987,6.0919,6.1918,6.2376,6.2199,6.2458,6.3867,6.4886,6.6882,3.2193,3.0819,3.0003,2.9504,2.9171,2.9087,2.9426,2.9933,2.9946,2.9804,2.9644,2.9443,2.8986,2.8325,2.7479,2.7938,2.9347,2.9368,2.9981,3.107,3.1624,3.1304,3.0312,3.1772,3.1765,3.0525,3.1285,3.2401,3.3778,3.4986,3.7122,4.0086,4.1051,4.188,4.2591,4.4002,4.6528,5.0308,4.9835,4.8851,4.7499,4.6194,4.5498,4.5477,4.5095,4.485,4.4622,4.3847,4.3015,4.1992,4.013,3.7856,3.5343,3.1597,0.0,0.0,0.0,0.0,0.0,0.0,0.0,0.0,0.0,1.1617,1.1879,0.0,1.7264,0.0,2.3171,2.6365,2.7645,2.7726,0.0,0.0,2.9756,3.0785,3.2284,3.656,3.9964,4.1524,4.4153,4.679,4.9342,4.9892,5.0654,5.218,5.0853,4.9995,5.0816,5.2072,5.3026,5.3354,5.3911,5.4405,5.443,5.443,5.4187,5.3724,5.3684,5.3052,5.1175,5.2756,5.3902,5.3103,5.5045,5.6872,5.7454,5.8624,5.9457,5.9283,5.8548,5.87,6.1632,6.2931,6.4834,3.0386,3.0011,2.8099,2.762,2.8114,2.7839,2.7913,2.8178,2.819,2.7773,2.7159,2.7498,2.6783,2.5344,2.4119,0.0,2.3764,2.377,2.4209,2.4914,2.7032,2.8243,2.8821,3.0898,3.1844,3.165,3.1334,3.1227,3.1429,3.2669,3.39,3.4952,3.2923,3.3203,3.6009,3.9421,4.237,4.4775,4.6443,4.7224,4.7087,4.5664,4.4951,4.493,4.4926,4.4546,4.3868,4.3091,4.1896,4.0263,3.7709,3.5171,3.2645,0.0,0.0,0.0,0.0,0.0,0.0,0.0,0.0,0.0,0.0,0.0,0.0,0.0,0.0,0.0,2.0491,0.0,2.5837,2.4491,0.0,0.0,0.0,2.4828,2.7654,2.9606,3.2083,3.546,0.0,0.0,4.3796,4.5176,4.5628,4.5205,4.7094,4.8579,4.8653,5.0767,5.2372,5.1923,5.231,5.2671,5.2785,5.2709,5.2148,5.0505,4.9787,4.9215,4.7531,4.8665,5.0121,5.0438,5.257,5.4355,5.5102,5.5772,5.6067,5.48,5.495,5.6178,5.8901,6.0237,6.1974,2.8813,2.8118,2.6513,2.5954,2.609,2.6042,2.6315,2.6686,2.6839,2.667,2.6229,2.5749,2.4587,2.2883,2.1772,0.0,0.0,0.0,2.2545,2.3201,2.4439,2.45,2.3724,2.5799,2.6142,2.4964,2.67,2.7467,2.726,2.9026,2.8387,2.5464,0.0,0.0,2.9938,3.3185,3.7095,4.1506,4.3255,4.4238,4.4438,4.4757,4.4639,4.4226,4.4188,4.3581,4.2272,4.1478,3.9959,3.7671,3.4978,3.1857,0.0,0.0,0.0,0.0,0.0,0.0,0.0,0.0,0.0,0.0,0.0,0.9303,0.0,0.0,0.0,0.0,1.4876,1.687,1.9944,2.0465,0.0,0.0,0.0,0.0,0.0,0.0,0.0,2.8071,3.2779,3.6746,3.8937,3.8802,3.903,4.038,4.1988,4.3566,4.5005,0.0,4.8922,5.0127,5.0674,5.1129,5.1647,5.1343,5.0688,4.9815,4.9193,4.7793,4.5429,4.6306,4.7036,4.6423,4.7711,4.9774,5.1325,5.152,5.1629,5.2787,5.3241,5.4153,5.6061,5.7548,5.9257,2.6123,0.0,0.0,0.0,0.0,2.3805,2.4061,2.444,2.474,2.4555,2.3934,2.3273,0.0,0.0,0.0,0.0,0.0,0.0,1.9918,2.0456,2.1628,2.1359,2.0066,2.2117,2.2381,2.1048,2.3037,2.3945,2.3801,2.4126,2.2024,1.7804,0.0,0.0,0.0,0.0,3.256,3.766,4.0166,4.1464,4.1768,4.3291,4.3748,4.297,4.2994,4.235,4.0926,3.924,3.7279,3.4849,3.132,0.0,0.0,0.0,0.0,0.0,0.0,0.0,0.0,0.0,0.0,0.0,0.0,0.0,0.0,0.0,0.0,0.0,0.0,0.0,1.5018,1.6821,1.7303,0.0,0.0,0.0,0.0,0.0,0.0,0.0,0.0,0.0,3.1494,3.2235,3.353,0.0,0.0,3.9752,4.1773,4.4073,4.6172,4.7802,4.8509,0.0,4.9538,4.9084,4.873,4.8891,4.7704,4.5797,4.2798,4.3035,4.3306,4.239,4.3819,4.5153,4.5275,4.4913,4.5604,4.7926,4.8837,4.9585,5.1291,5.2898,5.4772,0.0,0.0,0.0,0.0,0.0,0.0,0.0,0.0,2.1524,2.0903,0.0,1.9684,0.0,0.0,0.0,0.0,0.0,1.4827,0.0,0.0,1.808,1.9263,1.9538,2.1263,2.2319,2.2553,2.1561,2.122,2.1337,1.7647,0.0,0.0,0.0,0.0,0.0,0.0,2.9329,3.2751,3.7114,3.9333,3.9399,4.129,4.1922,4.1136,4.1257,4.0946,3.9996,3.6428,3.3638,3.1988,2.655,0.0,0.0,0.0,0.0,0.0,0.0,0.0,0.0,0.0,0.0,0.0,0.0,0.0,0.0,0.0,0.0,0.0,0.0,0.0,0.0,1.3911,0.0,0.0,0.0,0.0,0.0,0.0,0.0,0.0,0.0,0.0,2.0472,2.5794,2.9993,3.0381,0.0,0.0,0.0,0.0,4.4878,4.4865,4.5612,4.6056,4.573,4.5647,4.5786,4.629,0.0,0.0,3.8875,3.7814,3.8098,4.0094,4.1548,4.121,3.6159,3.5893,3.6889,3.9076,4.0409,4.1692,4.4046,4.5742,4.7984,0.0,0.0,0.0,0.0,0.0,0.0,0.0,0.0,0.0,1.8253,0.0,1.6869,0.0,0.0,0.0,0.0,0.0,0.0,0.0,0.0,1.6095,1.6814,1.669,1.7115,1.7218,0.0,1.695,1.5964,0.0,0.0,0.0,0.0,0.0,0.0,0.0,0.0,2.5845,3.0402,3.4771,3.7152,3.7597,4.0571,4.1178,3.9218,4.1035,4.0092,3.5863,3.3272,3.0008,0.0,0.0,0.0,0.0,0.0,0.0,0.0,0.0,0.0,0.0,0.0,0.0,0.0,0.0,0.0,0.0,0.0,0.0,0.0,0.0,0.0,0.0,0.0,1.4304,0.0,0.0,0.0,0.0,0.0,0.0,0.0,0.0,0.0,1.674,2.1649,2.5832,2.727,3.0509,3.3521,3.5661,0.0,0.0,0.0,0.0,0.0,0.0,0.0,4.1823,4.2155,4.0547,3.8542,3.6402,3.4387,3.337,3.427,0.0,0.0,3.1938,3.1627,3.2466,3.4649,3.5941,3.6922,3.7934,3.9768,4.2168,0.0,0.0,0.0,0.0,0.0,0.0,0.0,0.0,0.0,1.4689,1.4316,0.0,0.0,0.0,0.0,0.0,0.0,0.0,0.0,0.0,0.0,0.0,1.4557,1.3992,0.0,0.0,0.0,0.0,0.0,0.0,0.0,0.0,0.0,0.0,0.0,0.0,2.3126,2.7854,3.2299,3.4868,3.5638,3.898,3.9851,3.7807,4.0314,3.9295,3.4115,0.0,0.0,0.0,0.0,0.0,0.0,0.0,0.0,0.0,0.0,0.0,0.0,0.0,0.0,0.0,0.0,0.0,0.0,0.0,0.0,0.0,0.0,0.0,0.0,0.0,1.2622,0.0,0.0,0.0,0.0,0.0,0.0,0.0,0.0,0.0,0.0,0.0,2.1573,2.398,2.7157,3.019,3.2712,3.4599,3.6395,0.0,0.0,0.0,0.0,0.0,0.0,0.0,0.0,0.0,0.0,0.0,0.0,0.0,0.0,2.6961,2.5962,2.5975,2.6558,2.7811,0.0,0.0,0.0,0.0,0.0,0.0,0.0,0.0,0.0,0.0,0.0,0.0,0.0,0.0,0.0,0.0,0.0,0.0,0.9244,0.0,0.0,0.0,0.0,0.0,0.0,0.0,0.0,0.0,0.0,0.0,0.0,0.0,0.0,0.0,0.0,0.0,0.0,0.0,0.0,0.0,0.0,2.1409,2.5035,2.974,3.2611,3.3695,3.6558,3.7776,3.7047,3.8929,3.842,3.4971,0.0,0.0,0.0,0.0,0.0,0.0,0.0,0.0,0.0,0.0,0.0,0.0,0.0,0.0,0.0,0.0,0.0,0.0,0.0,0.0,0.0,0.0,0.0,0.0,0.0,0.0,1.0574,1.316,1.4334,0.0,0.0,0.0,0.0,0.0,0.0,0.0,0.0,0.0,0.0,2.4864,2.8567,3.0366,3.2611,3.4374,3.5442,3.6331,3.7646,3.9582,3.9983,3.9933,0.0,0.0,0.0,0.0,0.0,0.0,0.0,0.0,0.0,0.0,0.0,0.0,0.0,0.0,0.0,0.0,0.0,0.0,0.0,0.0,0.0,0.0,0.0,0.0,0.0,0.0,0.0,0.0,0.0,0.0,0.0,0.0,0.0,0.0,0.0,0.0,0.0,0.0,0.0,0.0,0.0,0.0,0.0,0.0,0.0,0.0,0.0,0.0,0.0,0.0,0.0,0.0,0.0,0.0,2.0195,2.3801,2.8909,3.2051,3.3228,3.6383,3.7755,3.7014,3.8347,3.7227,0.0,0.0,0.0,0.0,0.0,0.0,0.0,0.0,0.0,0.0,0.0,0.0,0.0,0.0,0.0,0.0,0.0,0.0,0.0,0.0,0.0,0.0,0.0,0.0,0.0,0.0,0.0,0.0,1.4448,1.4661,1.2943,0.0,0.0,0.0,0.0,0.0,0.0,0.0,0.0,0.0,0.0,2.5504,2.7687,2.9457,3.0772,3.1459,3.2011,3.2719,3.3827,3.4792,3.525,3.4781,0.0,0.0,0.0,0.0,0.0,0.0,0.0,0.0,0.0,0.0,0.0,0.0,0.0,0.0,0.0,0.0,0.0,0.0,0.0,0.0,0.0,0.0,0.0,0.0,0.0,0.0,0.0,0.0,0.0,0.0,0.0,0.0,0.0,0.0,0.0,0.0,0.0,0.0,0.0,0.0,0.0,0.0,0.0,0.0,0.0,0.0,0.0,0.0,0.0,0.0,0.0,0.0,0.0,1.8882,2.2703,2.7835,3.1223,3.2785,3.5609,3.6939,3.6639,3.7194,3.5766,0.0,0.0,0.0,0.0,0.0,0.0,0.0,0.0,0.0,0.0,0.0,0.0,0.0,0.0,0.0,0.0,0.0,0.0,0.0,0.0,0.0,0.0,0.0,0.0,0.0,0.0,0.0,0.0,1.3014,1.3498,1.2894,0.0,0.0,0.0,0.0,0.0,0.0,0.0,0.0,0.0,0.0,2.3213,2.5049,2.6807,0.0,0.0,2.896,2.9794,3.1083,3.2858,3.3625,3.2247,3.079,0.0,0.0,0.0,0.0,0.0,0.0,0.0,0.0,0.0,0.0,0.0,0.0,0.0,0.0,0.0,0.0,0.0,0.0,0.0,0.0,0.0,0.0,0.0,0.0,0.0,0.0,0.0,0.0,0.0,0.0,0.0,0.0,0.0,0.0,0.0,0.0,0.0,0.0,0.0,0.0,0.0,0.0,0.0,0.0,0.0,0.0,0.0,0.0,0.0,0.0,0.0,0.0,0.0,2.1685,2.6644,3.0164,3.2187,3.4352,3.5667,3.6124,3.5653,3.4088,0.0,0.0,0.0,0.0,0.0,0.0,0.0,0.0,0.0,0.0,0.0,0.0,0.0,0.0,0.0,0.0,0.0,0.0,0.0,0.0,0.0,0.0,0.0,0.0,0.0,0.0,0.0,0.0,0.0,0.0,0.0,0.0,0.0,0.0,0.0,0.0,0.0,0.0,0.0,0.0,0.0,2.1526,2.2734,2.4664,2.6048,0.0,0.0,2.8271,3.0465,3.2968,3.3827,3.121,0.0,0.0,0.0,0.0,0.0,0.0,0.0,0.0,0.0,0.0,0.0,0.0,0.0,0.0,0.0,0.0,0.0,0.0,0.0,0.0,0.0,0.0,0.0,0.0,0.0,0.0,0.0,0.0,0.0,0.0,0.0,0.0,0.0,0.0,0.0,0.0,0.0,0.0,0.0,0.0,0.0,0.0,0.0,0.0,0.0,0.0,0.0,0.0,0.0,0.0,0.0,0.0,0.0,0.0,2.0906,2.6352,2.9965,3.1687,3.3347,3.4884,3.6082,3.435,0.0,0.0,0.0,0.0,0.0,0.0,0.0,0.0,0.0,0.0,0.0,0.0,0.0,0.0,0.0,0.0,0.0,0.0,0.0,0.0,0.0,0.0,0.0,0.0,0.0,0.0,0.0,0.6403,0.0,0.0,0.0,0.0,0.0,0.0,0.0,0.0,0.0,0.0,0.0,0.0,0.0,0.0,2.0585,2.2113,2.307,2.3777,0.0,0.0,2.4839,2.5889,2.8246,2.9342,0.0,0.0,0.0,0.0,0.0,0.0,0.0,0.0,0.0,0.0,0.0,0.0,0.0,0.0,0.0,0.0,0.0,0.0,0.0,0.0,0.0,0.0,0.0,0.0,0.0,0.0,0.0,0.0,0.0,0.0,0.0,0.0,0.0,0.0,0.0,0.0,0.0,0.0,0.0,0.0,0.0,0.0,0.0,0.0,0.0,0.0,0.0,0.0,0.0,0.0,0.0,0.0,0.0,0.0,1.5756,1.9782,2.4845,2.8566,3.0835,3.2427,3.401,3.5508,3.3511,3.1714,0.0,0.0,0.0,0.0,0.0,0.0,0.0,0.0,0.0,0.0,0.0,0.0,0.0,0.0,0.0,0.0,0.0,0.0,0.0,0.0,0.0,0.0,0.0,0.0,0.0,0.0,0.0,0.0,0.0,0.0,0.0,0.0,0.0,0.0,0.0,0.0,0.0,0.0,0.0,0.0,0.0,0.0,2.1002,2.1344,0.0,0.0,0.0,2.2671,2.3579,0.0,0.0,0.0,0.0,0.0,0.0,0.0,0.0,0.0,0.0,0.0,0.0,0.0,0.0,0.0,0.0,0.0,0.0,0.0,0.0,0.0,0.0,0.0,0.0,0.0,0.0,0.0,0.0,0.0,0.0,0.0,0.0,0.0,0.0,0.0,0.0,0.0,0.0,0.0,0.0,0.0,0.0,0.0,0.0,0.0,0.0,0.0,0.0,0.0,0.0,0.0,0.0,0.0,0.0,0.0,0.0,0.0,1.8585,2.2902,2.6705,2.9906,3.1426,3.3024,3.4615,3.3003,3.1628,0.0,0.0,0.0,0.0,0.0,0.0,0.0,0.0,0.0,0.0,0.0,0.0,0.0,0.0,0.0,0.0,0.0,0.0,0.0,0.0,0.0,0.0,0.0,0.0,0.0,0.0,0.0,0.0,0.0,0.0,0.0,0.0,0.0,0.0,0.0,0.0,0.0,0.0,0.0,0.0,0.0,1.8255,1.9676,1.9508,1.8764,0.0,0.0,2.0875,2.2445,2.4148,0.0,0.0,0.0,0.0,0.0,0.0,0.0,0.0,0.0,0.0,0.0,0.0,0.0,0.0,0.0,0.0,0.0,0.0,0.0,0.0,0.0,0.0,0.0,0.0,0.0,0.0,0.0,0.0,0.0,0.0,0.0,0.0,0.0,0.0,0.0,0.0,0.0,0.0,0.0,0.0,0.0,0.0,0.0,0.0,0.0,0.0,0.0,0.0,0.0,0.0,0.0,0.0,0.0,0.0,0.0,0.0,1.8427,2.2249,2.5909,2.9334,3.0231,3.1729,3.4044,3.2917,3.1656,0.0,0.0,0.0,0.0,0.0,0.0,0.0,0.0,0.0,0.0,0.0,0.0,0.0,0.0,0.0,0.0,0.0,0.0,0.0,0.0,0.0,0.0,0.0,0.0,0.0,0.0,0.0,0.0,0.0,0.0,0.0,0.0,0.0,0.0,0.0,0.0,0.0,0.0,0.0,0.0,0.0,1.715,1.8986,1.7864,0.0,0.0,0.0,0.0,2.0895,2.1034,0.0,0.0,0.0,0.0,0.0,0.0,0.0,0.0,0.0,0.0,0.0,0.0,0.0,0.0,0.0,0.0,0.0,0.0,0.0,0.0,0.0,0.0,0.0,0.0,0.0,0.0,0.0,0.0,0.0,0.0,0.0,0.0,0.0,0.0,0.0,0.0,0.0,0.0,0.0,0.0,0.0,0.0,0.0,0.0,0.0,0.0,0.0,0.0,0.0,0.0,0.0,0.0,0.0,0.0,0.0,0.0,1.7069,2.0833,2.4619,2.8459,2.9355,3.1012,3.3587,3.2185,3.1009,0.0,0.0,0.0,0.0,0.0,0.0,0.0,0.0,0.0,0.0,0.0,0.0,0.0,0.0,0.0,0.0,0.0,0.0,0.0,0.0,0.0,0.0,0.0,0.0,0.0,0.0,0.0,0.0,0.0,0.0,0.0,0.0,0.0,0.0,0.0,0.0,0.0,0.0,0.0,0.0,1.3439,1.4711,1.626,0.0,0.0,0.0,0.0,0.0,0.0,1.8978,1.9053,0.0,0.0,0.0,0.0,0.0,0.0,0.0,0.0,0.0,0.0,0.0,0.0,0.0,0.0,0.0,0.0,0.0,0.0,0.0,0.0,0.0,0.0,0.0,0.0,0.0,0.0,0.0,0.0,0.0,0.0,0.0,0.0,0.0,0.0,0.0,0.0,0.0,0.0,0.0,0.0,0.0,0.0,0.0,0.0,0.0,0.0,0.0,0.0,0.0,0.0,0.0,0.0,0.0,0.0,0.0,1.5386,1.9185,2.3126,2.7226,2.8559,3.0497,3.3012,3.128,2.9883,2.8961,0.0,0.0,0.0,0.0,0.0,0.0,0.0,0.0,0.0,0.0,0.0,0.0,0.0,0.0,0.0,0.0,0.0,0.0,0.0,0.0,0.0,0.0,0.0,0.0,0.0,0.0,0.0,0.0,0.0,0.0,0.0,0.0,0.0,0.0,0.0,0.0,0.0,0.0,0.0,1.1325,1.2185,0.0,0.0,0.0,0.0,0.0,0.0,0.0,0.0,1.7206,0.0,0.0,0.0,0.0,0.0,0.0,0.0,0.0,0.0,0.0,0.0,0.0,0.0,0.0,0.0,0.0,0.0,0.0,0.0,0.0,0.0,0.0,0.0,0.0,0.0,0.0,0.0,0.0,0.0,0.0,0.0,0.0,0.0,0.0,0.0,0.0,0.0,0.0,0.0,0.0,0.0,0.0,0.0,0.0,0.0,0.0,0.0,0.0,0.0,0.0,0.0,0.0,0.0,0.0,0.0,0.0,1.7999,2.1701,2.5375,2.7564,2.9838,3.2172,3.0682,2.8333,2.5129,0.0,0.0,0.0,0.0,0.0,0.0,0.0,0.0,0.0,0.0,0.0,0.0,0.0,0.0,0.0,0.0,0.0,0.0,0.0,0.0,0.0,0.0,0.0,0.0,0.0,0.0,0.0,0.0,0.0,0.0,0.0,0.0,0.0,0.0,0.0,0.0,0.0,0.0,0.7159,0.9337,0.0,0.0,0.0,0.0,0.0,0.0,0.0,0.0,1.4587,0.0,0.0,0.0,0.0,0.0,0.0,0.0,0.0,0.0,0.0,0.0,0.0,0.0,0.0,0.0,0.0,0.0,0.0,0.0,0.0,0.0,0.0,0.0,0.0,0.0,0.0,0.0,0.0,0.0,0.0,0.0,0.0,0.0,0.0,0.0,0.0,0.0,0.0,0.0,0.0,0.0,0.0,0.0,0.0,0.0,0.0,0.0,0.0,0.0,0.0,0.0,0.0,0.0,0.0,0.0,0.0,0.0,0.0,2.0677,2.4267,2.655,2.8701,3.0486,2.7762,2.5198,0.0,0.0,0.0,0.0,0.0,0.0,0.0,0.0,0.0,0.0,0.0,0.0,0.0,0.0,0.0,0.0,0.0,0.0,0.0,0.0,0.0,0.0,0.0,0.0,0.0,0.0,0.0,0.0,0.0,0.0,0.0,0.0,0.0,0.0,0.0,0.0,0.0,0.0,0.0,0.0,0.0,0.0,0.0,0.0,0.0,0.0,0.0,0.0,0.0,0.0,0.0,0.0,0.0,0.0,0.0,0.0,0.0,0.0,0.0,0.0,0.0,0.0,0.0,0.0,0.0,0.0,0.0,0.0,0.0,0.0,0.0,0.0,0.0,0.0,0.0,0.0,0.0,0.0,0.0,0.0,0.0,0.0,0.0,0.0,0.0,0.0,0.0,0.0,0.0,0.0,0.0,0.0,0.0,0.0,0.0,0.0,0.0,0.0,0.0,0.0,0.0,0.0,0.0,0.0,0.0,0.0,0.0,0.0,1.9495,2.2755,2.5482,2.7678,2.9301,2.4992,2.2153,0.0,0.0,0.0,0.0,0.0,0.0,0.0,0.0,0.0,0.0,0.0,0.0,0.0,0.0,0.0,0.0,0.0,0.0,0.0,0.0,0.0,0.0,0.0,0.0,0.0,0.0,0.0,0.0,0.0,0.0,0.0,0.0,0.0,0.0,0.0,0.0,0.0,0.0,0.0,0.0,0.0,0.0,0.0,0.0,0.0,0.0,0.0,0.0,1.1231,0.0,0.0,0.0,0.0,0.0,0.0,0.0,0.0,0.0,0.0,0.0,0.0,0.0,0.0,0.0,0.0,0.0,0.0,0.0,0.0,0.0,0.0,0.0,0.0,0.0,0.0,0.0,0.0,0.0,0.0,0.0,0.0,0.0,0.0,0.0,0.0,0.0,0.0,0.0,0.0,0.0,0.0,0.0,0.0,0.0,0.0,0.0,0.0,0.0,0.0,0.0,0.0,0.0,0.0,0.0,0.0,0.0,0.0,0.0,1.772,1.9873,2.4103,2.7119,2.8599,2.4089,2.0225,0.0,0.0,0.0,0.0,0.0,0.0,0.0,0.0,0.0,0.0,0.0,0.0,0.0,0.0,0.0,0.0,0.0,0.0,0.0,0.0,0.0,0.0,0.0,0.0,0.0,0.0,0.0,0.0,0.0,0.0,0.0,0.0,0.0,0.0,0.0,0.0,0.0,0.0,0.0,0.0,0.0,0.0,0.0,0.0,0.0,0.0,0.0,0.0,0.0,0.0,0.0,0.0,0.0,0.0,0.0,0.0,0.0,0.0,0.0,0.0,0.0,0.0,0.0,0.0,0.0,0.0,0.0,0.0,0.0,0.0,0.0,0.0,0.0,0.0,0.0,0.0,0.0,0.0,0.0,0.0,0.0,0.0,0.0,0.0,0.0,0.0,0.0,0.0,0.0,0.0,0.0,0.0,0.0,0.0,0.0,0.0,0.0,0.0,0.0,0.0,0.0,0.0,0.0,0.0,0.0,0.0,0.0,0.0,1.5324,1.8617,2.2139,2.3892,2.3716,2.0456,1.7975,0.0,0.0,0.0,0.0,0.0,0.0,0.0,0.0,0.0,0.0,0.0,0.0,0.0,0.0,0.0,0.0,0.0,0.0,0.0,0.0,0.0,0.0,0.0,0.0,0.0,0.0,0.0,0.0,0.0,0.0,0.0,0.0,0.0,0.0,0.0,0.0,0.0,0.0,0.0,0.0,0.0,0.0,0.0,0.0,0.0,0.0,0.0,0.0,0.0,0.0,0.0,0.0,0.0,0.0,0.0,0.0,0.0,0.0,0.0,0.0,0.0,0.0,0.0,0.0,0.0,0.0,0.0,0.0,0.0,0.0,0.0,0.0,0.0,0.0,0.0,0.0,0.0,0.0,0.0,0.0,0.0,0.0,0.0,0.0,0.0,0.0,0.0,0.0,0.0,0.0,0.0,0.0,0.0,0.0,0.0,0.0,0.0,0.0,0.0,0.0,0.0,0.0,0.0,0.0,0.0,0.0,0.0,0.0,0.0,1.6603,1.8714,1.9473,1.869,1.7117,1.588,0.0,0.0,0.0,0.0,0.0,0.0,0.0,0.0,0.0,0.0,0.0,0.0,0.0,0.0,0.0,0.0,0.0,0.0,0.0,0.0,0.0,0.0,0.0,0.0,0.0,0.0,0.0,0.0,0.0,0.0,0.0,0.0,0.0,0.0,0.0,0.0,0.0,0.0,0.0,0.0,0.0,0.0,0.0,0.0,0.0,0.0,0.0,0.0,0.0,0.0,0.0,0.0,0.0,0.0,0.0,0.0,0.0,0.0,0.0,0.0,0.0,0.0,0.0,0.0,0.0,0.0,0.0,0.0,0.0,0.0,0.0,0.0,0.0,0.0,0.0,0.0,0.0,0.0,0.0,0.0,0.0,0.0,0.0,0.0,0.0,0.0,0.0,0.0,0.0,0.0,0.0,0.0,0.0,0.0,0.0,0.0,0.0,0.0,0.0,0.0,0.0,0.0,0.0,0.0,0.0,0.0,0.0,0.0,0.0,1.3097,1.3173,1.387,1.5196,1.5114,1.4064,0.0,0.0,0.0,0.0,0.0,0.0,0.0,0.0,0.0,0.0,0.0,0.0,0.0,0.0,0.0,0.0,0.0,0.0,0.0,0.0,0.0,0.0,0.0,0.0,0.0,0.0,0.0,0.0,0.0,0.0,0.0,0.0,0.0,0.0,0.0,0.0,0.0,0.0,0.0,0.0,0.0,0.0,0.0,0.0,0.0,0.0,0.0,0.0,0.0,0.0,0.0,0.0,0.0,0.0,0.0,0.0,0.0,0.0,0.0,0.0,0.0,0.0,0.0,0.0,0.0,0.0,0.0,0.0,0.0,0.0,0.0,0.0,0.0,0.0,0.0,0.0,0.0,0.0,0.0,0.0,0.0,0.0,0.0,0.0,0.0,0.0,0.0,0.0,0.0,0.0,0.0,0.0,0.0,0.0,0.0,0.0,0.0,0.0,0.0,0.0,0.0,0.0,0.0,0.0,0.0,0.0,0.0,0.0,0.0,0.9621,0.9835,1.0825,1.2605,1.2405,1.1844,1.0978,0.0,0.0,0.0,0.0,0.0,0.0,0.0,0.0,0.0,0.0,0.0,0.0,0.0,0.0,0.0,0.0,0.0,0.0,0.0,0.0,0.0,0.0,0.0,0.0,0.0,0.0,0.0,0.0,0.0,0.0,0.0,0.0,0.0,0.0,0.0,0.0,0.0,0.0,0.0,0.0,0.0,0.0,0.0,0.0,0.0,0.0,0.0,0.0,0.0,0.0,0.0,0.0,0.0,0.0,0.0,0.0,0.0,0.0,0.0,0.0,0.0,0.0,0.0,0.0,0.0,0.0,0.0,0.0,0.0,0.0,0.0,0.0,0.0,0.0,0.0,0.0,0.0,0.0,0.0,0.0,0.0,0.0,0.0,0.0,0.0,0.0,0.0,0.0,0.0,0.0,0.0,0.0,0.0,0.0,0.0,0.0,0.0,0.0,0.0,0.0,0.0,0.0,0.0,0.0,0.0,0.0,0.0,0.0,0.7067,0.7741,0.8821,1.0298,1.0582,1.0564,0.0,0.0,0.0,0.0,0.0,0.0,0.0,0.0,0.0,0.0,0.0,0.0,0.0,0.0,0.0,0.0,0.0,0.0,0.0,0.0,0.0,0.0,0.0,0.0,0.0,0.0,0.0,0.0,0.0,0.0,0.0,0.0,0.0,0.0,0.0,0.0,0.0,0.0,0.0,0.0,0.0,0.0,0.0,0.0,0.0,0.0,0.0,0.0,0.0,0.0,0.0,0.0,0.0,0.0,0.0,0.0,0.0,0.0,0.0,0.0,0.0,0.0,0.0,0.0,0.0,0.0,0.0,0.0,0.0,0.0,0.0,0.0,0.0,0.0,0.0,0.0,0.0,0.0,0.0,0.0,0.0,0.0,0.0,0.0,0.0,0.0,0.0,0.0,0.0,0.0,0.0,0.0,0.0,0.0,0.0,0.0,0.0,0.0,0.0,0.0,0.0,0.0,0.0,0.0,0.0,0.0,0.0,0.0,0.3272,0.5601,0.6838,0.7879,0.8412,0.9958,1.0439,0.0,0.0,0.0,0.0,0.0,0.0,0.0,0.0,0.0,0.0,0.0,0.0,0.0,0.0,0.0,0.0,0.0,0.0,0.0,0.0,0.0,0.0,0.0,0.0,0.0,0.0,0.0,0.0,0.0,0.0,0.0,0.0,0.0,0.0,0.0,0.0,0.0,0.0,0.0,0.0,0.0,0.0,0.0,0.0,0.0,0.0,0.0,0.0,0.0,0.0,0.0,0.0,0.0,0.0,0.0,0.0,0.0,0.0,0.0,0.0,0.0,0.0,0.0,0.0,0.0,0.0,0.0,0.0,0.0,0.0,0.0,0.0,0.0,0.0,0.0,0.0,0.0,0.0,0.0,0.0,0.0,0.0,0.0,0.0,0.0,0.0,0.0,0.0,0.0,0.0,0.0,0.0,0.0,0.0,0.0,0.0,0.0,0.0,0.0,0.0,0.0,0.0,0.0,0.0,0.0,0.0,0.0,0.0,0.0,0.5627,0.0,0.8827,0.0,1.0929,1.1468,0.0,0.0,0.0,0.0,0.0,0.0,0.0,0.0,0.0,0.0,0.0,0.0,0.0,0.0,0.0,0.0,0.0,0.0,0.0,0.0,0.0,0.0,0.0,0.0,0.0,0.0,0.0,0.0,0.0,0.0,0.0,0.0,0.0,0.0,0.0,0.0,0.0,0.0,0.0,0.0,0.0,0.0,0.0,0.0,0.0,0.0,0.0,0.0,0.0,0.0,0.0,0.0,0.0,0.0,0.0,0.0,0.0,0.0,0.0,0.0,0.0,0.0,0.0,0.0,0.0,0.0,0.0,0.0,0.0,0.0,0.0,0.0,0.0,0.0,0.0,0.0,0.0,0.0,0.0,0.0,0.0,0.0,0.0,0.0,0.0,0.0,0.0,0.0,0.0,0.0,0.0,0.0,0.0,0.0,0.0,0.0,0.0,0.0,0.0,0.0,0.0,0.0,0.0,0.0,0.0,0.0,0.0,0.0,0.0,0.6172,0.7674,0.9284,0.0,1.1933,1.2552,0.0,0.0,0.0,0.0,0.0,0.0,0.0,0.0,0.0,0.0,0.0,0.0,0.0,0.0,0.0,0.0,0.0,0.0,0.0,0.0,0.0,0.0,0.0,0.0,0.0,0.0,0.0,0.0,0.0,0.0,0.0,0.0,0.0,0.0,0.0,0.0,0.0,0.0,0.0,0.0,0.0,0.0,0.0,0.0,0.0,0.0,0.0,0.0,0.0,0.0,0.0,0.0,0.0,0.0,0.0,0.0,0.0,0.0,0.0,0.0,0.0,0.0,0.0,0.0,0.0,0.0,0.0,0.0,0.0,0.0,0.0,0.0,0.0,0.0,0.0,0.0,0.0,0.0,0.0,0.0,0.0,0.0,0.0,0.0,0.0,0.0,0.0,0.0,0.0,0.0,0.0,0.0,0.0,0.0,0.0,0.0,0.0,0.0,0.0,0.0,0.0,0.0,0.0,0.0,0.0,0.0,0.0,0.0,0.0,0.0,0.8079,0.9334,1.0998,1.2884,1.3783,0.0,0.0,0.0,0.0,0.0,0.0,0.0,0.0,0.0,0.0,0.0,0.0,0.0,0.0,0.0,0.0,0.0,0.0,0.0,0.0,0.0,0.0,0.0,0.0,0.0,0.0,0.0,0.0,0.0,0.0,0.0,0.0,0.0,0.0,0.0,0.0,0.0,0.0,0.0,0.0,0.0,0.0,0.0,0.0,0.0,0.0,0.0,0.0,0.0,0.0,0.0,0.0,0.0,0.0,0.0,0.0,0.0,0.0,0.0,0.0,0.0,0.0,0.0,0.0,0.0,0.0,0.0,0.0,0.0,0.0,0.0,0.0,0.0,0.0,0.0,0.0,0.0,0.0,0.0,0.0,0.0,0.0,0.0,0.0,0.0,0.0,0.0,0.0,0.0,0.0,0.0,0.0,0.0,0.0,0.0,0.0,0.0,0.0,0.0,0.0,0.0,0.0,0.0,0.0,0.0,0.0,0.0,0.0,0.0,0.0,1.0461,0.0,1.222,1.4523,1.6156,1.6995,0.0,0.0,0.0,0.0,0.0,0.0,0.0,0.0,0.0,0.0,0.0,0.0,0.0,0.0,0.0,0.0,0.0,0.0,0.0,0.0,0.0,0.0,0.0,0.0,0.0,0.0,0.0,0.0,0.0,0.0,0.0,0.0,0.0,0.0,0.0,0.0,0.0,0.0,0.0,0.0,0.0,0.0,0.0,0.0,0.0,0.0,0.0,0.0,0.0,0.0,0.0,0.0,0.0,0.0,0.0,0.0,0.0,0.0,0.0,0.0,0.0,0.0,0.0,0.0,0.0,0.0,0.0,0.0,0.0,0.0,0.0,0.0,0.0,0.0,0.0,0.0,0.0,0.0,0.0,0.0,0.0,0.0,0.0,0.0,0.0,0.0,0.0,0.0,0.0,0.0,0.0,0.0,0.0,0.0,0.0,0.0,0.0,0.0,0.0,0.0,0.0,0.0,0.0,0.0,0.0,0.0,0.0,0.0,0.0,0.0,0.0,1.2917,1.4599,1.61,0.0,0.0,0.0,0.0,0.0,0.0,0.0,0.0,0.0,0.0,0.0,0.0,0.0,0.0,0.0,0.0,0.0,0.0,0.0,0.0,0.0,0.0,0.0,0.0,0.0,0.0,0.0,0.0,0.0,0.0,0.0,0.0,0.0,0.0,0.0,0.0,0.0,0.0,0.0,0.0,0.0,0.0,0.0,0.0,0.0,0.0,0.0,0.0,0.0,0.0,0.0,0.0,0.0,0.0,0.0,0.0,0.0,0.0,0.0,0.0,0.0,0.0,0.0,0.0,0.0,0.0,0.0,0.0,0.0,0.0,0.0,0.0,0.0,0.0,0.0,0.0,0.0,0.0,0.0,0.0,0.0,0.0,0.0,0.0,0.0,0.0,0.0,0.0,0.0,0.0,0.0,0.0,0.0,0.0,0.0,0.0,0.0,0.0,0.0,0.0,0.0,0.0,0.0,0.0,0.0,0.0,0.0,0.0,0.0,0.0,0.0,1.2983,1.3522,1.3919,0.0,1.6087,0.0,0.0,0.0,0.0,0.0,0.0,0.0,0.0,0.0,0.0,0.0,0.0,0.0,0.0,0.0,0.0,0.0,0.0,0.0,0.0,0.0,0.0,0.0,0.0,0.0,0.0,0.0,0.0,0.0,0.0,0.0,0.0,0.0,0.0,0.0,0.0,0.0,0.0,0.0,0.0,0.0,0.0,0.0,0.0,0.0,0.0,0.0,0.0,0.0,0.0,0.0,0.0,0.0,0.0,0.0,0.0,0.0,0.0,0.0,0.0,0.0,0.0,0.0,0.0,0.0,0.0,0.0,0.0,0.0,0.0,0.0,0.0,0.0,0.0,0.0,0.0,0.0,0.0,0.0,0.0,0.0,0.0,0.0,0.0,0.0,0.0,0.0,0.0,0.0,0.0,0.0,0.0,0.0,0.0,0.0,0.0,0.0,0.0,0.0,0.0,0.0,0.0,0.0,0.0,0.0,0.0,0.0,0.0,0.0,0.0,0.0,0.0,1.4703,1.5555,1.6995,0.0,0.0,0.0,0.0,0.0,0.0,0.0,0.0,0.0,0.0,0.0,0.0,0.0,0.0,0.0,0.0,0.0,0.0,0.0,0.0,0.0,0.0,0.0,0.0,0.0,0.0,0.0,0.0,0.0,0.0,0.0,0.0,0.0,0.0,0.0,0.0,0.0,0.0,0.0,0.0,0.0,0.0,0.0,0.0,0.0,0.0,0.0,0.0,0.0,0.0,0.0,0.0,0.0,0.0,0.0,0.0,0.0,0.0,0.0,0.0,0.0,0.0,0.0,0.0,0.0,0.0,0.0,0.0,0.0,0.0,0.0,0.0,0.0,0.0,0.0,0.0,0.0,0.0,0.0,0.0,0.0,0.0,0.0,0.0,0.0,0.0,0.0,0.0,0.0,0.0,0.0,0.0,0.0,0.0,0.0,0.0,0.0,0.0,0.0,0.0,0.0,0.0,0.0,0.0,0.0,0.0,0.0,0.0,0.0,0.0,1.4361,1.477,1.5164,1.6014,1.725,0.0,0.0,0.0,0.0,0.0,0.0,0.0,0.0,0.0,0.0,0.0,0.0,0.0,0.0,0.0,0.0,0.0,0.0,0.0,0.0,0.0,0.0,0.0,0.0,0.0,0.0,0.0,0.0,0.0,0.0,0.0,0.0,0.0,0.0,0.0,0.0,0.0,0.0,0.0,0.0,0.0,0.0,0.0,0.0,0.0,0.0,0.0,0.0,0.0,0.0,0.0,0.0,0.0,0.0,0.0,0.0,0.0,0.0,0.0,0.0,0.0,0.0,0.0,0.0,0.0,0.0,0.0,0.0,0.0,0.0,0.0,0.0,0.0,0.0,0.0,0.0,0.0,0.0,0.0,0.0,0.0,0.0,0.0,0.0,0.0,0.0,0.0,0.0,0.0,0.0,0.0,0.0,0.0,0.0,0.0,0.0,0.0,0.0,0.0,0.0,0.0,0.0,0.0,0.0,0.0,0.0,0.0,0.0,0.0,0.0,0.0,0.0,0.0,0.0,1.7056,0.0,0.0,0.0,0.0,0.0,0.0,0.0,0.0,0.0,0.0,0.0,0.0,0.0,0.0,0.0,0.0,0.0,0.0,0.0,0.0,0.0,0.0,0.0,0.0,0.0,0.0,0.0,0.0,0.0,0.0,0.0,0.0,0.0,0.0,0.0,0.0,0.0,0.0,0.0,0.0,0.0,0.0,0.0,0.0,0.0,0.0,0.0,0.0,0.0,0.0,0.0,0.0,0.0,0.0,0.0,0.0,0.0,0.0,0.0,0.0,0.0,0.0,0.0,0.0,0.0,0.0,0.0,0.0,0.0,0.0,0.0,0.0,0.0,0.0,0.0,0.0,0.0,0.0,0.0,0.0,0.0,0.0,0.0,0.0,0.0,0.0,0.0,0.0,0.0,0.0,0.0,0.0,0.0,0.0,0.0,0.0,0.0,0.0,0.0,0.0,0.0,0.0,0.0,0.0,0.0,0.0,0.0,0.0,0.0,0.0,0.0,0.0,0.0,0.0,0.0,0.0,0.0,0.0,0.0,0.0,0.0,0.0,0.0,0.0,0.0,0.0,0.0,0.0,0.0,0.0,0.0,0.0,0.0,0.0,0.0,0.0,0.0,0.0,0.0,0.0,0.0,0.0,0.0,0.0,0.0,0.0,0.0,0.0,0.0,0.0,0.0,0.0,0.0,0.0,0.0,0.0,0.0,0.0,0.0,0.0,0.0,0.0,0.0,0.0,0.0,0.0,0.0,0.0,0.0,0.0,0.0,0.0,0.0,0.0,0.0,0.0,0.0,0.0,0.0,0.0,0.0,0.0,0.0,0.0,0.0,0.0,0.0,0.0,0.0,0.0,0.0,0.0,0.0,0.0,0.0,0.0,0.0,0.0,0.0,0.0,0.0,0.0,0.0,0.0,0.0,0.0,0.0,0.0,0.0,0.0,0.0,0.0,0.0,0.0,0.0,0.0,0.0,0.0,0.0,0.0,0.0,0.0,0.0,0.0,0.0,0.0,0.0,0.0,0.0,0.0,0.0,0.0,0.0,0.0,0.0,0.0,0.0,0.0,0.0,0.0,0.0,0.0,0.0,0.0,0.0,0.0,0.0,0.0,0.0,0.0,0.0,0.0,0.0,0.0,0.0,0.0,0.0,0.0,0.0,0.0,0.0,0.0,0.0,0.0,0.0,0.0,0.0,0.0,0.0,0.0,0.0,0.0,0.0,0.0,0.0,0.0,0.0,0.0,0.0,0.0,0.0,0.0,0.0,0.0,0.0,0.0,0.0,0.0,0.0,0.0,0.0,0.0,0.0,0.0,0.0,0.0,0.0,0.0,0.0,0.0,0.0,0.0,0.0,0.0,0.0,0.0,0.0,0.0,0.0,0.0,0.0,0.0,0.0,0.0,0.0,0.0,0.0,0.0,0.0,0.0,0.0,0.0,0.0,0.0,0.0,0.0,0.0,0.0,0.0,0.0,0.0,0.0,0.0,0.0,0.0,0.0,0.0,0.0,0.0,0.0,0.0,0.0,0.0,0.0,0.0,0.0,0.0,0.0,0.0,0.0,0.0,0.0,0.0,0.0,0.0,0.0,0.0,0.0,0.0,0.0,0.0,0.0,0.0,0.0,0.0,0.0,0.0,0.0,0.0,0.0,0.0,0.0,0.0,0.0,0.0,0.0,0.0,0.0,0.0,0.0,0.0,0.0,0.0,0.0,0.0,0.0,0.0,0.0,0.0,0.0,0.0,0.0,0.0,0.0,0.0,0.0,0.0,0.0,0.0,0.0,0.0,0.0,0.0,0.0,0.0,0.0,0.0,0.0,0.0,0.0,0.0,0.0,0.0,0.0,0.0,0.0,0.0,0.0,0.0,0.0,0.0,0.0,0.0,0.0,0.0,0.0,0.0,0.0,0.0,0.0,0.0,0.0,0.0,0.0,0.0,0.0,0.0,0.0,0.0,0.0,0.0,0.0,0.0,0.0,0.0,0.0,0.0,0.0,0.0,0.0,0.0,0.0,0.0,0.0,0.0,0.0,0.0,0.0,0.0,0.0,0.0,0.0,0.0,0.0,0.0,0.0,0.0,0.0,0.0,0.0,0.0,0.0,0.0,0.0,0.0,0.0,0.0,0.0,0.0,0.0,0.0,0.0,0.0,0.0,0.0,0.0,0.0,0.0,0.0,0.0,0.0,0.0,0.0,0.0,0.0,0.0,0.0,0.0,0.0,0.0,0.0,0.0,0.0,0.0,0.0,0.0,0.0,0.0,0.0,0.0,0.0,0.0,0.0,0.0,0.0,0.0,0.0,0.0,0.0,0.0,0.0,0.0,0.0,0.0,0.0,0.0,0.0,0.0,0.0,0.0,0.0,0.0,0.0,0.0,0.0,0.0,0.0,0.0,0.0,0.0,0.0,0.0,0.0,0.0,0.0,0.0,0.0,0.0,0.0,0.0,0.0,0.0,0.0,0.0,0.0,0.0,0.0,0.0,0.0,0.0,0.0,0.0,0.0,0.0,0.0,0.0,0.0,0.0,0.0,0.0,0.0,0.0,0.0,0.0,0.0,0.0,0.0,0.0,0.0,0.0,0.0,0.0,0.0,0.0,0.0,0.0,0.0,0.0,0.0,0.0,0.0,0.0,0.0,0.0,0.0,0.0,0.0,0.0,0.0,0.0,0.0,0.0,0.0,0.0,0.0,0.0,0.0,0.0,0.0,0.0,0.0,0.0,0.0,0.0,0.0,0.0,0.0,0.0,0.0,0.0,0.0,0.0,0.0,0.0,0.0,0.0,0.0,0.0,0.0,0.0,0.0,0.0,0.0,0.0,0.0,0.0,0.0,0.0,0.0,0.0,0.0,0.0,0.0,0.0,0.0,0.0,0.0,0.0,0.0,0.0,0.0,0.0,0.0,0.0,0.0,0.0,0.0,0.0,0.0,0.0,0.0,0.0,0.0,0.0,0.0,0.0,0.0,0.0,0.0,0.0,0.0,0.0,0.0,0.0,0.0,0.0,0.0,0.0,0.0,0.0,0.0,0.0,0.0,0.0,0.0,0.0,0.0,0.0,0.0,0.0,0.0,0.0,0.0,0.0,0.0,0.0,0.0,0.0,0.0,0.0,0.0,0.0,0.0,0.0,0.0,0.0,0.0,0.0,0.0,0.0,0.0,0.0,0.0,0.0,0.0,0.0,0.0,0.0,0.0,0.0,0.0,0.0,0.0,0.0,0.0,0.0,0.0,0.0,0.0,0.0,0.0,0.0,0.0,0.0,0.0,0.0,0.0,0.0,0.0,0.0,0.0,0.0,0.0,0.0,0.0,0.0,0.0,0.0,0.0,0.0,0.0,0.0,0.0,0.0,0.0,0.0,0.0,0.0,0.0,0.0,0.0,0.0,0.0,0.0,0.0,0.0,0.0,0.0,0.0,0.0,0.0,0.0,0.0,0.0,0.0,0.0,0.0,0.0,0.0,0.0,0.0,0.0,0.0,0.0,0.0,0.0,0.0,0.0,0.0,0.0,0.0,0.0,0.0,0.0,0.0,0.0,0.0,0.0,0.0,0.0,0.0,0.0,0.0,0.0,0.0,0.0,0.0,0.0,0.0,0.0,0.0,0.0,0.0,0.0,0.0,0.0,0.0,0.0,0.0,0.0,0.0,0.0,0.0,0.0,0.0,0.0,0.0,0.0,0.0,0.0,0.0,0.0,0.0,0.0,0.0,0.0,0.0,0.0,0.0,0.0,0.0,0.0,0.0,0.0,0.0,0.0,0.0,0.0,0.0,0.0,0.0,0.0,0.0,0.0,0.0,0.0,0.0,0.0,0.0,0.0,0.0,0.0,0.0,0.0,0.0,0.0,0.0,0.0,0.0,0.0,0.0,0.0,0.0,0.0,0.0,0.0,0.0,0.0,0.0,0.0,0.0,0.0,0.0,0.0,0.0,0.0,0.0,0.0,0.0,0.0,0.0,0.0,0.0,0.0,0.0,0.0,0.0,0.0,0.0,0.0,0.0,0.0,0.0,0.0,0.0,0.0,0.0,0.0,0.0,0.0,0.0,0.0,0.0,0.0,0.0,0.0,0.0,0.0,0.0,0.0,0.0,0.0,0.0,0.0,0.0,0.0,0.0,0.0,0.0,0.0,0.0,0.0,0.0,0.0,0.0,0.0,0.0,0.0,0.0,0.0,0.0,0.0,0.0,0.0,0.0,0.0,0.0,0.0,0.0,0.0,0.0,0.0,0.0,0.0,0.0,0.0,0.0,0.0,0.0,0.0,0.0,0.0,0.0,0.0,0.0,0.0,0.0,0.0,0.0,0.0,0.0,0.0,0.0,0.0,0.0,0.0,0.0,0.0,0.0,0.0,0.0,0.0,0.0,0.0,0.0,0.0,0.0,0.0]}]]]